     2.10           OBSERVATION DATA    G (GPS)             RINEX VERSION / TYPE
teqc 2003Nov3 GPS Data Processor 20031211 22:26:14UTC       PGM / RUN BY / DATE
Solaris 2.7|Ultra 2|cc SC5.0|=+-|*Sparc                     COMMENT
2 OBSERVATION DATA                                          COMMENT
ASRINEXO V2.2.0 UX USGS 17-OCT-94 16:13                     COMMENT
HI'S ARE VERT TO BASE OF ANTENNA                            COMMENT
alde alder_ncer_1989                                        MARKER NAME
                                                            MARKER NUMBER
TNP USGS                                                    OBSERVER / AGENCY
764 ASHTECH L-XII 6A                                        REC # / TYPE / VERS
0598 ASH700228A NONE                                        ANT # / TYPE
 -2709928.0000 -4064415.0000  4088953.0000                  APPROX POSITION XYZ
        1.1452        0.0000        0.0000                  ANTENNA: DELTA H/E/N
     1     1                                                WAVELENGTH FACT L1/2
     3    L1    L2    C1                                    # / TYPES OF OBSERV
    30.0000                                                 INTERVAL
                                                            COMMENT
Receiver type modified to reflect codeless receiver         COMMENT
Original receiver designation: ASHTECH LM-XII3              COMMENT
                                                            COMMENT
                                                            COMMENT
  1992     5     6     2     2    0.0000000     GPS         TIME OF FIRST OBS
                                                            END OF HEADER
 92  5  6  2  2  0.0000000  0  1G13
     82611.777 5     64372.67822  23319119.503
 92  5  6  2  2 30.0000000  0  1G13
    166325.050 6    129603.68922  23335054.675
 92  5  6  2  3  0.0000000  0  4G12G20G13G24
    211042.440 7    164448.92824  22389096.747
   -211994.860 7   -165190.97028  22450301.187
    250376.865 5    195098.50123  23950620.023
     47944.424 8     37359.32429  21084085.790
 92  5  6  2  3 30.0000000  0  5G 3G12G20G13G24
   -167784.189 4   -130741.33521  24733094.243
    294987.077 7    229860.24125  21805488.366
   -287254.044 7   -223834.40927  21836398.478
    335189.654 5    261186.33522  23367176.844
     66629.047 8     51918.75729  20488050.726
 92  5  6  2  4  0.0000000  0  5G 3G12G20G13G24
   -243690.734 4   -189889.04021  24718652.635
    380296.417 6    296334.98825  21821720.943
   -361321.198 7   -281549.03728  21822301.634
    420926.052 5    327993.80722  23383507.438
     86757.130 8     67602.99329  20491885.062
 92  5  6  2  4 30.0000000  0  5G 3G12G20G13G24
   -318489.708 4   -248173.72422  24704413.693
    467038.086 7    363925.82426  21838231.100
   -434135.056 7   -338287.06228  21808446.719
    507655.161 5    395574.87523  23400003.216
    108385.928 8     84456.59529  20496004.204
 92  5  6  2  5  0.0000000  0  5G 3G12G20G13G24
   -392125.810 4   -305552.31322  24690406.194
    555264.887 7    432673.91926  21855019.187
   -505637.509 7   -394003.20629  21794837.050
    595431.544 5    463971.97222  23416704.645
    131563.058 8    102516.70429  20500415.950
 92  5  6  2  5 30.0000000  0  5G 3G12G20G13G24
   -464571.321 4   -362003.16623  24676632.528
    645001.816 6    502598.73524  21872097.470
   -575798.803 7   -448674.31128  21781486.098
    684282.390 5    533206.35422  23433614.744
    156318.361 8    121806.56029  20505126.602
 92  5  6  2  6  0.0000000  0  5G 3G12G20G13G24
   -535874.769 4   -417564.08622  24663043.223
    736197.553 7    573660.26227  21889451.852
   -644665.036 7   -502336.26528  21768378.873
    774158.417 5    603239.57121  23450714.003
    182606.705 8    142290.98429  20510126.840
 92  5  6  2  6 30.0000000  0  5G 3G12G20G13G24
   -606111.492 4   -472293.88022  24649689.566
    828774.077 7    645797.74926  21907062.856
   -712309.474 7   -555046.20028  21755514.468
    864983.350 5    674012.15423  23467993.453
    210352.297 8    163910.93529  20515403.785
 92  5  6  2  7  0.0000000  0  5G 3G12G20G13G24
   -675347.771 3   -526244.17323  24636488.215
    922662.465 7    718957.46727  21924931.983
   -778796.266 8   -606854.05629  21742857.528
    956690.018 5    745471.91221  23485445.573
    239485.382 8    186612.03929  20520949.342
 92  5  6  2  7 30.0000000  0  5G12G20G13G16G24
   1017793.854 7    793085.71922  21943035.258
   -844189.141 7   -657809.51023  21730415.244
   1049211.961 5    817566.79821  23503055.373
   -220468.658 5   -171793.55421  23777861.332
    269932.549 8    210337.09224  20526740.441
 92  5  6  2  8  0.0000000  0  5G12G20G13G16G24
   1114128.355 7    868151.49427  21961370.254
   -908523.053 7   -707939.80029  21718170.827
   1142510.789 5    890267.09522  23520814.477
   -298423.891 5   -232537.67423  23763026.396
    301644.013 8    235047.34929  20532778.252
 92  5  6  2  8 30.0000000  0  5G12G20G13G16G24
   1211601.803 7    944104.77327  21979914.217
   -971857.461 7   -757291.24728  21706122.167
   1236524.219 5    963524.34522  23538696.203
   -375565.832 5   -292648.07224  23748335.371
    334556.358 8    260693.31929  20539042.723
 92  5  6  2  9  0.0000000  0  6G 3G12G20G13G16G24
    -24023.34114    -18718.52422  24585503.111
   1310174.477 6   1020914.55027  21998667.145
  -1034227.104 8   -805890.92029  21694254.274
   1331214.650 5   1037309.00222  23556719.731
   -451927.095 5   -352150.16624  23733823.613
    368635.359 8    287248.40629  20545526.334
 92  5  6  2  9 30.0000000  0  6G 3G12G20G13G16G24
    -89034.991 4    -69376.76121  24573124.084
   1409803.617 6   1098547.58426  22017636.806
  -1095669.362 7   -853767.96929  21682558.179
   1426541.200 5   1111589.43523  23574867.957
   -527528.131 5   -411059.85623  23719426.974
    403850.454 8    314688.74429  20552227.881
 92  5  6  2 10  0.0000000  0  6G 3G12G20G13G16G24
   -153336.514 3   -119481.68322  24560886.246
   1510437.760 7   1176963.73726  22036776.449
  -1156230.175 7   -900958.16128  21671037.161
   1522454.270 5   1186326.85622  23593116.627
   -602406.244 5   -469406.28023  23705182.047
    440164.504 8    342985.39329  20559135.410
 92  5  6  2 10 30.0000000  0  5G12G20G13G16G24
   1612015.520 7   1256115.16926  22056108.271
  -1215966.612 7   -947505.97928  21659667.227
   1618894.967 5   1261475.40222  23611457.923
   -676602.716 6   -527221.50623  23691063.321
    477525.701 8    372098.03229  20566248.275
 92  5  6  2 11  0.0000000  0  5G12G20G13G16G24
   1714499.815 7   1335973.00625  22075619.971
  -1274909.975 8   -993435.82329  21648452.583
   1715828.191 5   1337007.73422  23629914.058
   -750142.017 5   -584524.70223  23677068.700
    515894.915 8    401996.12129  20573547.632
 92  5  6  2 11 30.0000000  0  5G12G20G13G16G24
   1817865.943 7   1416517.96826  22095282.754
  -1333080.637 7  -1038763.55328  21637384.556
   1813230.656 5   1412905.70221  23648440.623
   -823064.347 6   -641347.07624  23663188.011
    555239.333 8    432654.13929  20581033.147
 92  5  6  2 12  0.0000000  0  5G12G20G13G16G24
   1922077.598 7   1497721.76725  22115112.518
  -1390508.998 7  -1083512.87629  21626449.621
   1911069.058 6   1489143.40323  23667064.926
   -895402.650 6   -697714.42724  23649428.445
    595518.873 8    464040.79829  20588700.040
 92  5  6  2 12 30.0000000  0  5G12G20G13G16G24
   2027122.659 7   1579574.99326  22135104.186
  -1447202.731 7  -1127689.74328  21615663.380
   2009333.466 5   1565712.99622  23685764.178
   -967178.666 6   -753643.61824  23635770.194
    636714.958 8    496141.65329  20596540.510
 92  5  6  2 13  0.0000000  0  5G12G20G13G16G24
   2132957.088 6   1662043.31725  22155240.952
  -1503200.574 7  -1171324.37929  21605005.764
   2107981.343 5   1642581.40821  23704520.702
  -1038430.922 6   -809164.74324  23622206.384
    678786.403 8    528924.62529  20604546.774
 92  5  6  2 13 30.0000000  0  5G12G20G13G16G24
   2239515.405 7   1745075.67325  22175522.502
  -1558562.600 7  -1214463.54228  21594471.957
   2206950.084 5   1719699.8082   23723351.267
  -1109209.440 6   -864316.62325  23608737.312
    721676.621 8    562345.56229  20612706.828
 92  5  6  2 14  0.0000000  0  5G12G20G13G16G24
   2346817.067 6   1828687.28726  22195939.571
  -1613264.682 7  -1257088.46628  21584060.163
   2306261.192 5   1797085.00323  23742259.781
  -1179475.057 6   -919068.83624  23595362.365
    765409.856 8    596423.39529  20621031.454
 92  5  6  2 14 30.0000000  0  6G 3G12G20G13G16G24
    -43538.13215    -33924.00122  24455698.375
   2454850.661 7   1912869.25425  22216501.442
  -1667312.657 7  -1299203.69928  21573774.586
   2405905.716 5   1874730.12122  23761227.645
  -1249239.376 6   -973430.42325  23582092.051
    809960.953 8    631138.56129  20629506.292
 92  5  6  2 15  0.0000000  0  6G 3G12G20G13G16G24
   -102493.804 5    -79863.30223  24444481.043
   2563626.326 7   1997629.43025  22237196.109
  -1720691.480 7  -1340797.53029  21563620.025
   2505895.515 5   1952644.17921  23780242.274
  -1318472.395 5  -1027378.02724  23568916.787
    855340.749 8    666499.44729  20638142.108
 92  5  6  2 15 30.0000000  0  6G 3G12G20G13G16G24
   -160981.892 4   -125438.16723  24433344.053
   2673133.643 7   2082959.72126  22258037.078
  -1773406.179 7  -1381873.85928  21553588.069
   2606222.563 5   2030821.08422  23799347.750
  -1387172.685 5  -1080910.56823  23555838.634
    901529.408 8    702490.61229  20646926.338
 92  5  6  2 16  0.0000000  0  6G 3G12G20G13G16G24
   -218997.676 4   -170645.09023  24422311.379
   2783374.343 6   2168861.50126  22279015.957
  -1825450.121 7  -1422427.53128  21543685.612
   2706890.560 5   2109263.63322  23818495.804
  -1455336.736 5  -1134025.25723  23542866.910
    948525.038 8    739110.62329  20655874.827
 92  5  6  2 16 30.0000000  0  6G 3G12G20G13G16G24
   -276570.263 5   -215506.60022  24411351.875
   2894316.491 6   2255309.88725  22300125.852
  -1876849.694 7  -1462479.08328  21533900.995
   2807870.513 5   2187949.27822  23837713.694
  -1522984.665 6  -1186737.75423  23529998.020
    996312.814 8    776347.83429  20664966.338
 92  5  6  2 17  0.0000000  0  6G 3G12G20G13G16G24
   -333707.850 4   -260029.22922  24400475.398
   3005949.153 6   2342296.28925  22321365.838
  -1927610.877 7  -1502033.17827  21524241.672
   2909153.382 5   2266870.98922  23856991.543
  -1590105.945 6  -1239039.85323  23517231.964
   1044909.467 8    814215.36529  20674215.844
 92  5  6  2 17 30.0000000  0  6G 3G12G20G13G16G24
   -390423.774 4   -304223.56922  24389685.266
   3118256.255 6   2429808.22425  22342736.840
  -1977744.368 7  -1541098.18827  21514707.972
   3010725.573 5   2346018.12721  23876313.471
  -1656719.570 5  -1290946.42124  23504554.032
   1094313.560 8    852712.04929  20683620.325
 92  5  6  2 18  0.0000000  0  6G 3G12G20G13G16G24
   -446747.702 5   -348112.21621  24378965.300
   3231204.898 7   2517820.09625  22364234.671
  -2027277.745 7  -1579695.56227  21505276.199
   3112556.693 5   2425367.12021  23895696.859
  -1722871.387 5  -1342493.13022  23491961.554
   1144506.118 8    891823.13729  20693169.625
 92  5  6  2 18 30.0000000  0  6G 3G12G20G13G16G24
   -502708.704 4   -391717.99423  24368325.658
   3344763.379 6   2606307.15025  22385841.897
  -2076237.515 7  -1617845.98528  21495960.453
   3214617.049 5   2504894.6482   23915116.508
  -1788588.365 5  -1393700.97123  23479464.999
   1195448.375 8    931518.40029  20702863.709
 92  5  6  2 19  0.0000000  0  6G 3G12G20G13G16G24
   -558311.966 4   -435045.0582   24357745.678
   3458923.355 6   2695262.92225  22407574.765
  -2124626.695 7  -1655551.80127  21486753.229
   3316900.762 5   2584596.13821  23934580.237
  -1853888.808 5  -1444584.30922  23467023.325
   1247113.235 8    971776.73529  20712694.202
 92  5  6  2 19 30.0000000  0  6G 3G12G20G13G16G24
   -613563.603 3   -478098.07522  24347206.480
   3573676.420 7   2784680.81925  22429402.056
  -2172448.961 7  -1692815.86928  21477651.824
   3419401.845 5   2664467.07722  23954085.933
  -1918789.908 5  -1495156.44022  23454667.664
   1299467.394 8   1012572.17429  20722656.601
 92  5  6  2 20  0.0000000  0  6G 3G12G20G13G16G24
   -668487.111 5   -520895.45921  24336775.193
   3688995.664 7   2874539.88325  22451349.561
  -2219725.592 7  -1729654.75327  21468655.364
   3522096.234 6   2744488.65122  23973636.895
  -1983307.917 5  -1545430.02123  23442404.960
   1352463.008 8   1053867.46829  20732736.528
 92  5  6  2 20 30.0000000  0  6G 3G12G20G13G16G24
   -723099.327 4   -563450.27622  24326387.986
   3804861.499 7   2964824.84224  22473397.195
  -2266470.872 8  -1766079.62528  21459766.816
   3624966.613 5   2824647.39922  23993201.660
  -2047438.261 5  -1595401.59422  23430198.009
   1406072.264 8   1095640.90429  20742944.451
 92  5  6  2 21  0.0000000  0  6G 3G12G20G13G16G24
   -777439.468 5   -605793.18322  24316048.453
   3921231.598 6   3055502.76225  22495533.861
  -2312721.681 8  -1802119.19128  21450962.501
   3727972.473 5   2904911.68621  24012809.284
  -2111212.651 5  -1645095.76424  23418064.506
   1460267.638 8   1137871.05829  20753256.413
 92  5  6  2 21 30.0000000  0  6G 3G12G20G13G16G24
   -831538.366 4   -647947.99923  24305754.482
   4038072.399 7   3146547.49125  22517775.472
  -2358506.140 8  -1837795.36029  21442250.236
   3831083.396 5   2985257.80522  24032432.490
  -2174644.229 5  -1694522.82523  23405984.977
   1515031.347 8   1180544.07829  20763678.713
 92  5  6  2 22  0.0000000  0  6G 3G12G20G13G16G24
   -885382.553 5   -689904.44423  24295509.372
   4155394.438 6   3237967.20925  22540100.408
  -2403808.815 8  -1873096.11428  21433631.503
   3934312.025 5   3065695.64522  24052072.797
  -2237717.306 5  -1743670.49822  23393986.381
   1570393.599 8   1223683.48929  20774213.706
 92  5  6  2 22 30.0000000  0  6G 3G12G20G13G16G24
   -938977.026 5   -731666.29922  24285301.431
   4273189.851 6   3329755.75925  22562511.392
  -2448632.205 8  -1908023.40829  21425095.223
   4037653.544 5   3146221.53122  24071737.988
  -2300441.169 5  -1792546.07724  23382045.651
   1626360.239 8   1267293.85129  20784862.945
 92  5  6  2 23  0.0000000  0  6G 3G12G20G13G16G24
   -992308.257 5   -773223.03022  24275154.356
   4391469.054 6   3421921.27624  22585022.207
  -2492960.375 8  -1942564.81629  21416663.854
   4141120.695 5   3226845.20222  24091422.654
  -2362818.868 6  -1841151.95925  23370187.949
   1682942.302 8   1311383.75829  20795629.084
 92  5  6  2 23 30.0000000  0  6G 3G12G20G13G16G24
  -1045393.738 4   -814588.23923  24265050.157
   4510211.817 6   3514447.99726  22607615.475
  -2536808.215 8  -1976731.94628  21408314.937
   4244695.754 5   3307553.03222  24111135.205
  -2424880.619 6  -1889511.65024  23358371.342
   1740106.730 8   1355927.45429  20806508.562
 92  5  6  2 24  0.0000000  0  6G 3G12G20G13G16G24
  -1098229.109 5   -855758.64122  24255003.508
   4629419.419 6   3607336.95526  22630305.557
  -2580169.101 8  -2010519.62228  21400067.336
   4348382.294 5   3388347.68123  24130866.044
  -2486626.928 6  -1937625.50224  23346622.163
   1797842.398 8   1400916.29729  20817495.045
 92  5  6  2 24 30.0000000  0  6G 3G12G20G13G16G24
  -1150807.118 5   -896728.45323  24244984.448
   4749096.228 6   3700591.54226  22653080.796
  -2623033.253 8  -2043920.24229  21391907.893
   4452187.530 5   3469234.82022  24150628.660
  -2548038.746 6  -1985478.66925  23334934.164
   1856155.973 8   1446355.44329  20828593.069
 92  5  6  2 25  0.0000000  0  6G 3G12G20G13G16G24
  -1203136.419 4   -937504.42021  24235040.930
   4869230.635 6   3794202.67624  22675942.972
  -2665407.422 8  -2076939.04929  21383847.672
   4556102.726 5   3550207.65022  24170393.684
  -2609113.528 6  -2033069.21325  23323318.095
   1915034.660 8   1492234.91729  20839795.411
 92  5  6  2 25 30.0000000  0  6G 3G12G20G13G16G24
  -1255207.553 4   -978079.24723  24225129.486
   4989829.083 6   3888175.38024  22698891.788
  -2707279.542 8  -2109566.64329  21375880.985
   4660136.216 4   3631272.64621  24190198.879
  -2669812.934 6  -2080367.31924  23311754.516
   1974500.823 8   1538572.19029  20851109.870
 92  5  6  2 26  0.0000000  0  6G 3G12G20G13G16G24
  -1307023.643 4  -1018455.31122  24215268.717
   5110885.479 6   3982504.98725  22721929.932
  -2748650.345 8  -2141803.60829  21368003.939
   4764285.298 4   3712427.71721  24210011.559
  -2730122.140 6  -2127361.35424  23300285.047
   2034567.595 8   1585377.46829  20862546.062
 92  5  6  2 26 30.0000000  0  5G 3G12G20G16G24
  -1358582.122 5  -1058630.63923  24205448.415
   5232398.973 6   4077190.74525  22745048.731
  -2789515.243 8  -2173646.35029  21360232.118
  -2790027.918 5  -2174041.03224  23288881.539
   2095242.692 8   1632656.75729  20874088.666
 92  5  6  2 27  0.0000000  0  6G 3G12G20G13G16G24
  -1409886.384 5  -1098607.92422  24195697.669
   5354364.249 6   4172228.52925  22768259.266
  -2829874.563 8  -2205095.13429  21352550.532
     38284.61415     29829.61222  24249715.778
  -2849535.496 5  -2220410.40824  23277556.278
   2156511.988 8   1680399.06329  20885746.092
 92  5  6  2 27 30.0000000  0  6G 3G12G20G13G16G24
  -1460952.248 5  -1138399.35122  24185976.292
   5476761.678 6   4267603.05225  22791554.940
  -2869742.299 8  -2236160.86029  21344962.183
    142761.797 4    111240.34022  24269602.500
  -2908667.086 6  -2266486.84325  23266307.169
   2218359.394 8   1728591.84329  20897517.154
 92  5  6  2 28  0.0000000  0  6G 3G12G20G13G16G24
  -1511763.885 5  -1177992.64422  24176305.295
   5599604.512 6   4363324.66124  22814924.952
  -2909099.885 8  -2266829.09329  21337473.666
    247352.568 5    192739.58321  24289502.431
  -2967416.976 6  -2312265.85925  23255138.402
   2280777.502 8   1777229.32629  20909392.236
 92  5  6  2 28 30.0000000  0  6G 3G12G20G13G16G24
  -1562327.954 5  -1217393.09023  24166691.254
   5722882.950 6   4459385.68125  22838391.202
  -2947951.577 8  -2297103.08529  21330077.200
    352049.942 3    274321.84222  24309415.241
  -3025790.715 6  -2357751.68524  23244022.404
   2343743.841 8   1826293.98529  20921377.325
 92  5  6  2 29  0.0000000  0  5G 3G12G20G16G24
  -1612645.597 4  -1256601.50522  24157095.484
   5846592.743 6   4555782.86823  22861923.728
  -2986296.041 8  -2326981.85829  21322781.752
  -3083797.396 6  -2402951.58323  23232983.448
   2407252.382 8   1875781.15729  20933458.076
 92  5  6  2 29 30.0000000  0  5G 3G12G20G16G24
  -1662715.708 3  -1295616.98822  24147559.690
   5970732.190 6   4652514.79923  22885542.266
  -3024129.976 8  -2356462.80929  21315584.933
  -3141427.843 5  -2447858.28222  23222017.330
   2471301.414 8   1925689.48629  20945650.927
 92  5  6  2 30  0.0000000  0  6G 3G12G20G13G16G24
  -1712543.814 5  -1334443.91923  24138092.843
   6095292.954 6   4749575.04725  22909253.151
  -3061456.412 8  -2385548.33429  21308480.740
     17507.03014     13638.74921  24369299.380
  -3198674.077 6  -2492465.60726  23211121.082
   2535884.449 8   1976013.93429  20957940.016
 92  5  6  2 30 30.0000000  0  6G 3G12G20G13G16G24
  -1762128.656 5  -1373081.34122  24128659.272
   6220272.818 6   4846961.86125  22933037.187
  -3098272.100 8  -2414235.85029  21301472.803
    122615.738 4     95541.47221  24389308.428
  -3255537.685 6  -2536774.75526  23200296.468
   2601012.372 8   2026762.96729  20970333.440
 92  5  6  2 31  0.0000000  0  6G 3G12G20G13G16G24
  -1811477.354 4  -1411534.70922  24119252.994
   6345662.157 6   4944667.76124  22956895.579
  -3134581.120 8  -2442528.58029  21294564.680
    227818.207 4    177517.46721  24409338.172
  -3312022.923 6  -2580789.07626  23189557.901
   2666679.378 8   2077932.06229  20982831.792
 92  5  6  2 31 30.0000000  0  6G 3G12G20G13G16G24
  -1860586.322 5  -1449801.23522  24109925.539
   6471461.421 6   5042693.09724  22980829.809
  -3170377.735 8  -2470422.02129  21287753.389
    333117.868 4    259569.01322  24429367.602
  -3368116.009 5  -2624497.82225  23178879.903
   2732892.369 8   2129526.59729  20995431.460
 92  5  6  2 32  0.0000000  0  6G 3G12G20G13G16G24
  -1909457.418 5  -1487882.47223  24100628.988
   6597665.391 6   5141033.78723  23004852.180
  -3205661.311 7  -2497915.70929  21281033.240
    438512.359 5    341694.63021  24449425.807
  -3423823.715 6  -2667906.31523  23168276.243
   2799660.266 8   2181553.54529  21008134.573
 92  5  6  2 32 30.0000000  0  6G 3G12G20G13G16G24
  -1958099.743 4  -1525785.4892   24091359.990
   6724262.515 6   5239680.79924  23028943.793
  -3240438.563 8  -2525014.85529  21274419.521
    543992.726 5    423887.00922  24469500.520
  -3479153.546 6  -2711020.32525  23157749.016
   2866970.517 8   2234003.09429  21020946.505
 92  5  6  2 33  0.0000000  0  6G 3G12G20G13G16G24
  -2006512.523 4  -1563509.61122  24082151.580
   6851250.643 6   5338632.54523  23053108.261
  -3274706.503 8  -2551717.12929  21267901.131
    649559.382 5    506146.78322  24489585.721
  -3534089.968 6  -2753827.80325  23147296.457
   2934828.910 8   2286879.76229  21033857.956
 92  5  6  2 33 30.0000000  0  6G 3G12G20G13G16G24
  -2054694.888 5  -1601054.18322  24072992.921
   6978626.797 6   5437886.59122  23077347.678
  -3308461.779 8  -2578019.93729  21261479.277
    755212.774 5    588474.13921  24509696.084
  -3588626.698 6  -2796323.82926  23136914.346
   3003236.574 8   2340184.42329  21046875.260
 92  5  6  2 34  0.0000000  0  6G 3G12G20G13G16G24
  -2102643.857 5  -1638416.88822  24063860.332
   7106391.327 6   5537443.25524  23101653.354
  -3341699.271 8  -2603919.26729  21255153.363
    860955.259 5    670870.80922  24529819.361
  -3642754.966 6  -2838501.60025  23126616.169
   3072190.553 8   2393914.79329  21059993.269
 92  5  6  2 34 30.0000000  0  7G 3G12G20G13G16G24G25
  -2150359.888 5  -1675598.10122  24054770.932
   7234540.941 6   5637300.03224  23126046.874
  -3374416.825 8  -2629413.45529  21248923.077
    966786.748 5    753336.82922  24549958.815
  -3696466.453 6  -2880354.58624  23116398.648
   3141676.528 8   2448059.70829  21073217.707
  -1388614.785 4  -1082037.93522  24814244.753
 92  5  6  2 35  0.0000000  0  7G 3G12G20G13G16G24G25
  -2197853.636 5  -1712606.07822  24045742.381
   7363061.955 6   5737446.12622  23150497.351
  -3406622.726 8  -2654508.95829  21242795.922
   1072696.546 5    835863.86022  24570110.571
  -3749775.750 6  -2921894.17525  23106251.277
   3211685.729 8   2502612.29429  21086540.792
  -1425108.448 4  -1110474.50523  24807311.153
 92  5  6  2 35 30.0000000  0  7G 3G12G20G13G16G24G25
  -2245129.749 5  -1749444.50823  24036746.201
   7491946.507 6   5837875.58324  23175028.169
  -3438319.401 8  -2679207.64429  21236766.488
   1178679.748 4    918448.18322  24590277.299
  -3802696.092 6  -2963130.64825  23096176.446
   3282204.527 8   2557562.02029  21099959.206
  -1461053.690 5  -1138483.70423  24800464.491
 92  5  6  2 36  0.0000000  0  7G 3G12G20G13G16G24G25
  -2292190.977 5  -1786115.48022  24027792.006
   7621189.015 5   5938583.95125  23199621.633
  -3469507.151 8  -2703509.76729  21230830.604
   1284733.501 5   1001087.42521  24610464.129
  -3855237.235 6  -3004071.71425  23086184.067
   3353229.312 8   2612905.99529  21113474.452
  -1496443.729 4  -1166060.29222  24793722.163
 92  5  6  2 36 30.0000000  0  7G 3G12G20G13G16G24G25
  -2339037.201 5  -1822618.93823  24018874.386
   7750786.470 5   6039568.91525  23224284.654
  -3500183.579 8  -2727413.44829  21224991.238
   1390858.076 5   1083781.92222  24630656.352
  -3907400.109 6  -3044718.01425  23076253.742
   3424752.885 8   2668638.64829  21127088.624
  -1531269.618 5  -1193197.27024  24787103.051
 92  5  6  2 37  0.0000000  0  7G 3G12G20G13G16G24G25
  -2385668.262 5  -1858954.75122  24009995.418
   7880735.826 5   6140828.04025  23249014.841
  -3530346.183 8  -2750916.74929  21219251.111
   1497053.354 5   1166531.45222  24650857.265
  -3959184.497 6  -3085069.38325  23066407.055
   3496774.610 8   2724759.47229  21140787.934
  -1565520.325 5  -1219886.05123  24780579.566
 92  5  6  2 37 30.0000000  0  7G 3G12G20G13G16G24G25
  -2432087.968 5  -1895125.81022  24001170.739
   8011030.494 5   6242356.23823  23273806.784
  -3559996.295 8  -2774020.69729  21213610.817
   1603315.031 5   1249332.63722  24671077.077
  -4010581.829 6  -3125119.12725  23056623.939
   3569284.881 8   2781260.95829  21154588.579
  -1599198.216 5  -1246128.56622  24774166.698
 92  5  6  2 38  0.0000000  0  7G 3G12G20G13G16G24G25
  -2478299.031 5  -1931134.33225  23992373.334
   8141664.590 5   6344148.93724  23298669.471
  -3589134.300 8  -2796725.61329  21208066.760
   1709640.345 5   1332183.57321  24691324.756
  -4061582.932 6  -3164860.14825  23046916.959
   3642273.447 8   2838135.18329  21168483.367
  -1632296.688 5  -1271919.51222  24767874.953
 92  5  6  2 38 30.0000000  0  7G 3G12G20G13G16G24G25
  -2524305.718 5  -1966983.55424  23983629.274
   8272631.240 6   6446200.79124  23323587.910
  -3617762.151 8  -2819032.99829  21202619.832
   1816025.491 5   1415081.02921  24711568.544
  -4112180.985 6  -3204287.11025  23037287.022
   3715736.553 8   2895379.15329  21182457.885
  -1664823.256 5  -1297264.83023  24761692.637
 92  5  6  2 39  0.0000000  0  7G 3G12G20G13G16G24G25
  -2570108.493 5  -2002673.91123  23974905.910
   8403926.280 6   6548508.52924  23348572.312
  -3645878.289 8  -2840941.64629  21197270.031
   1922469.543 4   1498024.48821  24731801.531
  -4162371.216 6  -3243396.27026  23027747.319
   3789682.587 8   2952999.44829  21196527.455
  -1696781.415 5  -1322167.21723  24755598.463
 92  5  6  2 39 30.0010000  0  7G 3G12G20G13G16G24G25
  -2615709.227 5  -2038206.84823  23966232.021
   8535551.068 6   6651073.22326  23373625.383
  -3673481.235 8  -2862450.39729  21192017.973
   2028975.897 4   1581016.44222  24752081.898
  -4212149.954 6  -3282184.77626  23018267.282
   3864111.896 8   3010996.29129  21210695.046
  -1728180.186 5  -1346633.72022  24749623.599
 92  5  6  2 40  0.0010000  0  7G 3G12G20G13G16G24G25
  -2661109.830 5  -2073583.87424  23957583.902
   8667488.646 5   6753881.60525  23398719.198
  -3700572.129 8  -2883560.16029  21186863.632
   2135532.278 5   1664047.34922  24772362.559
  -4261519.801 6  -3320654.68526  23008868.193
   3939013.868 8   3069361.44629  21224951.071
  -1759016.155 5  -1370661.73021  24743769.853
 92  5  6  2 40 30.0010000  0  7G 3G12G20G13G16G24G25
  -2706315.349 5  -2108808.83524  23948975.971
   8799736.971 6   6856932.16522  23423890.387
  -3727152.973 8  -2904272.48929  21181803.139
   2242138.102 4   1747116.85721  24792650.705
  -4310489.322 6  -3358812.66725  22999550.336
   4014399.669 8   3128103.62629  21239291.939
  -1789298.699 5  -1394258.44022  24737997.339
 92  5  6  2 41  0.0010000  0  7G 3G12G20G13G16G24G25
  -2751320.399 5  -2143877.60422  23940425.888
   8932298.588 6   6960226.79023  23449114.624
  -3753215.982 8  -2924581.29629  21176842.478
   2348799.194 4   1830229.39921  24812939.463
  -4359050.560 6  -3396652.49025  22990304.442
   4090268.998 8   3187222.57929  21253727.544
  -1819012.095 5  -1417411.72523  24732338.163
 92  5  6  2 41 30.0010000  0  6G 3G12G20G16G24G25
  -2796133.934 4  -2178797.13722  23931871.303
   9065161.115 5   7063755.93624  23474403.008
  -3778767.769 8  -2944491.76529  21171979.835
  -4407215.351 6  -3434183.38925  22981133.795
   4166608.115 8   3246707.59629  21268254.292
  -1848156.616 5  -1440121.69523  24726794.700
 92  5  6  2 42  0.0010000  0  6G 3G12G20G16G24G25
  -2840757.215 5  -2213568.35823  23923403.672
   9198320.435 6   7167516.32324  23499740.864
  -3803807.355 8  -2964003.09329  21167211.651
  -4454982.997 6  -3471404.78925  22972050.974
   4243420.485 8   3306561.38129  21282876.074
  -1876712.701 5  -1462373.12223  24721363.058
 92  5  6  2 42 30.0010000  0  6G 3G12G20G16G24G25
  -2885184.429 5  -2248186.83424  23914945.621
   9331779.214 6   7271510.09423  23525136.881
  -3828326.868 8  -2983109.20529  21162551.971
  -4502346.523 6  -3508311.31826  22963038.913
   4320708.957 8   3366786.17129  21297581.198
  -1904662.181 4  -1484151.90023  24716031.546
 92  5  6  2 43  0.0010000  0  6G 3G12G20G16G24G25
  -2929422.745 5  -2282658.17822  23906532.854
   9465527.293 6   7375729.27523  23550596.767
  -3852331.135 8  -3001813.81929  21157983.138
  -4549303.493 6  -3544901.11325  22954099.411
   4398448.115 8   3427362.14029  21312371.444
  -1932002.847 5  -1505456.30322  24710842.444
 92  5  6  2 43 30.0010000  0  6G 3G12G20G16G24G25
  -2973468.437 5  -2316979.35021  23898152.457
   9599565.305 6   7480174.39323  23576101.307
  -3875814.041 8  -3020112.17629  21153515.027
  -4595845.872 6  -3581167.82025  22945245.345
   4476636.442 8   3488288.07529  21327254.944
  -1958749.169 5  -1526297.58023  24705759.754
 92  5  6  2 44  0.0010000  0  6G 3G12G20G16G24G25
  -3017332.594 5  -2351159.07822  23889800.241
   9733878.998 6   7584834.27123  23601658.913
  -3898784.357 8  -3038011.10029  21149143.748
  -4641978.109 6  -3617114.90924  22936474.604
   4555256.733 8   3549550.65429  21342212.486
  -1984920.535 5  -1546690.74722  24700773.616
 92  5  6  2 44 30.0010000  0  6G 3G12G20G16G24G25
  -3061010.119 5  -2385193.37722  23881486.085
   9868470.748 5   7689710.84124  23627262.082
  -3921234.931 8  -3055505.03429  21144868.706
  -4687692.454 6  -3652736.37824  22927767.137
   4634302.791 8   3611144.97629  21357252.479
  -2010535.702 5  -1566650.57922  24695895.094
 92  5  6  2 45  0.0010000  0  6G 3G12G20G16G24G25
  -3104501.923 5  -2419082.94424  23873215.118
  10003336.546 5   7794800.98323  23652936.308
  -3943164.271 8  -3072592.83129  21140697.703
  -4732984.720 6  -3688028.94526  22919151.110
   4713771.475 8   3673068.61529  21372381.504
  -2035621.899 6  -1586198.25222  24691124.483
 92  5  6  2 45 30.0010000  0  6G 3G12G20G16G24G25
  -3147807.013 5  -2452827.07623  23864962.125
  10138474.283 6   7900102.99123  23678654.614
  -3964569.009 8  -3089271.82829  21136624.420
  -4777863.593 6  -3722999.38925  22910611.514
   4793673.163 8   3735329.65629  21387584.291
  -2060166.505 5  -1605323.88721  24686454.927
 92  5  6  2 46  0.0010000  0  6G 3G12G20G16G24G25
  -3190926.522 5  -2486426.55624  23856772.703
  10273879.396 6   8005613.36223  23704416.981
  -3985448.265 8  -3105541.36629  21132649.470
  -4822330.466 6  -3757648.79625  22902141.178
   4874012.328 8   3797931.62129  21402872.200
  -2084150.990 5  -1624013.04522  24681884.890
 92  5  6  2 46 30.0010000  0  6G 3G12G20G16G24G25
  -3233859.289 5  -2519880.53622  23848597.660
  10409550.205 5   8111330.73824  23730227.912
  -4005798.318 8  -3121398.53029  21128775.557
  -4866385.824 6  -3791977.54824  22893761.671
   4954794.037 8   3860878.38829  21418242.561
  -2107574.295 5  -1642264.94423  24677435.974
 92  5  6  2 47  0.0010000  0  6G 3G12G20G16G24G25
  -3276607.126 5  -2553190.38321  23840459.786
  10545482.255 5   8217251.67023  23756097.005
  -4025619.156 8  -3136843.31629  21125003.256
  -4910024.826 6  -3825981.87225  22885460.725
   5036021.857 8   3924172.78129  21433701.360
  -2130409.039 5  -1660058.20624  24673082.075
 92  5  6  2 47 30.0010000  0  6G 3G12G20G16G24G25
  -3319166.300 5  -2586353.25222  23832365.694
  10681675.568 5   8323376.25023  23782013.457
  -4044904.996 8  -3151871.21329  21121336.808
  -4953231.658 6  -3859649.44626  22877238.322
   5117695.304 8   3987814.41129  21449245.891
  -2152636.418 4  -1677378.24423  24668839.124
 92  5  6  2 48  0.0010000  0  6G 3G12G20G16G24G25
  -3361544.090 4  -2619374.76422  23824284.184
  10818120.371 6   8429696.75024  23807979.085
  -4063660.743 8  -3166486.06029  21117762.969
  -4995994.967 6  -3892971.38426  22869101.652
   5199804.419 8   4051795.53329  21464865.075
  -2174281.271 5  -1694244.32823  24664738.864
 92  5  6  2 48 30.0010000  0  6G 3G12G20G16G24G25
  -3403741.084 5  -2652255.39622  23816274.342
  10954812.639 5   8536210.07823  23833991.164
  -4081884.304 8  -3180686.19529  21114298.577
  -5038301.777 6  -3925937.61725  22861049.528
   5282343.382 8   4116111.60329  21480573.901
  -2195341.099 5  -1710654.55123  24660735.732
 92  5  6  2 49  0.0010000  0  6G 3G12G20G16G24G25
  -3445754.524 5  -2684993.01622  23808268.374
  11091752.106 5   8642915.99823  23860055.735
  -4099571.336 8  -3194468.27829  21110932.203
  -5080138.892 6  -3958537.88425  22853084.934
   5365309.800 8   4180760.71529  21496358.286
  -2215809.155 5  -1726603.63623  24656836.620
 92  5  6  2 49 30.0010000  0  6G 3G12G20G16G24G25
  -3487601.708 5  -2717601.10824  23800310.691
  11228918.778 5   8749798.97623  23886154.158
  -4116736.710 8  -3207843.86729  21107664.475
  -5121531.220 6  -3990791.55825  22845212.391
   5448685.894 8   4245729.07529  21512225.402
  -2235723.354 5  -1742121.17323  24653043.362
 92  5  6  2 50  0.0010000  0  6G 3G12G20G16G24G25
  -3529271.348 5  -2750070.80922  23792378.782
  11366320.527 5   8856865.15123  23912297.568
  -4133367.363 8  -3220802.78529  21104502.548
  -5162486.815 6  -4022704.91825  22837415.389
   5532484.679 8   4311026.82229  21528174.657
  -2255069.024 5  -1757195.71824  24649368.800
 92  5  6  2 50 30.0010000  0  6G 3G12G20G16G24G25
  -3570765.163 5  -2782403.47523  23784482.244
  11503952.537 5   8964110.76122  23938489.525
  -4149462.648 8  -3233344.49729  21101438.674
  -5203017.646 6  -4054287.26926  22829706.529
   5616696.544 8   4376646.46129  21544197.063
  -2273847.738 5  -1771828.43222  24645787.771
 92  5  6  2 51  0.0010000  0  6G 3G12G20G16G24G25
  -3612078.153 6  -2814595.30823  23776621.392
  11641816.771 5   9071537.35323  23964726.172
  -4165015.493 8  -3245463.57929  21098483.322
  -5243129.271 6  -4085543.01027  22822069.615
   5701316.182 8   4442583.82329  21560298.623
  -2292062.215 5  -1786021.47822  24642327.270
 92  5  6  2 51 30.0010000  0  6G 3G12G20G16G24G25
  -3653225.262 5  -2846657.85324  23768789.612
  11779895.479 6   9179130.99624  23991004.175
  -4180038.625 8  -3257169.86729  21095619.410
  -5282832.136 6  -4116480.20525  22814511.542
   5786331.364 8   4508829.38229  21576479.617
  -2309730.147 5  -1799788.69921  24638969.290
 92  5  6  2 52  0.0010000  0  6G 3G12G20G16G24G25
  -3694201.951 4  -2878587.62222  23760989.609
  11918189.871 6   9286892.68122  24017313.066
  -4194525.429 8  -3268458.27324  21092864.317
  -5322103.646 6  -4147081.29924  22807047.002
   5871736.642 8   4575378.95523  21592731.057
  -2326834.821 5  -1813117.02821  24635704.860
 92  5  6  2 52 30.0010000  0  6G 3G12G20G16G24G25
  -3735012.380 5  -2910387.82924  23753224.978
  12056692.831 6   9394816.94622  24043669.020
  -4208477.779 8  -3279330.17329  21090209.651
  -5360924.797 6  -4177331.44526  22799654.130
   5957525.043 8   4642227.06729  21609054.462
  -2343370.413 5  -1826001.88022  24632559.441
 92  5  6  2 53  0.0010000  0  6G 3G12G20G16G24G25
  -3775645.981 5  -2942050.29825  23745505.037
  12195412.072 5   9502909.73322  24070063.050
  -4221883.261 8  -3289775.97229  21087654.223
  -5399273.030 7  -4207213.10025  22792360.480
   6043718.627 8   4709390.88429  21625457.911
  -2359312.301 5  -1838424.12724  24629522.545
 92  5  6  2 53 30.0010000  0  6G 3G12G20G16G24G25
  -3816108.129 6  -2973579.15824  23737797.363
  12334338.886 5   9611164.33422  24096514.927
  -4234744.898 8  -3299797.99729  21085210.006
  -5437150.198 6  -4236727.67125  22785141.482
   6130320.922 8   4776873.16329  21641938.106
  -2374653.395 5  -1850378.16922  24626616.944
 92  5  6  2 54  0.0010000  0  6G 3G12G20G16G24G25
  -3856398.198 5  -3004973.88524  23730128.969
  12473471.148 5   9719578.99924  24122984.500
  -4247059.751 8  -3309393.95829  21082867.437
  -5474558.250 6  -4265876.73125  22778026.208
   6217317.559 8   4844662.75029  21658492.936
  -2389377.085 6  -1861851.18022  24623810.582
 92  5  6  2 54 30.0010000  0  6G 3G12G20G16G24G25
  -3896521.843 5  -3036238.93122  23722495.354
  12612799.604 5   9828146.47522  24149496.947
  -4258832.340 8  -3318567.36229  21080626.480
  -5511512.652 6  -4294672.29426  22771001.466
   6304710.384 8   4912761.05029  21675124.529
  -2403488.644 5  -1872847.19322  24621117.264
 92  5  6  2 55  0.0010000  0  6G 3G12G20G16G24G25
  -3936484.739 5  -3067378.74722  23714898.018
  12752315.940 5   9936860.37322  24176050.472
  -4270065.632 8  -3327320.55629  21078490.172
  -5548024.925 7  -4323123.34827  22764052.283
   6392499.104 8   4981167.82929  21691825.661
  -2417001.015 5  -1883376.32522  24618548.033
 92  5  6  2 55 30.0010000  0  6G 3G12G20G16G24G25
  -3976287.375 5  -3098393.74522  23707318.969
  12892016.451 5  10045717.80323  24202639.369
  -4280758.558 8  -3335652.68429  21076457.867
  -5584095.265 6  -4351229.98925  22757186.722
   6480671.604 8   5049873.65929  21708611.340
  -2429913.108 6  -1893437.69723  24616100.832
 92  5  6  2 56  0.0010000  0  6G 3G12G20G16G24G25
  -4015926.871 5  -3129281.59123  23699771.698
  13031901.257 5  10154718.80922  24229244.442
  -4290905.743 8  -3343559.56029  21074524.802
  -5619707.101 6  -4378979.39126  22750405.428
   6569226.638 8   5118877.57429  21725461.183
  -2442228.118 5  -1903033.73722  24613754.947
 92  5  6  2 56 30.0010000  0  6G 3G12G20G16G24G25
  -4055400.504 5  -3160040.15323  23692252.888
  13171969.484 5  10263862.68622  24255893.891
  -4300502.628 8  -3351037.65329  21072693.681
  -5654847.298 6  -4406361.28426  22743719.743
   6658180.632 8   5188192.35529  21742384.753
  -2453954.064 5  -1912170.81323  24611506.800
 92  5  6  2 57  0.0010000  0  6G 3G12G20G16G24G25
  -4094716.359 5  -3190675.78222  23684774.579
  13312210.359 4  10373141.15724  24282595.813
  -4309555.577 8  -3358091.87129  21070977.958
  -5689511.562 7  -4433372.31526  22737130.907
   6747511.942 8   5257801.18729  21759387.494
  -2465104.877 4  -1920859.77022  24609384.871
 92  5  6  2 57 30.0010000  0  5G 3G20G16G24G25
  -4133883.572 5  -3221195.60423  23677324.732
  -4318071.784 8  -3364727.88129  21069353.395
  -5723705.484 6  -4460016.85226  22730618.224
   6837196.167 8   5327684.96929  21776452.568
  -2475692.680 4  -1929109.92523  24607384.064
 92  5  6  2 58  0.0010000  0  5G 3G20G16G24G25
  -4172899.843 5  -3251597.84624  23669894.081
  -4326047.028 8  -3370942.36429  21067834.336
  -5757432.448 7  -4486297.54325  22724205.060
   6927237.317 8   5397846.93429  21793587.810
  -2485726.286 5  -1936928.28723  24605482.183
 92  5  6  2 58 30.0010000  0  5G 3G20G16G24G25
  -4211755.529 5  -3281874.96125  23662499.987
  -4333469.205 8  -3376725.85729  21066421.113
  -5790697.550 6  -4512218.32125  22717870.439
   7017644.474 8   5468294.02529  21810791.404
  -2495189.530 4  -1944302.19922  24603668.128
 92  5  6  2 59  0.0010000  0  5G 3G20G16G24G25
  -4250460.195 5  -3312034.41525  23655147.582
  -4340345.874 8  -3382084.30829  21065116.430
  -5823521.067 7  -4537795.01926  22711621.865
   7108398.819 8   5539011.68729  21828057.347
  -2504080.855 5  -1951230.48922  24601964.707
 92  5  6  2 59 30.0010000  0  5G 3G20G16G24G25
  -4289013.476 5  -3342075.86825  23647805.368
  -4346675.229 8  -3387016.26829  21063910.061
  -5855908.320 7  -4563031.73425  22705465.638
   7199505.503 8   5610003.91129  21845396.145
  -2512393.602 5  -1957707.85722  24600397.695
 92  5  6  3  0  0.0010000  0  6G 3G12G20G16G24G25
  -4327406.648 5  -3371992.60124  23640502.417
    136485.00715    106342.03824  24443342.734
  -4352446.750 8  -3391513.54529  21062810.122
  -5887846.138 7  -4587918.26927  22699388.547
   7290973.812 8   5681277.91529  21862803.296
  -2520104.977 5  -1963716.71823  24598935.908
 92  5  6  3  0 30.0010000  0  6G 3G12G20G16G24G25
  -4365641.583 5  -3401786.00124  23633236.356
    277824.637 5    216476.68623  24470244.007
  -4357660.293 8  -3395576.05329  21061820.206
  -5919330.349 6  -4612451.35526  22693394.484
   7382785.229 8   5752819.28029  21880276.408
  -2527210.110 4  -1969253.06523  24597579.049
 92  5  6  3  1  0.0010000  0  6G 3G12G20G16G24G25
  -4403728.067 6  -3431463.69424  23625976.577
    419302.990 5    326719.37824  24497165.365
  -4362323.758 8  -3399209.90929  21060931.920
  -5950351.928 7  -4636623.96424  22687491.582
   7474921.989 8   5824614.13929  21897809.462
  -2533731.019 4  -1974334.24122  24596337.902
 92  5  6  3  1 30.0010000  0  6G 3G12G20G16G24G25
  -4441664.002 6  -3461024.14125  23618759.079
    560918.870 4    437069.27124  24524117.000
  -4366433.322 8  -3402412.16429  21060151.860
  -5980895.545 7  -4660424.10425  22681678.304
   7567382.080 8   5896660.94629  21915400.678
  -2539669.823 5  -1978961.82321  24595210.688
 92  5  6  3  2  0.0010000  0  6G 3G12G20G16G24G25
  -4479447.388 5  -3490465.67424  23611558.352
    702671.793 5    547525.90923  24551090.831
  -4369985.000 8  -3405179.71729  21059475.821
  -6010952.838 6  -4683845.28525  22675949.572
   7660165.831 8   5968959.95428  21933059.356
  -2545029.036 4  -1983137.77524  24594177.303
 92  5  6  3  2 30.0010000  0  6G 3G12G20G16G24G25
  -4517078.026 6  -3519788.18525  23604398.423
    844558.729 5    658087.00223  24578094.345
  -4372976.858 8  -3407511.03629  21058905.618
  -6040520.832 6  -4706885.18826  22670327.862
   7753281.085 8   6041517.29429  21950780.994
  -2549815.607 4  -1986867.49422  24593272.527
 92  5  6  3  3  0.0010000  0  6G 3G12G20G16G24G25
  -4554556.429 6  -3548992.08823  23597275.645
    986575.468 5    768749.17922  24605119.131
  -4375408.302 8  -3409405.65429  21058441.843
  -6069586.143 7  -4729533.42425  22664798.481
   7846744.489 7   6114345.92329  21968560.480
  -2554022.133 4  -1990145.21522  24592481.386
 92  5  6  3  3 30.0010000  0  6G 3G12G20G16G24G25
  -4591885.292 6  -3578079.41323  23590168.765
   1128717.138 5    879508.77823  24632160.704
  -4377279.285 8  -3410863.56929  21058085.999
  -6098156.418 7  -4751795.90426  22659362.354
   7940565.655 8   6187453.28929  21986418.213
  -2557634.665 4  -1992960.13823  24591788.264
 92  5  6  3  4  0.0010000  0  6G 3G12G20G16G24G25
  -4629057.706 6  -3607044.82023  23583094.865
   1270987.060 5    990368.29022  24659238.870
  -4378581.701 8  -3411878.41929  21057839.253
  -6126220.318 7  -4773663.81124  22654021.244
   8034751.270 8   6260844.66229  22004339.813
  -2560642.185 5  -1995303.61423  24591215.652
 92  5  6  3  4 30.0010000  0  6G 3G12G20G16G24G25
  -4666077.899 5  -3635891.65722  23576046.443
   1413378.356 5   1101322.36122  24686340.401
  -4379317.511 8  -3412451.76629  21057698.656
  -6153774.671 7  -4795134.61325  22648779.670
   8129297.116 8   6334516.72229  22022332.157
  -2563039.395 5  -1997171.56224  24590758.474
 92  5  6  3  5  0.0010000  0  6G 3G12G20G16G24G25
  -4702950.155 5  -3664623.19523  23569028.908
   1555883.445 5   1212365.12422  24713453.032
  -4379489.595 8  -3412585.89029  21057665.082
  -6180822.986 7  -4816211.17826  22643634.037
   8224192.000 8   6408460.78329  22040393.446
  -2564829.205 4  -1998566.15423  24590427.792
 92  5  6  3  5 30.0010000  0  6G 3G12G20G16G24G25
  -4739680.235 6  -3693243.95124  23562044.930
   1698493.412 4   1323489.58622  24740592.640
  -4379102.193 8  -3412283.96829  21057737.029
  -6207379.952 7  -4836904.84625  22638577.138
   8319412.754 7   6482658.75429  22058507.208
  -2566030.569 4  -1999502.21822  24590179.581
 92  5  6  3  6  0.0010000  0  6G 3G12G20G16G24G25
  -4776265.859 6  -3721752.13925  23555082.554
   1841207.909 4   1434695.49023  24767763.135
  -4378150.869 8  -3411542.64829  21057921.705
  -6233444.250 6  -4857214.64126  22633614.977
   8414939.979 8   6557095.51729  22076688.119
  -2566653.740 4  -1999987.77922  24590067.445
 92  5  6  3  6 30.0020000  0  6G 3G12G20G16G24G25
  -4812697.326 5  -3750140.15324  23548148.958
   1984039.060 3   1545992.30422  24794917.736
  -4376623.669 8  -3410352.60329  21058213.406
  -6259013.374 6  -4877138.55526  22628757.433
   8510794.692 8   6631787.48229  22094926.305
  -2566701.966 4  -2000025.39221  24590066.855
 92  5  6  3  7  0.0020000  0  5G 3G20G16G24G25
  -4848970.761 5  -3778405.07523  23541254.935
  -4374517.180 8  -3408711.17629  21058609.421
  -6284095.655 7  -4896683.12226  22623980.540
   8606965.336 8   6706725.64729  22113228.337
  -2566179.905 4  -1999618.58221  24590152.292
 92  5  6  3  7 30.0020000  0  6G 3G12G20G16G24G25
  -4885106.062 5  -3806562.38925  23534362.099
    102504.12415     79861.74422  24849342.958
  -4371848.065 8  -3406631.29929  21059121.777
  -6308710.704 7  -4915863.62426  22619295.087
   8703429.834 7   6781892.76428  22131583.419
  -2565110.182 5  -1998784.99621  24590363.038
 92  5  6  3  8  0.0020000  0  6G 3G12G20G16G24G25
  -4921100.845 5  -3834610.17924  23527531.630
    245617.775 5    191378.67722  24876574.302
  -4368613.101 8  -3404110.52829  21059733.651
  -6332843.345 7  -4934668.19626  22614704.668
   8800198.910 8   6857297.20929  22150000.867
  -2563483.828 5  -1997517.76322  24590676.932
 92  5  6  3  8 30.0020000  0  6G 3G12G20G16G24G25
  -4956953.620 6  -3862547.33725  23520697.567
    388818.433 5    302963.40023  24903829.640
  -4364808.675 8  -3401146.02029  21060457.940
  -6356488.059 7  -4953092.55326  22610206.577
   8897276.641 8   6932942.18629  22168475.290
  -2561283.548 5  -1995803.21123  24591088.251
 92  5  6  3  9  0.0020000  0  6G 3G12G20G16G24G25
  -4992668.988 6  -3890377.36024  23513907.565
    532098.150 5    414609.69324  24931096.653
  -4360437.791 8  -3397740.12529  21061290.473
  -6379638.551 7  -4971131.86225  22605802.631
   8994632.989 7   7008804.25329  22186999.168
  -2558498.337 6  -1993632.88722  24591628.179
 92  5  6  3  9 30.0020000  0  6G 3G12G20G16G24G25
  -5028252.047 6  -3918104.30224  23507129.551
    675448.282 4    526310.88523  24958359.494
  -4355504.732 8  -3393896.12929  21062226.118
  -6402279.660 7  -4988774.18725  22601485.918
   9092266.688 7   7084882.43529  22205573.703
  -2555128.685 5  -1991007.21421  24592266.734
 92  5  6  3 10  0.0020000  0  6G 3G12G20G16G24G25
  -5063699.322 6  -3945725.46125  23500392.319
    818869.785 4    638068.14623  24985653.484
  -4350003.978 8  -3389609.80129  21063275.103
  -6424411.316 7  -5006019.56426  22597281.934
   9190184.144 8   7161181.74829  22224215.090
  -2551154.555 5  -1987910.48323  24593012.906
 92  5  6  3 10 30.0020000  0  6G 3G12G20G16G24G25
  -5099012.091 6  -3973241.80325  23493665.574
    962358.463 5    749877.28922  25012973.580
  -4343935.154 8  -3384880.82329  21064428.702
  -6446040.692 7  -5022873.56226  22593159.774
   9288382.849 8   7237700.20129  22242899.370
  -2546571.573 5  -1984339.28722  24593899.098
 92  5  6  3 11  0.0020000  0  6G 3G12G20G16G24G25
  -5134191.600 6  -4000654.31326  23486973.607
   1105909.864 5    861735.31223  25040284.078
  -4337297.852 8  -3379708.86729  21065692.622
  -6467163.467 6  -5039332.79327  22589140.169
   9386874.273 7   7314446.76729  22261639.682
  -2541395.840 5  -1980306.23923  24594880.620
 92  5  6  3 11 30.0020000  0  6G 3G12G20G16G24G25
  -5169237.363 6  -4027962.63024  23480294.833
   1249521.270 5    973640.12723  25067623.945
  -4330090.374 9  -3374092.64229  21067069.269
  -6487784.260 7  -5055400.88026  22585217.970
   9485675.283 7   7391434.58829  22280442.972
  -2535627.981 4  -1975811.84524  24595960.178
 92  5  6  3 12  0.0020000  0  6G 3G12G20G16G24G25
  -5204160.175 6  -4055175.12225  23473640.943
   1393179.205 5   1085581.16023  25094961.718
  -4322321.787 8  -3368039.18329  21068547.844
  -6507916.390 7  -5071088.18526  22581393.528
   9584769.047 8   7468650.47229  22299301.423
  -2529280.265 5  -1970865.57723  24597184.223
 92  5  6  3 12 30.0020000  0  6G 3G12G20G16G24G25
  -5238954.483 6  -4082287.45723  23467030.207
   1536885.433 5   1197559.85922  25122304.290
  -4313985.511 8  -3361543.35929  21070130.456
  -6527544.414 7  -5086382.69925  22577651.818
   9684155.643 7   7546094.56429  22318210.531
  -2522359.006 5  -1965472.37622  24598499.411
 92  5  6  3 13  0.0020000  0  6G 3G12G20G16G24G25
  -5273623.520 6  -4109302.22225  23460430.884
   1680634.619 5   1309572.41221  25149670.838
  -4305083.097 8  -3354606.37629  21071828.781
  -6546664.586 7  -5101281.48526  22574014.739
   9783820.842 7   7623755.78529  22337176.003
  -2514861.015 5  -1959629.78423  24599925.234
 92  5  6  3 13 30.0020000  0  6G 3G12G20G16G24G25
  -5308164.848 6  -4136217.42825  23453868.730
   1824425.929 4   1421617.40722  25177015.521
  -4295610.921 8  -3347225.45929  21073624.827
  -6565266.013 7  -5115776.00526  22570471.489
   9883757.174 8   7701628.21929  22356195.135
  -2506774.252 5  -1953328.39923  24601476.349
 92  5  6  3 14  0.0020000  0  6G 3G12G20G16G24G25
  -5342577.418 6  -4163032.33124  23447314.969
   1968256.882 5   1533693.23122  25204400.357
  -4285566.964 8  -3339398.98529  21075543.810
  -6583346.328 7  -5129864.52226  22567031.667
   9983962.315 7   7779710.15929  22375263.425
  -2498100.499 5  -1946569.64322  24603110.823
 92  5  6  3 14 30.0020000  0  6G 3G12G20G16G24G25
  -5376855.981 6  -4189742.82924  23440791.484
   2112130.308 4   1645802.22322  25231776.800
  -4274944.418 8  -3331121.66729  21077560.201
  -6600902.746 7  -5143544.77326  22563693.476
  10084448.978 7   7858011.46129  22394386.595
  -2488829.801 5  -1939345.69824  24604877.797
 92  5  6  3 15  0.0020000  0  6G 3G12G20G16G24G25
  -5410999.984 6  -4216348.47925  23434289.585
   2256043.580 4   1757942.18423  25259156.558
  -4263741.385 8  -3322392.02929  21079694.135
  -6617935.651 7  -5156817.11927  22560448.224
  10185222.946 7   7936536.61128  22413564.907
  -2478968.164 5  -1931661.32522  24606755.092
 92  5  6  3 15 30.0020000  0  6G 3G12G20G16G24G25
  -5445008.686 6  -4242848.71824  23427819.760
   2399994.206 3   1870111.72222  25286549.491
  -4251955.888 8  -3313208.51829  21081931.777
  -6634448.144 7  -5169683.91626  22557309.104
  10286289.234 7   8015289.55928  22432796.007
  -2468528.692 5  -1923526.70621  24608756.806
 92  5  6  3 16  0.0020000  0  5G 3G20G16G24G25
  -5478894.243 6  -4269253.00224  23421373.929
  -4239598.413 8  -3303579.29929  21084283.961
  -6650456.664 7  -5182158.06926  22554266.798
  10387630.350 7   8094256.69027  22452076.247
  -2457523.356 4  -1914951.13323  24610825.983
 92  5  6  3 16 30.0020000  0  6G 3G12G20G16G24G25
  -5512651.095 6  -4295556.98325  23414946.368
     52802.20615     41130.77022  25341355.442
  -4226662.432 8  -3293499.32129  21086748.246
  -6665941.063 7  -5194223.74427  22551318.043
  10489238.015 7   8173431.45828  22471411.664
  -2445947.936 5  -1905931.28622  24613044.447
 92  5  6  3 17  0.0020000  0  6G 3G12G20G16G24G25
  -5546297.136 6  -4321774.62325  23408550.305
    196804.163 4    153339.88621  25368750.173
  -4213164.657 8  -3282981.54729  21089315.976
  -6680907.083 7  -5205885.52327  22548463.118
  10591070.870 7   8252781.73428  22490795.645
  -2433822.539 5  -1896482.93823  24615351.052
 92  5  6  3 17 30.0020000  0  6G 3G12G20G16G24G25
  -5579817.113 6  -4347894.05824  23402168.620
    340822.167 5    265561.95022  25396159.596
  -4199088.579 8  -3272013.16529  21091992.822
  -6695330.590 7  -5217124.56626  22545719.420
  10693136.671 7   8332313.52228  22510211.996
  -2421124.657 5  -1886588.47622  24617765.883
 92  5  6  3 18  0.0020000  0  6G 3G12G20G16G24G25
  -5613200.356 6  -4373906.92124  23395813.914
    484863.925 5    377802.50223  25423571.131
  -4184422.730 8  -3260585.22529  21094782.082
  -6709194.895 7  -5227927.85826  22543084.838
  10795434.428 7   8412026.02827  22529682.932
  -2407839.053 5  -1876236.06024  24620300.317
 92  5  6  3 18 30.0020000  0  6G 3G12G20G16G24G25
  -5646455.708 6  -4399820.13225  23389487.390
    628917.500 5    490051.92722  25450977.850
  -4169174.190 8  -3248703.24329  21097686.479
  -6722510.182 7  -5238303.31326  22540549.496
  10897948.366 7   8491907.01527  22549192.816
  -2393974.619 4  -1865432.57522  24622916.314
 92  5  6  3 19  0.0020000  0  6G 3G12G20G16G24G25
  -5679587.720 6  -4425637.20923  23383180.655
    772975.780 5    602305.34721  25478396.277
  -4153346.464 8  -3236369.93629  21100701.493
  -6735303.358 7  -5248271.96826  22538114.580
  11000689.375 7   8571964.94928  22568738.683
  -2379542.092 5  -1854186.49023  24625680.691
 92  5  6  3 19 30.0020000  0  6G 3G12G20G16G24G25
  -5712602.720 6  -4451363.14924  23376903.009
    917028.779 5    714554.67322  25505807.795
  -4136945.330 8  -3223589.82929  21103818.136
  -6747586.470 7  -5257843.16926  22535780.107
  11103664.410 7   8652205.24228  22588337.022
  -2364549.683 5  -1842504.16022  24628526.333
 92  5  6  3 20  0.0020000  0  6G 3G12G20G16G24G25
  -5745496.701 6  -4476994.82523  23370646.041
   1061077.928 4    826800.57222  25533219.016
  -4119965.471 8  -3210358.74129  21107052.883
  -6759362.833 7  -5267019.46427  22533539.150
  11206871.175 7   8732626.07527  22607974.625
  -2348987.087 5  -1830377.42423  24631490.671
 92  5  6  3 20 30.0020000  0  6G 3G12G20G16G24G25
  -5778262.789 6  -4502526.81224  23364407.361
   1205127.132 4    939046.53422  25560635.332
  -4102398.683 8  -3196670.33329  21110389.888
  -6770621.678 7  -5275792.53127  22531395.932
  11310336.842 7   8813248.68127  22627664.386
  -2332849.317 5  -1817802.60422  24634566.551
 92  5  6  3 21  0.0020000  0  6G 3G12G20G16G24G25
  -5810920.216 6  -4527974.08325  23358198.364
   1349154.160 4   1051275.16024  25588025.874
  -4084263.188 8  -3182538.76229  21113843.793
  -6781371.282 7  -5284168.79527  22529347.451
  11414054.550 7   8894067.67627  22647401.839
  -2316153.136 5  -1804792.59622  24637729.647
 92  5  6  3 21 30.0020000  0  5G 3G20G16G24G25
  -5843471.456 5  -4553338.61724  23351997.150
  -4065560.645 8  -3167965.33829  21117404.719
  -6791590.955 7  -5292132.09127  22527409.604
  11518004.895 7   8975067.93527  22667179.741
  -2298873.744 5  -1791328.13824  24641031.263
 92  5  6  3 22  0.0020000  0  5G 3G20G16G24G25
  -5875906.878 5  -4578612.85324  23345828.027
  -4046280.623 8  -3152941.94729  21121071.481
  -6801271.396 7  -5299675.24827  22525562.586
  11622204.007 7   9056262.04627  22687013.711
  -2280989.273 5  -1777392.23923  24644430.618
 92  5  6  3 22 30.0020000  0  5G 3G20G16G24G25
  -5908226.175 6  -4603796.69824  23339677.175
  -4026421.791 8  -3137467.50529  21124855.770
  -6810401.079 7  -5306789.23327  22523824.684
  11726652.393 7   9137650.43627  22706883.349
  -2262510.053 5  -1762992.88024  24647937.885
 92  5  6  3 23  0.0020000  0  5G 3G20G16G24G25
  -5940428.453 6  -4628889.32824  23333550.927
  -4005982.312 8  -3121540.63829  21128739.578
  -6818982.293 7  -5313475.82427  22522190.209
  11831335.285 7   9219221.51527  22726813.557
  -2243421.647 5  -1748118.88124  24651577.076
 92  5  6  3 23 30.0020000  0  5G 3G20G16G24G25
  -5972518.021 6  -4653894.11322  23327442.356
  -3984965.489 8  -3105163.88929  21132736.707
  -6827022.872 7  -5319741.15827  22520661.274
  11936242.167 7   9300967.13226  22746769.538
  -2223730.950 5  -1732775.49424  24655331.368
 92  5  6  3 24  0.0020000  0  5G 3G20G16G24G25
  -6004495.786 5  -4678811.78622  23321357.465
  -3963371.450 8  -3088337.35029  21136847.769
  -6834528.242 7  -5325589.40827  22519235.765
  12041381.181 7   9382893.64526  22766778.586
  -2203480.031 5  -1716995.59325  24659176.209
 92  5  6  3 24 30.0020000  0  5G 3G20G16G24G25
  -6036350.535 5  -4703633.56423  23315297.458
  -3941187.641 8  -3071051.24429  21141071.839
  -6841492.281 7  -5331015.88826  22517911.276
  12146748.108 7   9464997.77326  22786823.302
  -2182671.685 5  -1700781.28623  24663137.670
 92  5  6  3 25  0.0020000  0  5G 3G20G16G24G25
  -6068084.242 6  -4728361.02825  23309251.237
  -3918415.734 8  -3053306.90429  21145408.043
  -6847927.570 7  -5336030.37127  22516681.525
  12252338.285 7   9547275.82625  22806921.102
  -2161294.493 5  -1684123.72624  24667207.340
 92  5  6  3 25 30.0020000  0  5G 3G20G16G24G25
  -6099699.532 6  -4752996.23623  23303237.996
  -3895057.792 8  -3035105.90029  21149848.268
  -6853840.135 7  -5340637.49628  22515560.296
  12358145.349 7   9629722.89526  22827054.256
  -2139372.985 5  -1667042.07424  24671378.361
 92  5  6  3 26  0.0020000  0  5G 3G20G16G24G25
  -6131195.523 6  -4777538.51124  23297246.045
  -3871111.799 8  -3016446.66329  21154406.911
  -6859229.592 7  -5344837.01427  22514538.010
  12464164.007 7   9712334.84926  22847230.285
  -2116910.660 5  -1649538.96023  24675653.699
 92  5  6  3 26 30.0020000  0  5G 3G20G16G24G25
  -6162568.571 6  -4801984.95123  23291272.696
  -3846573.255 8  -2997325.70929  21159075.280
  -6864092.459 7  -5348626.21027  22513611.054
  12570385.119 7   9795104.54426  22867442.296
  -2093872.760 5  -1631587.39022  24680030.668
 92  5  6  3 27  0.0020000  0  6G 3G17G20G16G24G25
  -6193824.249 5  -4826339.95123  23285330.199
   -211799.500 4   -165038.54424  24762627.085
  -3821447.279 8  -2977747.02129  21163856.064
  -6868415.629 7  -5351994.88327  22512787.823
  12676807.684 7   9878031.22826  22887697.776
  -2070269.293 5  -1613195.08422  24684527.554
 92  5  6  3 27 30.0020000  0  6G 3G17G20G16G24G25
  -6224957.274 6  -4850599.38925  23279407.508
   -282827.029 4   -220384.88223  24749109.449
  -3795727.685 8  -2957705.75829  21168748.983
  -6872176.053 7  -5354925.04327  22512067.722
  12783438.978 6   9961120.57526  22907982.328
  -2046107.977 5  -1594368.07123  24689126.070
 92  5  6  3 28  0.0020000  0  6G 3G17G20G16G24G25
  -6255972.203 6  -4874766.79521  23273499.492
   -353656.795 4   -275577.12322  24735613.694
  -3769418.321 8  -2937204.96525  21173757.614
  -6875368.430 7  -5357412.53623  22511460.332
  12890268.296 6  10044364.17322  22928313.961
  -2021388.166 5  -1575105.96421  24693822.325
 92  5  6  3 28 30.0020000  0  6G 3G17G20G16G24G25
  -6286863.239 6  -4898837.64924  23267623.864
   -424288.667 4   -330615.18124  24722196.187
  -3742513.088 8  -2916239.79829  21178878.363
  -6877974.620 7  -5359443.26027  22510967.486
  12997303.444 7  10127768.21326  22948681.558
  -1996098.104 5  -1555399.31322  24698645.391
 92  5  6  3 29  0.0020000  0  6G 3G17G20G16G24G25
  -6317636.570 6  -4922816.77025  23261776.715
   -494731.217 4   -385505.70022  24708790.668
  -3715017.590 8  -2894814.73229  21184110.340
  -6879991.758 7  -5361015.00527  22510586.146
  13104546.131 6  10211333.89226  22969087.232
  -1970257.862 6  -1535264.05723  24703564.677
 92  5  6  3 29 30.0020000  0  5G 3G20G16G24G25
  -6348281.499 5  -4946695.85324  23255933.457
  -3686920.366 8  -2872920.77429  21189458.047
  -6881416.861 7  -5362125.42027  22510310.939
  13212001.178 6  10295065.13025  22989536.968
  -1943846.206 5  -1514683.58922  24708582.609
 92  5  6  3 30  0.0020000  0  5G 3G20G16G24G25
  -6378800.186 6  -4970476.59624  23250130.370
  -3658223.128 8  -2850559.27529  21194916.667
  -6882260.349 7  -5362782.62426  22510155.335
  13319662.635 6  10378957.12326  23010028.689
  -1916851.465 5  -1493648.74822  24713724.037
 92  5  6  3 30 30.0020000  0  5G 3G20G16G24G25
  -6409190.652 5  -4994157.39524  23244342.883
  -3628923.100 8  -2827728.07829  21200494.611
  -6882523.992 7  -5362988.01427  22510093.893
  13427531.910 7  10463011.09426  23030556.985
  -1889256.385 5  -1472146.13023  24718975.209
 92  5  6  3 31  0.0020000  0  5G 3G20G16G24G25
  -6439458.699 6  -5017742.83823  23238587.156
  -3599025.667 8  -2804431.36329  21206182.265
  -6882229.625 7  -5362758.59327  22510152.055
  13535599.959 6  10547219.98625  23051108.647
  -1861072.854 5  -1450184.89422  24724342.389
 92  5  6  3 31 30.0020000  0  5G 3G20G16G24G25
  -6469598.080 6  -5041227.99822  23232845.842
  -3568524.324 8  -2780664.05129  21211985.649
  -6881382.413 7  -5362098.36526  22510316.331
  13643861.536 6  10631579.66526  23071716.988
  -1832297.977 5  -1427762.95922  24729812.701
 92  5  6  3 32  0.0020000  0  6G 3G17G20G16G24G25
  -6499611.192 6  -5064614.74324  23227139.586
    -11552.48614     -9003.00522  24629069.854
  -3537420.712 8  -2756427.44229  21217902.355
  -6879981.252 7  -5361006.49228  22510587.350
  13752307.941 7  10716083.33625  23092357.402
  -1802949.664 4  -1404894.12722  24735405.636
 92  5  6  3 32 30.0030000  0  6G 3G17G20G16G24G25
  -6529497.322 6  -5087902.58822  23221440.226
    -80737.779 5    -62913.46022  24615911.067
  -3505711.922 8  -2731719.27929  21223939.279
  -6878030.355 7  -5359486.27027  22510952.185
  13860949.965 6  10800739.45926  23113025.984
  -1773042.655 5  -1381589.94823  24741095.998
 92  5  6  3 33  0.0030000  0  6G 3G17G20G16G24G25
  -6559254.360 6  -5111089.76323  23215788.537
   -149696.714 5   -116647.47022  24602794.838
  -3473399.391 8  -2706540.65729  21230086.519
  -6875522.004 7  -5357531.68028  22511430.967
  13969780.574 7  10885542.53925  23133744.349
  -1742585.191 5  -1357856.82922  24746902.976
 92  5  6  3 33 30.0030000  0  6G 3G17G20G16G24G25
  -6588884.396 6  -5134178.05622  23210153.949
   -218428.001 4   -170204.18421  24589694.209
  -3440483.075 8  -2680891.55029  21236350.083
  -6872441.442 7  -5355131.17727  22512020.959
  14078797.430 6  10970490.72025  23154483.985
  -1711568.410 5  -1333687.91321  24752790.907
 92  5  6  3 34  0.0030000  0  6G 3G17G20G16G24G25
  -6618363.221 6  -5157148.48624  23204528.941
   -286905.391 4   -223563.01323  24576675.125
  -3406938.045 8  -2654752.53729  21242739.253
  -6868759.118 7  -5352261.80327  22512721.864
  14188030.522 7  11055607.42425  23175265.606
  -1679952.876 4  -1309052.45722  24758797.237
 92  5  6  3 34 30.0030000  0  6G 3G17G20G16G24G25
  -6647691.519 6  -5180001.61924  23198956.999
   -355120.251 5   -276717.24823  24563697.102
  -3372764.932 8  -2628124.13429  21249234.556
  -6864472.581 7  -5348921.59727  22513531.607
  14297479.868 6  11140892.64526  23196096.681
  -1647722.999 5  -1283938.24122  24764938.789
 92  5  6  3 35  0.0030000  0  6G 3G17G20G16G24G25
  -6676892.383 6  -5202755.46325  23193393.154
   -423109.419 5   -329695.71522  24550749.965
  -3337986.576 8  -2601024.08329  21255860.578
  -6859592.245 7  -5345118.70428  22514462.454
  14407101.055 7  11226311.74725  23216955.939
  -1614904.282 4  -1258365.18423  24771183.768
 92  5  6  3 35 30.0030000  0  6G 3G17G20G16G24G25
  -6705978.051 6  -5225419.54425  23187861.679
   -490913.057 5   -382529.58123  24537845.110
  -3302615.317 8  -2573462.04629  21262588.510
  -6854131.895 7  -5340863.86827  22515499.450
  14516881.922 7  11311855.25525  23237848.770
  -1581524.611 4  -1232355.08523  24777526.468
 92  5  6  3 36  0.0030000  0  6G 3G17G20G16G24G25
  -6734952.275 6  -5247996.81225  23182349.993
   -558537.302 5   -435223.64323  24524980.408
  -3266654.160 8  -2545440.34729  21269429.780
  -6848101.808 7  -5336165.03927  22516647.046
  14626828.845 6  11397528.16526  23258764.095
  -1547601.548 5  -1205921.52922  24783994.200
 92  5  6  3 36 30.0030000  0  6G 3G17G20G16G24G25
  -6763834.914 6  -5270502.72424  23176851.499
   -626009.271 5   -487799.00522  24512151.392
  -3230123.433 8  -2516974.85329  21276381.668
  -6841519.497 7  -5331035.93127  22517903.479
  14736920.826 6  11483314.13725  23279721.091
  -1513169.967 4  -1179091.79122  24790540.160
 92  5  6  3 37  0.0030000  0  6G 3G17G20G16G24G25
  -6792610.467 6  -5292925.14826  23171384.189
   -693339.400 5   -540263.92322  24499335.568
  -3193007.091 8  -2488052.98329  21283444.486
  -6834369.469 7  -5325464.39827  22519259.745
  14847179.521 7  11569230.00427  23300704.455
  -1478215.906 5  -1151854.83722  24797195.551
 92  5  6  3 37 30.0030000  0  6G 3G17G20G16G24G25
  -6821255.855 7  -5315246.18826  23165926.459
   -760490.629 5   -592589.46523  24486557.803
  -3155281.863 8  -2458656.70629  21290625.111
  -6826635.785 7  -5319438.13127  22520737.412
  14957648.352 7  11655309.56226  23321728.303
  -1442707.243 5  -1124185.83423  24803945.382
 92  5  6  3 38  0.0030000  0  6G 3G17G20G16G24G25
  -6849781.895 7  -5337474.21227  23160497.818
   -827448.370 5   -644764.13522  24473813.037
  -3116958.474 8  -2428794.31529  21297911.868
  -6818335.563 7  -5312970.39226  22522313.429
  15068314.549 6  11741542.92225  23342779.425
  -1406644.419 4  -1096084.92322  24810822.025
 92  5  6  3 38 30.0030000  0  6G 3G17G20G16G24G25
  -6878186.395 7  -5359607.51626  23155096.453
   -894211.700 5   -696787.42722  24461117.428
  -3078034.833 8  -2398464.21229  21305322.435
  -6809461.695 7  -5306055.66427  22524005.157
  15179164.534 5  11827919.56124  23363855.135
  -1370011.379 4  -1067539.73422  24817794.591
 92  5  6  3 39  0.0030000  0  6G 3G17G20G16G24G25
  -6906476.182 7  -5381651.42026  23149715.783
   -960770.234 5   -748651.03123  24448446.999
  -3038517.904 8  -2367671.74529  21312839.430
  -6800025.725 7  -5298702.88227  22525802.111
  15290185.108 6  11914429.11126  23385008.795
  -1332814.118 4  -1038554.80222  24824862.801
 92  5  6  3 39 30.0030000  0  6G 3G17G20G16G24G25
  -6934655.590 7  -5403609.34126  23144352.790
  -1027092.132 4   -800330.29623  24435803.548
  -2998411.528 8  -2336420.02829  21320474.250
  -6790035.359 7  -5290918.13027  22527695.599
  15401367.270 6  12001064.51426  23406167.254
  -1295063.382 5  -1009138.68922  24832047.632
 92  5  6  3 40  0.0030000  0  6G 3G17G20G16G24G25
  -6962732.160 7  -5425487.12428  23139006.601
  -1093192.087 5   -851836.62623  24423234.139
  -2957723.303 8  -2304714.90129  21328216.684
  -6779485.762 7  -5282697.64126  22529705.114
  15512682.893 6  12087803.93725  23427342.482
  -1256762.973 4   -979294.24921  24839335.890
 92  5  6  3 40 30.0030000  0  6G 3G17G20G16G24G25
  -6990693.630 7  -5447275.22427  23133686.187
  -1159065.611 5   -903166.47424  24410703.120
  -2916441.206 8  -2272547.02429  21336072.738
  -6768346.275 7  -5274017.46927  22531827.636
  15624139.445 5  12174653.23524  23448542.019
  -1217902.787 4   -949013.57624  24846732.060
 92  5  6  3 41  0.0030000  0  6G 3G17G20G16G24G25
  -7018531.690 7  -5468967.16329  23128383.450
  -1224688.618 5   -954301.12524  24398220.369
  -2874556.973 8  -2239909.95529  21344041.519
  -6756603.713 7  -5264867.38426  22534064.388
  15735747.190 6  12261620.28524  23469798.496
  -1178480.715 4   -918295.11523  24854228.970
 92  5  6  3 41 30.0030000  0  6G 3G17G20G16G24G25
  -7046254.620 7  -5490569.39527  23123112.804
  -1290077.249 5  -1005253.17525  24385775.973
  -2832079.359 8  -2206810.49629  21352128.124
  -6744255.314 7  -5255245.19627  22536408.772
  15847494.936 7  12348696.39725  23491062.476
  -1138498.113 4   -887139.83824  24861844.908
 92  5  6  3 42  0.0030000  0  6G 3G17G20G16G24G25
  -7073863.360 7  -5512082.64828  23117858.648
  -1355260.444 4  -1056045.17424  24373371.468
  -2789009.378 8  -2173249.45729  21360325.958
  -6731297.877 7  -5245148.44327  22538879.653
  15959381.292 6  12435880.55825  23512349.246
  -1097957.772 4   -855549.94622  24869554.973
 92  5  6  3 42 30.0030000  0  6G 3G17G20G16G24G25
  -7101360.515 7  -5533508.94027  23112628.468
  -1420238.486 5  -1106677.23724  24361008.024
  -2745349.542 8  -2139228.80429  21368634.111
  -6717748.593 7  -5234590.55127  22541452.478
  16071415.726 5  12523180.15925  23533654.897
  -1056867.724 4   -823531.70122  24877378.342
 92  5  6  3 43  0.0030000  0  6G 3G17G20G16G24G25
  -7128735.308 7  -5554839.91728  23107420.468
  -1485003.322 4  -1157143.19223  24348672.168
  -2701089.322 8  -2104740.29729  21377054.975
  -6703617.837 7  -5223579.47327  22544141.016
  16183608.275 6  12610602.95525  23555020.194
  -1015218.277 5   -791077.68922  24885301.857
 92  5  6  3 43 30.0030000  0  6G 3G17G20G16G24G25
  -7155987.160 7  -5576075.06527  23102231.053
  -1549579.143 5  -1207461.83522  24336395.364
  -2656228.736 8  -2069784.00629  21385593.663
  -6688919.496 7  -5212126.22127  22546938.077
  16295966.062 7  12698154.42825  23576400.201
   -973022.357 4   -758197.65222  24893328.207
 92  5  6  3 44  0.0030000  0  6G 3G17G20G16G24G25
  -7183130.540 7  -5597225.70627  23097071.634
  -1613977.928 5  -1257642.56622  24324139.849
  -2610782.291 8  -2034371.16929  21394238.484
  -6673679.609 7  -5200250.94028  22549842.177
  16408472.173 6  12785821.51825  23597811.373
   -930302.572 4   -724909.58822  24901454.390
 92  5  6  3 44 30.0030000  0  6G 3G17G20G16G24G25
  -7210169.738 6  -5618295.16726  23091920.888
  -1678184.365 5  -1307673.43924  24311921.504
  -2564754.455 8  -1998505.31329  21402996.905
  -6657898.116 7  -5187953.62527  22552844.888
  16521113.577 5  12873594.03126  23619236.035
   -887065.013 5   -691217.98322  24909691.486
 92  5  6  3 45  0.0030000  0  6G 3G17G20G16G24G25
  -7237085.116 6  -5639268.18027  23086799.546
  -1742181.018 5  -1357540.82923  24299741.234
  -2518125.774 8  -1962171.28829  21411868.369
  -6641551.146 7  -5175215.70427  22555956.436
  16633897.885 5  12961477.97825  23640701.478
   -843295.646 4   -657112.03722  24918017.910
 92  5  6  3 45 30.0030000  0  6G 3G17G20G16G24G25
  -7263886.030 6  -5660151.96426  23081695.567
  -1805971.031 5  -1407247.20223  24287609.843
  -2470906.457 8  -1925376.99529  21420848.949
  -6624631.883 7  -5162031.81727  22559173.209
  16746809.060 6  13049460.74726  23662188.211
   -799008.723 5   -622602.75822  24926454.078
 92  5  6  3 46  0.0030000  0  6G 3G17G20G16G24G25
  -7290577.211 6  -5680950.25526  23076619.194
  -1869538.319 5  -1456779.95322  24275500.317
  -2423101.365 8  -1888126.29429  21429951.855
  -6607128.747 7  -5148392.96928  22562505.102
  16859821.833 6  13137522.61325  23683701.014
   -754205.257 4   -587690.96622  24934961.879
 92  5  6  3 46 30.0030000  0  6G 3G17G20G16G24G25
  -7317162.741 7  -5701666.22226  23071563.185
  -1932891.521 5  -1506145.90824  24263444.467
  -2374715.276 8  -1850422.82829  21439163.284
  -6589043.332 7  -5134300.38427  22565947.925
  16972927.748 6  13225657.08426  23705216.818
   -708892.410 4   -552382.30522  24943598.306
 92  5  6  3 47  0.0030000  0  6G 3G17G20G16G24G25
  -7343627.504 6  -5722288.09126  23066520.072
  -1996019.555 6  -1555336.40023  24251437.182
  -2325733.484 8  -1812255.19429  21448483.219
  -6570361.955 7  -5119743.42827  22569500.161
  17086141.005 5  13313875.25525  23726757.210
   -663062.660 4   -516670.87821  24952320.762
 92  5  6  3 47 30.0030000  0  6G 3G17G20G16G24G25
  -7369987.891 7  -5742828.61226  23061510.848
  -2058928.141 6  -1604355.88924  24239460.172
  -2276172.634 8  -1773636.34729  21457915.899
  -6551087.278 7  -5104724.17027  22573167.220
  17199454.380 6  13402171.40524  23748315.575
   -616734.572 4   -480571.08222  24961142.161
 92  5  6  3 48  0.0030000  0  6G 3G17G20G16G24G25
  -7396249.989 6  -5763292.56726  23056509.406
  -2121627.483 5  -1653212.36124  24227535.618
  -2226039.442 8  -1734571.52129  21467454.083
  -6531231.343 7  -5089251.97828  22576947.897
  17312868.817 7  13490546.25425  23769913.238
   -569910.175 5   -444084.56622  24970044.495
 92  5  6  3 48 30.0030000  0  6G 3G17G20G16G24G25
  -7422404.824 7  -5783672.92625  23051537.053
  -2184112.425 5  -1701901.76524  24215647.361
  -2175325.326 8  -1695054.01929  21477102.605
  -6510787.030 7  -5073321.31727  22580836.521
  17426405.711 6  13579016.58324  23791518.667
   -522576.924 4   -407201.56222  24979039.471
 92  5  6  3 49  0.0030000  0  6G 3G17G20G16G24G25
  -7448461.555 7  -5803976.88126  23046576.690
  -2246387.988 5  -1750428.03422  24203788.472
  -2124040.235 8  -1655091.60729  21486862.948
  -6489757.719 7  -5056934.80427  22584840.246
  17540064.389 6  13667581.74324  23813134.304
   -474741.616 5   -369927.35922  24988152.865
 92  5  6  3 49 30.0030000  0  6G 3G17G20G16G24G25
  -7474409.532 7  -5824196.04825  23041640.302
  -2308451.138 6  -1798788.72523  24191983.540
  -2072174.323 8  -1614676.60729  21496733.926
  -6468139.280 7  -5040089.25027  22588955.793
  17653856.945 5  13756251.24824  23834783.515
   -426380.804 5   -332243.71722  24997364.591
 92  5  6  3 50  0.0030000  0  6G 3G17G20G16G24G25
  -7500246.922 7  -5844329.06926  23036720.702
  -2370310.388 6  -1846990.62224  24180214.886
  -2019726.475 8  -1573808.15329  21506712.205
  -6445939.765 7  -5022790.87827  22593175.674
  17767774.840 6  13845018.48123  23856472.600
   -377490.295 5   -294147.20522  25006665.644
 92  5  6  3 50 30.0030000  0  6G 3G17G20G16G24G25
  -7525972.286 7  -5864374.76826  23031825.096
  -2431954.128 6  -1895024.56025  24168481.010
  -1966695.429 8  -1532485.24829  21516804.433
  -6423154.412 7  -5005036.03228  22597515.159
  17881821.613 6  13933886.07424  23878175.785
   -328073.557 4   -255640.7292   25016065.640
 92  5  6  3 51  0.0030000  0  6G 3G17G20G16G24G25
  -7551590.980 7  -5884337.35026  23026954.373
  -2493388.639 5  -1942895.46425  24156787.602
  -1913087.253 8  -1490712.61529  21527002.759
  -6399789.943 7  -4986829.90928  22601964.389
  17995986.891 6  14022846.00424  23899902.650
   -278140.140 4   -216731.70522  25025552.573
 92  5  6  3 51 30.0030000  0  6G 3G17G20G16G24G25
  -7577102.138 7  -5904216.14427  23022098.641
  -2554609.031 5  -1990599.52125  24145132.567
  -1858902.036 8  -1448490.35029  21537318.019
  -6375844.970 7  -4968171.46027  22606513.434
  18110265.934 6  14111894.57124  23921642.096
   -227692.482 5   -177421.84821  25035164.519
 92  5  6  3 52  0.0030000  0  6G 3G17G20G16G24G25
  -7602500.368 7  -5924006.94027  23017258.177
  -2615592.031 5  -2038118.62525  24133532.098
  -1804135.196 8  -1405814.88429  21547739.115
  -6351311.084 7  -4949054.11427  22611186.899
  18224658.760 6  14201031.83725  23943413.616
   -176737.112 5   -137716.42823  25044858.011
 92  5  6  3 52 30.0030000  0  6G 3G17G20G16G24G25
  -7627770.801 7  -5943698.13127  23012451.305
  -2676314.992 5  -2085435.07625  24121971.800
  -1748773.094 8  -1362675.58429  21558273.811
  -6326176.758 7  -4929468.88027  22615970.684
  18339174.324 6  14290264.78025  23965208.240
   -125266.416 5    -97609.50622  25054651.020
 92  5  6  3 53  0.0030000  0  6G 3G17G20G16G24G25
  -7652917.113 7  -5963292.60627  23007669.021
  -2736793.104 5  -2132560.76525  24110476.871
  -1692820.045 8  -1319075.82129  21568920.643
  -6300450.981 7  -4909422.79428  22620863.603
  18453795.328 6  14379579.81625  23987022.339
    -73276.789 5    -57098.14221  25064545.974
 92  5  6  3 53 30.0030000  0  6G 3G17G20G16G24G25
  -7677948.781 7  -5982797.75827  23002910.416
  -2797039.146 6  -2179505.64023  24099009.809
  -1636286.388 8  -1275023.58729  21579678.999
  -6274150.141 7  -4888928.62628  22625869.530
  18568511.826 5  14468969.32125  24008842.719
    -20776.917 5    -16189.18322  25074540.761
 92  5  6  3 54  0.0030000  0  6G 3G17G20G16G24G25
  -7702869.369 7  -6002216.31928  22998163.503
  -2857056.639 5  -2226272.41025  24087568.818
  -1579176.359 8  -1230522.24429  21590545.581
  -6247288.062 7  -4867997.09527  22630979.198
  18683308.194 5  14558421.03426  24030681.701
     32230.152 5     25114.94322  25084621.281
 92  5  6  3 54 30.0030000  0  6G 3G17G20G16G24G25
  -7727678.678 7  -6021548.17028  22993439.974
  -2916856.075 5  -2272869.28123  24076211.187
  -1521490.814 8  -1185572.47829  21601521.872
  -6219860.531 7  -4846624.95627  22636199.779
  18798186.281 6  14647936.45825  24052550.663
     85751.564 5     66819.85822  25094813.028
 92  5  6  3 55  0.0030000  0  6G 3G17G20G16G24G25
  -7752383.819 7  -6040798.87427  22988736.826
  -2976438.676 5  -2319297.16023  24064870.343
  -1463237.707 8  -1140180.42729  21612608.799
  -6191867.636 7  -4824812.28527  22641520.804
  18913145.686 6  14737515.22925  24074430.724
    139775.403 5    108916.34722  25105092.306
 92  5  6  3 55 30.0030000  0  6G 3G17G20G16G24G25
  -7776982.809 7  -6059966.85227  22984061.564
  -3035783.959 6  -2365540.17921  24053571.763
  -1404416.049 8  -1094345.38029  21623803.358
  -6163312.003 7  -4802561.11127  22646961.433
  19028186.400 6  14827157.34725  24096326.960
    194283.530 5    151390.21223  25115462.726
 92  5  6  3 56  0.0030000  0  6G 3G17G20G16G24G25
  -7801474.527 7  -6079051.26227  22979400.087
  -3094884.811 6  -2411592.73423  24042323.248
  -1345025.562 8  -1048067.04429  21635106.125
  -6134183.002 7  -4779863.13727  22652502.506
  19143311.028 6  14916864.82025  24118224.697
    249269.672 5    194236.45423  25125921.584
 92  5  6  3 56 30.0030000  0  6G 3G17G20G16G24G25
  -7825863.112 7  -6098055.29227  22974759.010
  -3153754.704 6  -2457465.27523  24031121.796
  -1285071.661 8  -1001349.71529  21646515.636
  -6104475.553 7  -4756714.46628  22658154.492
  19258517.553 6  15006636.14924  24140151.228
    304710.417 5    237436.99522  25136463.784
 92  5  6  3 57  0.0030000  0  6G 3G17G20G16G24G25
  -7850144.371 7  -6116975.72226  22970138.611
  -3212397.158 6  -2503160.62024  24019972.224
  -1224551.342 8   -954191.02229  21658028.557
  -6074192.036 7  -4733116.90629  22663914.704
  19373810.320 6  15096474.66925  24162097.232
    360599.762 5    280987.14822  25147117.211
 92  5  6  3 57 30.0030000  0  6G 3G17G20G16G24G25
  -7874315.502 7  -6135810.32326  22965536.796
  -3270827.898 5  -2548690.95524  24008848.129
  -1163462.760 8   -906589.52229  21669654.503
  -6043335.485 8  -4709072.79828  22669793.036
  19489183.435 6  15186375.80324  24184045.331
    416957.996 5    324902.59723  25157835.100
 92  5  6  3 58  0.0040000  0  6G 3G17G20G16G24G25
  -7898370.286 7  -6154554.29227  22960962.260
  -3329052.548 6  -2594060.67125  23997767.785
  -1101798.359 8   -858539.32429  21681390.493
  -6011888.740 7  -4684568.80928  22675773.596
  19604642.101 6  15276343.63424  24206009.626
    473807.774 5    369201.12022  25168647.415
 92  5  6  3 58 30.0040000  0  6G 3G17G20G16G24G25
  -7922308.277 7  -6173207.20827  22956407.805
  -3387061.388 6  -2639262.21725  23986725.828
  -1039564.664 8   -810045.52429  21693231.390
  -5979860.020 7  -4659611.36528  22681868.974
  19720173.384 6  15366367.97123  24227999.099
    531153.646 5    413886.12521  25179571.548
 92  5  6  3 59  0.0040000  0  6G 3G17G20G16G24G25
  -7946134.836 7  -6191773.30527  22951871.045
  -3444847.122 6  -2684289.95725  23975731.248
   -976765.243 8   -761110.92729  21705179.624
  -5947256.898 7  -4634206.30928  22688076.174
  19835784.595 6  15456454.63625  24249999.968
    589017.328 5    458974.65421  25190579.617
 92  5  6  3 59 30.0040000  0  6G 3G17G20G16G24G25
  -7969848.094 7  -6210251.12828  22947362.764
  -3502396.692 6  -2729133.67525  23964778.026
   -913399.094 9   -711734.67629  21717238.772
  -5914072.788 7  -4608348.55228  22694391.303
  19951465.405 6  15546595.50425  24272015.232
    647400.767 5    504468.19923  25201690.240
 92  5  6  4  0  0.0040000  0  6G 3G17G20G16G24G25
  -7993456.679 7  -6228647.37628  22942865.878
  -3559705.044 6  -2773789.44624  23953874.275
   -849476.476 8   -661924.80329  21729402.551
  -5880310.940 7  -4582040.59329  22700814.955
  20067220.578 6  15636794.34623  24294049.971
    706266.296 5    550337.44022  25212894.379
 92  5  6  4  0 30.0040000  0  6G 3G17G20G16G24G25
  -8016963.684 7  -6246964.47028  22938393.876
  -3616784.015 6  -2818266.41124  23943012.491
   -785001.533 8   -611684.60029  21741675.149
  -5845965.521 8  -4555277.88828  22707349.835
  20183054.872 6  15727054.81026  24316084.727
    765599.862 5    596571.42522  25224182.454
 92  5  6  4  1  0.0040000  0  6G 3G17G20G16G24G25
  -8040346.920 7  -6265185.13728  22933941.069
  -3673631.757 6  -2862563.21523  23932192.693
   -719953.576 8   -560997.85329  21754055.084
  -5811013.718 7  -4528042.69727  22713994.424
  20298982.191 6  15817387.76925  24338148.556
    825407.491 5    643174.71323  25235552.684
 92  5  6  4  1 30.0040000  0  6G 3G17G20G16G24G25
  -8063613.303 8  -6283314.72929  22929516.723
  -3730258.829 6  -2906688.09824  23921422.942
   -654340.884 8   -509871.08229  21766539.633
  -5775464.127 7  -4500341.68328  22720768.546
  20414995.196 6  15907787.49324  24360216.869
    885662.234 5    690126.43721  25247030.844
 92  5  6  4  2  0.0040000  0  6G 3G17G20G16G24G25
  -8086764.604 7  -6301354.66128  22925108.886
  -3786660.240 6  -2950637.14124  23910681.374
   -588166.877 8   -458306.92629  21779128.517
  -5739315.718 7  -4472174.09027  22727646.375
  20531098.426 6  15998257.51025  24382317.866
    946357.198 5    737421.27123  25258572.261
 92  5  6  4  2 30.0040000  0  6G 3G17G20G16G24G25
  -8109791.034 7  -6319297.26727  22920731.900
  -3842823.613 6  -2994400.71423  23900002.469
   -521422.753 8   -406298.51329  21791832.537
  -5702569.224 7  -4443540.42827  22734633.337
  20647280.474 6  16088788.98126  24404429.369
   1007517.064 4    785078.24221  25270205.693
 92  5  6  4  3  0.0040000  0  6G 3G17G20G16G24G25
  -8132689.854 7  -6337140.46328  22916366.326
  -3898722.185 5  -3037957.93923  23889355.340
   -454107.868 8   -353845.34629  21804641.468
  -5665240.853 8  -4414453.35428  22741742.922
  20763537.271 6  16179378.65426  24426550.155
   1069138.850 4    833095.20822  25281946.776
 92  5  6  4  3 30.0040000  0  6G 3G17G20G16G24G25
  -8155474.500 7  -6354894.67727  22912035.531
  -3954341.680 6  -3081297.69624  23878781.660
   -386236.461 8   -300958.51129  21817556.514
  -5627334.297 8  -4384915.73928  22748956.528
  20879856.854 6  16270017.24825  24448675.740
   1131216.539 4    881467.49322  25293737.312
 92  5  6  4  4  0.0040000  0  6G 3G17G20G16G24G25
  -8178150.212 7  -6372564.02126  22907720.319
  -4009690.392 5  -3124426.44024  23868237.366
   -317815.470 8   -247643.46229  21830576.208
  -5588851.464 8  -4354929.10128  22756276.266
  20996214.952 6  16360685.85726  24470824.097
   1193750.361 4    930195.16422  25305655.566
 92  5  6  4  4 30.0040000  0  6G 3G17G20G16G24G25
  -8200703.448 7  -6390137.92726  22903425.786
  -4064773.129 5  -3167347.94526  23857765.909
   -248833.319 8   -193891.11429  21843699.924
  -5549789.082 7  -4324490.83729  22763711.717
  21112621.525 6  16451392.29826  24492977.567
   1256756.712 4    979291.01322  25317648.159
 92  5  6  4  5  0.0040000  0  6G 3G17G20G16G24G25
  -8223136.796 7  -6407618.41427  22899156.747
  -4119595.388 6  -3210066.45925  23847332.529
   -179294.104 7   -139704.70629  21856935.460
  -5510144.886 7  -4293599.21727  22771254.190
  21229085.614 6  16542143.46125  24515130.723
   1320225.350 5   1028747.09423  25329727.391
 92  5  6  4  5 30.0040000  0  6G 3G17G20G16G24G25
  -8245450.773 7  -6425005.89527  22894910.778
  -4174180.823 6  -3252600.46524  23836948.323
   -109199.537 8    -85085.55029  21870275.017
  -5469923.202 7  -4262257.63227  22778912.689
  21345603.655 6  16632936.75225  24537314.766
   1384159.273 4   1078565.72922  25341875.587
 92  5  6  4  6  0.0040000  0  6G 3G17G20G16G24G25
  -8267655.019 7  -6442307.83528  22890685.504
  -4228557.017 6  -3294971.39924  23826598.285
    -38561.163 8    -30042.66429  21883716.222
  -5429151.938 7  -4230487.78728  22786668.909
  21462162.829 6  16723762.07524  24559483.226
   1448537.990 4   1128730.98722  25354149.093
 92  5  6  4  6 30.0040000  0  6G 3G17G20G16G24G25
  -8289749.772 7  -6459524.48928  22886482.410
  -4282720.653 6  -3337176.72525  23816284.822
     32619.122 8     25422.50029  21897263.542
  -5387836.100 7  -4198293.60228  22794525.870
  21578774.409 6  16814628.22425  24581689.152
   1513358.475 4   1179240.42522  25366477.149
 92  5  6  4  7  0.0040000  0  6G 3G17G20G16G24G25
  -8311730.593 7  -6476652.35229  22882299.715
  -4336652.483 6  -3379201.44725  23806031.022
    104343.637 8     81311.72029  21910907.396
  -5345971.088 8  -4165671.48528  22802499.450
  21695441.702 6  16905537.77023  24603885.776
   1578627.851 5   1230099.66022  25378901.756
 92  5  6  4  7 30.0040000  0  6G 3G17G20G16G24G25
  -8333594.262 8  -6493688.92929  22878139.496
  -4390353.188 6  -3421046.03626  23795803.903
    176614.014 8    137626.30729  21924666.072
  -5303562.571 7  -4132625.87227  22810564.766
  21812159.914 6  16996487.00024  24626100.113
   1644351.771 5   1281313.02922  25391388.713
 92  5  6  4  8  0.0040000  0  6G 3G17G20G16G24G25
  -8355340.717 7  -6510634.18228  22874002.363
  -4443804.607 6  -3462696.39925  23785640.041
    249428.920 7    194365.19229  21938520.079
  -5260595.553 7  -4099145.02628  22818741.921
  21928930.167 6  17087476.80424  24648310.523
   1710518.477 5   1332871.53923  25403988.381
 92  5  6  4  8 30.0040000  0  6G 3G17G20G16G24G25
  -8376972.232 7  -6527489.85629  22869886.799
  -4497002.557 5  -3504149.23125  23775506.159
    322784.098 8    251525.09029  21952476.921
  -5217061.048 7  -4065222.05127  22827027.878
  22045751.479 6  17178506.39124  24670542.240
   1777129.422 5   1384776.10322  25416668.407
 92  5  6  4  9  0.0040000  0  6G 3G17G20G16G24G25
  -8398479.063 7  -6544248.41028  22865792.838
  -4549939.332 6  -3545398.57225  23765436.423
    396687.282 7    309112.00129  21966537.782
  -5172952.694 7  -4030851.88128  22835421.171
  22162620.566 6  17269573.19023  24692782.037
   1844181.817 4   1437024.66622  25429419.177
 92  5  6  4  9 30.0040000  0  6G 3G17G20G16G24G25
  -8419857.543 7  -6560906.92528  22861726.152
  -4602616.300 6  -3586445.45824  23755414.973
    471140.211 8    367127.28129  21980712.577
  -5128256.169 7  -3996023.36828  22843926.878
  22279533.557 6  17360674.23625  24715027.539
   1911659.544 5   1489604.65422  25442276.078
 92  5  6  4 10  0.0040000  0  6G 3G17G20G16G24G25
  -8441104.615 7  -6577463.05822  22857680.162
  -4655025.913 6  -3627284.02822  23745437.880
    546144.346 8    425572.05522  21994980.887
  -5082956.121 7  -3960724.63422  22852541.719
  22396485.728 6  17451805.71922  24737286.234
   1979564.923 4   1542517.92021  25455184.545
 92  5  6  4 10 30.0040000  0  6G 3G17G20G16G24G25
  -8462220.486 7  -6593916.93327  22853663.541
  -4707187.685 6  -3667929.42925  23735521.934
    621696.933 8    484444.19329  22009361.629
  -5037072.791 7  -3924971.37327  22861272.865
  22513472.332 6  17542964.09825  24759546.430
   2047905.370 5   1595770.18823  25468192.234
 92  5  6  4 11  0.0040000  0  6G 3G17G20G16G24G25
  -8483210.630 8  -6610272.87327  22849670.600
  -4759104.312 6  -3708383.85624  23725632.686
    697791.074 8    543738.31929  22023838.015
  -4990616.126 7  -3888771.34827  22870114.350
  22630488.888 6  17634145.82524  24781824.006
   2116675.484 4   1649357.27822  25481275.483
 92  5  6  4 11 30.0040000  0  6G 3G17G20G16G24G25
  -8504071.905 7  -6626528.39127  22845698.057
  -4810771.118 6  -3748643.61425  23715803.397
    774427.956 8    603455.37329  22038419.016
  -4943567.760 7  -3852110.27027  22879069.453
  22747547.463 5  17725360.26425  24804092.892
   2185884.030 5   1703285.98222  25494465.753
 92  5  6  4 12  0.0040000  0  6G 3G17G20G16G24G25
  -8524820.014 7  -6642695.71728  22841750.382
  -4862200.987 6  -3788718.75925  23706019.357
    851589.902 8    663581.56629  22053107.650
  -4895951.203 7  -3815006.45728  22888132.171
  22864639.887 5  17816601.11124  24826369.264
   2255520.040 4   1757547.79721  25507693.193
 92  5  6  4 12 30.0040000  0  6G 3G17G20G16G24G25
  -8545440.054 8  -6658763.26428  22837826.404
  -4913376.900 6  -3828595.96626  23696280.600
    929289.546 7    724126.76129  22067891.020
  -4847756.337 7  -3777452.00027  22897301.929
  22981794.757 6  17907890.62524  24848672.021
   2325590.409 5   1812148.00723  25521036.659
 92  5  6  4 13  0.0040000  0  6G 3G17G20G16G24G25
  -8565936.768 7  -6674734.71929  22833925.495
  -4964280.753 6  -3868261.21526  23686592.221
   1007520.126 7    785085.68129  22082779.913
  -4798969.476 8  -3739436.23627  22906587.399
  23099006.947 5  17999224.81725  24870970.590
   2396080.201 4   1867075.06523  25534460.762
 92  5  6  4 13 30.0040000  0  6G 3G17G20G16G24G25
  -8586298.089 7  -6690600.64628  22830051.582
  -5014908.423 6  -3907711.21725  23676962.284
   1086291.574 7    846466.01229  22097768.934
  -4749582.135 7  -3700952.57728  22915979.891
  23216288.394 5  18090612.92325  24893291.931
   2466989.725 5   1922329.15822  25547941.823
 92  5  6  4 14  0.0040000  0  6G 3G17G20G16G24G25
  -8606526.596 7  -6706363.08129  22826202.552
  -5065265.587 6  -3946950.48826  23667376.111
   1165599.302 7    908264.26829  22112861.976
  -4699622.164 8  -3662022.71128  22925491.115
  23333631.649 6  18182049.23225  24915628.873
   2538309.712 5   1977903.10422  25561504.132
 92  5  6  4 14 30.0040000  0  6G 3G17G20G16G24G25
  -8626622.678 7  -6722022.33729  22822377.203
  -5115353.344 5  -3985979.82526  23657839.113
   1245440.632 8    970478.28629  22128052.164
  -4649098.590 7  -3622653.69028  22935104.266
  23451035.319 6  18273532.61524  24937960.109
   2610039.619 6   2033796.54322  25575174.371
 92  5  6  4 15  0.0040000  0  6G 3G17G20G16G24G25
  -8646591.664 7  -6737582.54229  22818578.831
  -5165184.842 6  -4024809.46125  23648359.684
   1325807.904 8   1033102.13429  22143350.578
  -4598025.583 7  -3582856.52427  22944822.937
  23568482.961 6  18365050.19124  24960313.838
   2682165.964 5   2089998.82423  25588881.482
 92  5  6  4 15 30.0040000  0  6G 3G17G20G16G24G25
  -8666429.311 8  -6753040.42828  22814803.232
  -5214760.542 6  -4063439.75225  23638921.315
   1406703.275 8   1096137.48329  22158740.728
  -4546420.238 7  -3542644.55126  22954641.425
  23685968.895 5  18456597.70325  24982668.753
   2754695.332 5   2146515.15223  25602692.632
 92  5  6  4 16  0.0040000  0  6G 3G17G20G16G24G25
  -8686129.540 8  -6768391.23028  22811054.629
  -5264064.816 6  -4101858.58725  23629544.406
   1488130.602 7   1159587.36829  22174237.603
  -4494277.561 7  -3502013.87727  22964567.859
  23803489.433 5  18548172.12925  25005035.675
   2827641.697 5   2203356.40322  25616576.618
 92  5  6  4 16 30.0040000  0  6G 3G17G20G16G24G25
  -8705682.141 8  -6783626.98528  22807336.616
  -5313084.650 6  -4140055.78625  23620213.669
   1570097.412 7   1223457.60029  22189837.295
  -4441569.063 7  -3460942.30327  22974600.111
  23921045.617 5  18639774.35023  25027396.296
   2901010.998 5   2260527.21321  25630528.661
 92  5  6  4 17  0.0040000  0  6G 3G17G20G16G24G25
  -8725095.016 8  -6798753.86628  22803643.469
  -5361834.100 6  -4178042.29225  23610938.390
   1652594.112 7   1287740.75429  22205529.630
  -4388288.792 7  -3419425.19928  22984733.697
  24038614.590 5  18731386.50323  25049777.003
   2974789.721 4   2318017.03623  25644587.725
 92  5  6  4 17 30.0040000  0  6G 3G17G20G16G24G25
  -8744378.931 8  -6813780.24829  22799967.406
  -5410330.895 6  -4215831.91026  23601709.284
   1735607.285 8   1352426.34629  22221329.895
  -4334443.430 7  -3377467.77928  22994979.104
  24156185.899 5  18823000.48723  25072148.706
   3048972.343 5   2375821.73522  25658705.248
 92  5  6  4 18  0.0040000  0  6G 3G17G20G16G24G25
  -8763533.410 8  -6828705.78329  22796325.825
  -5458593.202 6  -4253438.80626  23592520.331
   1819134.855 8   1417512.75429  22237219.191
  -4280028.115 7  -3335066.21228  23005336.942
  24273768.066 5  18914622.98823  25094524.021
   3123546.452 4   2433931.30922  25672868.648
 92  5  6  4 18 30.0040000  0  6G 3G17G20G16G24G25
  -8782547.316 7  -6843521.77029  22792703.736
  -5506617.291 6  -4290860.06926  23583388.667
   1903185.515 8   1483006.79129  22253218.824
  -4225038.043 7  -3292216.82227  23015804.787
  24391372.886 5  19006263.07124  25116897.835
   3198508.640 5   2492343.39722  25687152.855
 92  5  6  4 19  0.0040000  0  6G 3G17G20G16G24G25
  -8801420.542 7  -6858228.12929  22789112.533
  -5554404.869 6  -4328097.07426  23574295.062
   1987757.225 8   1548906.82229  22269311.677
  -4169483.637 7  -3248927.62928  23026372.482
  24509010.160 5  19097928.49222  25139287.529
   3273863.442 4   2551061.38322  25701479.344
 92  5  6  4 19 30.0040000  0  6G 3G17G20G16G24G25
  -8820156.811 8  -6872827.77723  22785551.589
  -5601940.003 6  -4365137.34223  23565251.818
   2072843.652 8   1615207.94424  22285502.861
  -4113388.358 7  -3205217.03222  23037046.291
  24626680.900 4  19189620.03422  25161671.534
   3349607.938 5   2610082.99822  25715911.040
 92  5  6  4 20  0.0040000  0  6G 3G17G20G16G24G25
  -8838766.732 7  -6887328.96829  22782006.246
  -5649206.859 6  -4401968.56026  23556257.749
   2158431.626 8   1681899.88229  22301787.893
  -4056753.316 7  -3161085.79827  23047824.715
  24744374.072 5  19281329.01923  25184079.830
   3425718.865 5   2669390.20323  25730388.631
 92  5  6  4 20 30.0040000  0  6G 3G17G20G16G24G25
  -8857227.731 8  -6901714.11028  22778493.273
  -5696166.881 6  -4438560.69026  23547309.242
   2244541.398 7   1748998.40029  22318175.742
  -3999548.787 7  -3116510.81827  23058713.476
  24862106.742 5  19373068.71623  25206474.322
   3502230.536 5   2729009.65523  25744945.341
 92  5  6  4 21  0.0040000  0  6G 3G17G20G16G24G25
  -8875544.034 8  -6915986.49728  22775008.185
  -5742820.877 6  -4474914.38625  23538438.075
   2331166.146 8   1816498.21729  22334664.034
  -3941777.978 7  -3071494.57827  23069706.869
  24979877.488 5  19464838.11224  25228888.603
   3579147.591 5   2788944.94722  25759574.923
 92  5  6  4 21 30.0040000  0  6G 3G17G20G16G24G25
  -8893713.766 8  -6930144.67428  22771557.579
  -5789169.015 6  -4511029.76524  23529612.488
   2418305.037 8   1884398.63929  22351242.857
  -3883441.447 7  -3026037.55628  23080808.785
  25097679.998 3  19556632.22623  25251269.310
   3656463.524 5   2849191.11621  25774296.223
 92  5  6  4 22  0.0040000  0  6G 3G17G20G16G24G25
  -8911736.860 8  -6944188.60728  22768121.963
  -5835237.540 6  -4546927.19026  23520854.346
   2505955.719 8   1952697.83829  22367920.606
  -3824534.276 7  -2980135.84227  23092010.237
  25215509.188 4  19648447.19924  25273722.872
   3734173.370 4   2909744.14222  25789083.782
 92  5  6  4 22 30.0040000  0  6G 3G17G20G16G24G25
  -8929621.504 7  -6958124.64028  22764719.310
  -5881053.530 6  -4582627.90224  23512138.782
   2594107.290 8   2021387.36829  22384698.188
  -3765084.842 7  -2933811.60127  23103327.401
  25333343.277 5  19740266.03423  25296151.846
   3812272.637 4   2970600.71122  25803941.508
 92  5  6  4 23  0.0040000  0  6G 3G17G20G16G24G25
  -8947374.143 8  -6971957.81229  22761340.651
  -5926627.461 6  -4618139.96426  23503460.684
   2682750.664 7   2090460.13729  22401561.816
  -3705100.919 7  -2887070.86628  23114742.304
  25451169.085 5  19832078.35223  25318576.912
   3890742.007 5   3031745.61322  25818873.258
 92  5  6  4 23 30.0040000  0  6G 3G17G20G16G24G25
  -8964986.779 8  -6985681.89929  22757988.080
  -5971953.917 6  -4653459.19027  23494835.966
   2771891.149 7   2159920.24929  22418521.683
  -3644567.651 7  -2839902.07427  23126261.524
  25568989.001 5  19923886.07322  25340994.788
   3969569.427 5   3093169.53222  25833873.081
 92  5  6  4 24  0.0040000  0  6G 3G17G20G16G24G25
  -8982455.519 8  -6999293.87529  22754664.582
  -6017018.579 6  -4688574.42926  23486258.609
   2861529.618 7   2229768.41129  22435583.476
  -3583484.428 7  -2792304.76427  23137876.686
  25686800.893 5  20015687.55224  25363416.572
   4048750.743 5   3154869.24923  25848950.541
 92  5  6  4 24 30.0050000  0  6G 3G17G20G16G24G25
  -8999791.094 8  -7012802.08029  22751369.862
  -6061813.945 6  -4723479.83726  23477733.709
   2951656.743 7   2299997.33329  22452735.194
  -3521858.062 7  -2744284.19427  23149612.955
  25804612.523 5  20107488.84823  25385838.343
   4128266.510 4   3216829.48922  25864070.582
 92  5  6  4 25  0.0050000  0  6G 3G17G20G16G24G25
  -9016985.704 8  -7026200.44829  22748093.723
  -6106324.814 7  -4758163.57525  23469269.062
   3042270.508 8   2370605.43729  22469978.662
  -3459678.717 7  -2695832.73727  23161447.256
  25922440.825 5  20199303.13622  25408255.032
   4208111.438 3   3279046.30121  25879252.673
 92  5  6  4 25 30.0050000  0  6G 3G17G20G16G24G25
  -9034035.397 8  -7039485.88229  22744851.472
  -6150542.558 6  -4792618.85224  23460856.295
   3133375.075 8   2441596.00629  22487317.460
  -3396950.606 8  -2646953.68528  23173385.893
  26040299.351 5  20291140.92722  25430674.705
   4288284.802 5   3341518.98121  25894526.185
 92  5  6  4 26  0.0050000  0  6G 3G17G20G16G24G25
  -9050940.769 7  -7052658.86828  22741628.103
  -6194465.632 7  -4826844.52124  23452491.184
   3224967.006 7   2512966.34329  22504743.491
  -3333688.170 7  -2597658.25628  23185412.077
  26158189.043 5  20383003.05024  25453121.374
   4368792.104 4   3404251.85922  25909838.995
 92  5  6  4 26 30.0050000  0  6G 3G17G20G16G24G25
  -9067711.489 7  -7065726.93129  22738438.901
  -6238115.407 6  -4860857.29525  23444184.828
   3317034.075 8   2584706.93129  22522264.854
  -3269897.582 8  -2547951.29927  23197561.163
  26276105.965 5  20474886.35922  25475552.443
   4449638.133 4   3467248.69922  25925232.740
 92  5  6  4 27  0.0050000  0  6G 3G17G20G16G24G25
  -9084343.898 8  -7078687.22929  22735277.288
  -6281499.734 6  -4894663.19425  23435928.240
   3409577.122 8   2656818.39329  22539874.968
  -3205582.087 7  -2497835.32328  23209797.500
  26394027.440 6  20566773.25624  25498000.909
   4530840.752 4   3530523.44122  25940683.145
 92  5  6  4 27 30.0050000  0  5G 3G17G20G16G24
  -9100834.528 8  -7091537.05929  22732134.574
  -6324625.574 6  -4928267.68427  23427729.517
   3502596.748 7   2729301.21729  22557572.909
  -3140741.038 7  -2447309.81427  23222137.246
  26511938.036 5  20658651.62821  25520427.771
 92  5  6  4 28  0.0050000  0  5G 3G17G20G16G24
  -9117180.700 8  -7104274.33429  22729023.026
  -6367493.243 6  -4961670.99225  23419561.681
   3596092.617 8   2802155.16929  22575368.903
  -3075368.613 7  -2396370.26527  23234576.529
  26629834.058 6  20750518.69322  25542867.844
 92  5  6  4 28 30.0050000  0  5G 3G17G20G16G24
  -9133388.620 8  -7116903.82529  22725942.957
  -6410110.464 6  -4994879.10026  23411459.789
   3690055.599 8   2875373.04429  22593247.314
  -3009466.881 7  -2345018.24527  23247118.053
  26747705.501 6  20842366.64822  25565294.410
 92  5  6  4 29  0.0050000  0  5G 3G17G20G16G24
  -9149453.569 8  -7129421.94229  22722885.679
  -6452463.664 6  -5027881.51426  23403389.674
   3784487.213 7   2948956.10529  22611212.086
  -2943039.627 7  -2293256.74527  23259759.707
  26865548.993 6  20934192.81222  25587733.575
 92  5  6  4 29 30.0050000  0  5G 3G17G20G16G24
  -9165375.170 8  -7141828.37029  22719855.379
  -6494536.882 6  -5060665.76027  23395388.208
   3879385.060 7   3022902.46529  22629276.377
  -2876092.144 7  -2241089.84228  23272502.676
  26983383.412 5  21026011.84122  25610137.666
 92  5  6  4 30  0.0050000  0  5G 3G17G20G16G24
  -9181142.165 8  -7154114.32129  22716855.041
  -6536307.160 7  -5093213.97327  23387442.810
   3974757.306 7   3097218.49129  22647426.122
  -2808619.687 7  -2188513.93527  23285335.601
  27101223.712 5  21117835.48923  25632570.845
 92  5  6  4 30 30.0050000  0  5G 3G17G20G16G24
  -9196749.038 8  -7166275.49429  22713885.311
  -6577777.614 6  -5125528.54525  23379549.274
   4070606.623 7   3171906.26529  22665663.693
  -2740626.455 7  -2135532.18028  23298277.031
  27219074.513 5  21209667.25223  25654989.018
 92  5  6  4 31  0.0050000  0  5G 3G17G20G16G24
  -9212196.789 8  -7178312.67629  22710943.448
  -6618951.289 6  -5157611.84126  23371714.493
   4166928.633 7   3246962.35229  22683997.503
  -2672122.491 7  -2082152.43627  23311313.513
  27336933.684 5  21301505.58223  25677418.900
 92  5  6  4 31 30.0050000  0  5G 3G17G20G16G24
  -9227478.669 8  -7190220.61029  22708039.052
  -6659837.725 7  -5189471.31726  23363933.092
   4263727.269 7   3322389.86428  22702413.450
  -2603094.031 7  -2028364.04027  23324442.027
  27454807.947 5  21393355.65624  25699859.252
 92  5  6  4 32  0.0050000  0  6G 3G17G20G16G24G25
  -9242592.084 8  -7201997.25529  22705160.743
  -6700457.726 6  -5221123.18327  23356201.144
   4361001.924 8   3398188.28229  22720930.121
  -2533540.227 7  -1974166.24828  23337685.364
  27572691.859 5  21485213.25123  25722285.224
     14122.18415     11002.20223  26098916.589
 92  5  6  4 32 30.0050000  0  6G 3G17G20G16G24G25
  -9257533.683 8  -7213640.02929  22702315.415
  -6740818.866 6  -5252573.36027  23348527.359
   4458752.394 7   3474357.47729  22739524.462
  -2463456.939 7  -1919555.94727  23351018.028
  27690585.062 5  21577078.08025  25744720.795
     99051.688 4     77180.89623  26115065.824
 92  5  6  4 33  0.0050000  0  6G 3G17G20G16G24G25
  -9272302.316 7  -7225148.02029  22699507.849
  -6780914.041 7  -5283816.27726  23340895.541
   4556977.238 8   3550896.30629  22758222.807
  -2392829.722 7  -1864521.72929  23364453.823
  27808482.710 5  21668946.39124  25767156.069
    184270.547 4    143585.19322  26131304.979
 92  5  6  4 33 30.0050000  0  5G 3G17G20G16G24
  -9286895.502 8  -7236519.29929  22696726.389
  -6820740.141 7  -5314849.51927  23333315.585
   4655675.574 8   3627804.05629  22777000.602
  -2321648.787 8  -1809056.08228  23378007.442
  27926382.345 5  21760816.19024  25789586.840
 92  5  6  4 34  0.0050000  0  5G 3G17G20G16G24
  -9301317.790 8  -7247757.43129  22693986.583
  -6860280.123 7  -5345659.81627  23325795.885
   4754839.405 8   3705074.59428  22795870.447
  -2249937.831 7  -1753177.39627  23391650.093
  28044275.950 5  21852681.39824  25812028.710
 92  5  6  4 34 30.0050000  0  5G 3G17G20G16G24
  -9315578.216 7  -7258869.41429  22691272.551
  -6899530.476 6  -5376244.44126  23318321.154
   4854456.712 8   3782698.47828  22814828.119
  -2177699.143 8  -1696887.50727  23405398.875
  28162139.908 5  21944523.42824  25834448.977
 92  5  6  4 35  0.0050000  0  5G 3G17G20G16G24
  -9329675.423 8  -7269854.20829  22688593.611
  -6938485.846 6  -5406599.20826  23310906.993
   4954525.020 7   3860673.78729  22833867.947
  -2104939.306 7  -1640191.51227  23419241.504
  28279976.948 4  22036344.44222  25856874.950
 92  5  6  4 35 30.0050000  0  5G 3G17G20G16G24
  -9343598.809 8  -7280703.57429  22685942.556
  -6977137.908 6  -5436717.62527  23303556.978
   5055052.217 8   3939006.66229  22852998.307
  -2031669.868 7  -1583098.41027  23433187.840
  28397799.105 4  22128153.97122  25879295.844
 92  5  6  4 36  0.0050000  0  5G 3G17G20G16G24
  -9357344.014 8  -7291414.10629  22683327.153
  -7015482.907 7  -5466596.77427  23296258.530
   5156039.039 8   4017697.67729  22872219.792
  -1957889.234 7  -1525606.99427  23447227.431
  28515598.512 4  22219945.70423  25901725.115
 92  5  6  4 36 30.0050000  0  4G 3G17G20G16
  -9370910.461 8  -7301985.32029  22680742.356
  -7053539.357 7  -5496251.06428  23289015.852
   5257482.817 8   4096744.75529  22891520.430
  -1883581.795 7  -1467705.09827  23461366.836
 92  5  6  4 37  0.0050000  0  4G 3G17G20G16
  -9384300.325 8  -7312418.93729  22678195.305
  -7091302.720 7  -5525676.99128  23281825.332
   5359378.613 7   4176144.06329  22910907.710
  -1808758.448 6  -1409401.19227  23475599.478
 92  5  6  4 37 30.0050000  0  4G 3G17G20G16
  -9397514.121 8  -7322715.36929  22675681.252
  -7128766.315 7  -5554869.33027  23274703.759
   5461721.955 7   4255892.12228  22930385.817
  -1733408.136 7  -1350686.65527  23489944.848
 92  5  6  4 38  0.0050000  0  4G 3G17G20G16
  -9410554.597 8  -7332876.74629  22673200.477
  -7165929.202 6  -5583827.34626  23267635.252
   5564506.415 7   4335983.89128  22949945.784
  -1657529.165 7  -1291560.18928  23504385.252
 92  5  6  4 38 30.0050000  0  4G 3G17G20G16
  -9423406.933 8  -7342891.52329  22670756.557
  -7202766.007 7  -5612531.26827  23260619.514
   5667744.158 7   4416428.87528  22969588.185
  -1581110.683 7  -1232013.30728  23518920.097
 92  5  6  4 39  0.0050000  0  4G 3G17G20G16
  -9436075.086 8  -7352762.74829  22668342.930
  -7239268.727 7  -5640974.85426  23253674.816
   5771427.354 7   4497220.94928  22989322.915
  -1504168.116 7  -1172058.04828  23533562.557
 92  5  6  4 39 30.0050000  0  5G 3G17G20G16G24
  -9448554.040 8  -7362486.55429  22665969.473
  -7275449.950 7  -5669167.94227  23246786.482
   5875557.734 7   4578361.48728  23009137.114
  -1426701.423 7  -1111694.37827  23548307.241
     43214.81715     33672.55822  26058655.674
 92  5  6  4 40  0.0050000  0  6G 3G23G17G20G16G24
  -9460842.425 8  -7372061.88429  22663629.591
   -226705.526 4   -176653.88324  26418514.535
  -7311321.110 6  -5697119.41927  23239957.810
   5980133.062 7   4659848.76429  23029033.434
  -1348729.915 7  -1050937.37428  23563144.568
    161101.246 5    125532.05322  26081080.443
 92  5  6  4 40 30.0050000  0  6G 3G23G17G20G16G24
  -9472937.322 8  -7381486.44129  22661324.487
   -308629.939 4   -240491.27222  26402933.131
  -7346890.902 6  -5724836.07827  23233191.802
   6085152.702 7   4741682.22228  23049021.192
  -1270253.796 7   -989787.13528  23578081.727
    278989.623 5    217393.12522  26103512.715
 92  5  6  4 41  0.0050000  0  6G 3G23G17G20G16G24
  -9484843.858 8  -7390764.21429  22659064.352
   -390528.683 5   -304308.71223  26387353.821
  -7382193.267 7  -5752344.35927  23226479.140
   6190607.986 7   4823855.14528  23069089.309
  -1191288.763 7   -928255.94327  23593100.432
    396861.329 5    309241.23523  26125944.691
 92  5  6  4 41 30.0050000  0  6G 3G23G17G20G16G24
  -9496571.576 8  -7399902.65329  22656831.806
   -472420.585 5   -368120.6672   26371767.601
  -7417249.129 7  -5779660.54327  23219801.570
   6296486.003 7   4906357.50029  23089235.952
  -1111842.951 7   -866350.09127  23608219.876
    514718.031 5    401077.60924  26148376.649
 92  5  6  4 42  0.0050000  0  6G 3G23G17G20G16G24
  -9508109.770 8  -7408893.41529  22654633.131
   -554283.906 5   -431910.44622  26356188.884
  -7452038.366 7  -5806768.93627  23213179.142
   6402793.642 7   4989194.62528  23109464.454
  -1031901.302 7   -804057.91228  23623434.041
    632570.978 5    492911.00222  26170794.542
 92  5  6  4 42 30.0050000  0  6G 3G23G17G20G16G24
  -9519456.312 8  -7417734.83129  22652474.923
   -636118.207 4   -495677.58321  26340612.575
  -7486544.922 7  -5833657.08328  23206611.299
   6509529.250 7   5072365.22528  23129773.593
   -951449.711 7   -741368.35727  23638742.035
    750415.213 5    584737.70823  26193218.404
 92  5  6  4 43  0.0050000  0  6G 3G23G17G20G16G24
  -9530619.487 8  -7426433.38729  22650349.382
   -717938.769 4   -559434.02123  26325047.941
  -7520761.898 7  -5860319.63227  23200104.898
   6616680.875 7   5155860.01529  23150168.169
   -870494.341 7   -678286.22127  23654145.673
    868237.115 5    676546.97924  26215640.485
 92  5  6  4 43 30.0050000  0  6G 3G23G17G20G16G24
  -9541586.797 8  -7434979.27129  22648263.732
   -799720.894 3   -623160.61122  26309450.046
  -7554651.339 7  -5886726.93727  23193659.660
   6724257.516 7   5239685.93528  23170638.897
   -789024.350 7   -614803.10427  23669652.146
    986041.276 5    768342.48422  26238046.687
 92  5  6  4 44  0.0050000  0  5G 3G17G20G16G24
  -9552365.526 8  -7443378.24929  22646212.546
  -7588208.810 7  -5912875.56227  23187269.879
   6832248.763 7   5323834.93728  23191187.575
   -707056.483 7   -550932.03126  23685254.543
   1103798.589 5    860101.43822  26260469.047
 92  5  6  4 44 30.0050000  0  6G 3G23G17G20G16G24
  -9562956.628 8  -7451631.02429  22644196.749
    -13611.23914    -10607.73523  26278387.646
  -7621439.536 7  -5938769.57327  23180947.264
   6940649.477 7   5408303.02327  23211814.797
   -624610.119 7   -486688.09727  23700939.375
   1221507.126 5    951822.33823  26282868.950
 92  5  6  4 45  0.0050000  0  6G 3G23G17G20G16G24
  -9573358.748 8  -7459736.53229  22642220.216
    -95238.565 4    -74213.63722  26262844.005
  -7654358.567 7  -5964420.70527  23174682.496
   7049457.219 7   5493088.26127  23232516.357
   -541701.238 7   -422083.73526  23716717.163
   1339179.743 5   1043515.28222  26305264.943
 92  5  6  4 45 30.0050000  0  6G 3G23G17G20G16G24
  -9583573.572 8  -7467696.07629  22640272.457
   -176807.367 4   -137773.9152   26247321.059
  -7686975.481 7  -5989836.39928  23168478.595
   7158667.052 7   5578186.83129  23253304.278
   -458339.706 7   -357126.71126  23732579.778
   1456819.259 5   1135182.44023  26327651.042
 92  5  6  4 46  0.0050000  0  6G 3G23G17G20G16G24
  -9593595.475 8  -7475505.30829  22638366.091
   -258319.946 4   -201290.39623  26231808.600
  -7719293.657 7  -6015019.35027  23162321.757
   7268280.895 7   5663600.19028  23274162.331
   -374520.017 7   -291812.67127  23748530.830
   1574438.616 5   1226833.91823  26350029.358
 92  5  6  4 46 30.0050000  0  6G 3G23G17G20G16G24
  -9603419.988 8  -7483160.73629  22636500.470
   -339786.155 3   -264770.80423  26216312.929
  -7751329.475 7  -6039982.27927  23156230.880
   7378299.220 7   5749328.76627  23295095.944
   -290236.416 7   -226137.09826  23764569.726
   1692053.043 5   1318481.51722  26372412.456
 92  5  6  4 47  0.0050000  0  6G 3G23G17G20G16G24
  -9613052.583 8  -7490666.62629  22634663.643
   -421210.000 3   -328218.16422  26200812.163
  -7783093.073 7  -6064733.09727  23150188.550
   7488712.893 8   5835365.37727  23316114.382
   -205484.815 7   -160096.90327  23780694.670
   1809658.124 5   1410121.83123  26394803.354
 92  5  6  4 47 30.0050000  0  5G 3G17G20G16G24
  -9622493.594 8  -7498023.21029  22632872.396
  -7814582.801 7  -6089270.49227  23144193.615
   7599517.863 7   5921706.90028  23337193.093
   -120259.650 6    -93687.65127  23796911.646
   1927242.197 5   1501745.78823  26417165.476
 92  5  6  4 48  0.0050000  0  5G 3G17G20G16G24
  -9631740.647 8  -7505228.65229  22631109.906
  -7845802.924 7  -6113597.78027  23138249.932
   7710712.652 7   6008352.20428  23358347.347
    -34561.439 7    -26909.83827  23813222.748
   2044795.456 4   1593345.71922  26439536.289
 92  5  6  4 48 30.0050000  0  6G 3G23G17G20G16G24
  -9640792.725 8  -7512282.17829  22629386.104
    -29818.26815    -23237.59823  26154374.306
  -7876746.786 7  -6137709.82428  23132359.593
   7822294.160 7   6095298.79727  23379590.352
     51602.979 6     40231.26028  23829621.102
   2162321.614 5   1684924.57222  26461899.912
 92  5  6  4 49  0.0050000  0  6G 3G23G17G20G16G24
  -9649649.604 8  -7519183.61529  22627700.361
   -111118.262 4    -86588.48924  26138894.811
  -7907390.166 7  -6161587.72229  23126529.842
   7934259.028 7   6182544.17427  23400895.096
    138234.236 7    107736.14927  23846101.279
   2279818.794 4   1776480.81823  26484255.735
 92  5  6  4 49 30.0050000  0  5G 3G23G17G20G16
  -9658312.178 8  -7525933.61829  22626052.118
   -192378.712 4   -149908.12125  26123443.516
  -7937728.294 7  -6185227.75628  23120763.627
   8046602.292 7   6270084.35527  23422272.101
    225328.601 7    175601.85128  23862678.916
 92  5  6  4 50  0.0050000  0  5G 3G23G17G20G16
  -9666769.339 8  -7532523.59629  22624439.229
   -273582.078 4   -213183.29024  26107971.228
  -7967739.275 7  -6208612.90227  23115047.494
   8159331.266 7   6357925.06627  23443725.242
    312899.989 7    243839.33128  23879341.082
 92  5  6  4 50 30.0050000  0  5G 3G23G17G20G16
  -9675022.154 8  -7538954.32029  22622871.920
   -354718.932 4   -276406.63025  26092527.122
  -7997422.247 7  -6231742.44028  23109399.399
   8272441.061 7   6446062.58428  23465246.752
    400953.102 7    312452.12227  23896098.875
 92  5  6  4 51  0.0050000  0  5G 3G23G17G20G16
  -9683052.263 8  -7545211.51629  22621339.076
   -435765.692 4   -339559.76724  26077114.793
  -8026776.777 7  -6254616.01527  23103810.060
   8385946.045 7   6534508.01428  23486849.790
    489508.619 6    381456.41128  23912943.012
 92  5  6  4 51 30.0050000  0  5G 3G23G17G20G16
  -9690857.395 8  -7551293.41529  22619858.704
   -516726.982 4   -402646.30024  26061708.746
  -8055814.780 7  -6277242.96327  23098285.199
   8499844.823 7   6623260.26228  23508523.886
    578558.307 8    450845.79627  23929902.268
 92  5  6  4 52  0.0060000  0  5G 3G23G17G20G16
  -9698444.659 8  -7557205.55029  22618417.302
   -597623.266 5   -465682.21024  26046321.008
  -8084550.200 7  -6299634.14128  23092816.984
   8614129.979 7   6712313.62627  23530273.823
    668083.472 6    520605.64827  23946925.988
 92  5  6  4 52 30.0060000  0  5G 3G23G17G20G16
  -9705805.698 8  -7562941.41829  22617019.068
   -678449.569 4   -528663.55123  26030938.659
  -8112984.601 7  -6321790.75128  23087410.819
   8728797.882 7   6801665.19827  23552088.235
    758064.985 7    590721.12328  23964060.322
 92  5  6  4 53  0.0060000  0  5G 3G23G17G20G16
  -9712942.769 8  -7568502.76329  22615655.316
   -759209.303 4   -591593.06022  26015553.604
  -8141120.708 7  -6343714.94628  23082054.719
   8843846.392 7   6891313.43626  23573984.175
    848493.793 7    661185.13826  23981255.522
 92  5  6  4 53 30.0060000  0  5G 3G23G17G20G16
  -9719852.111 8  -7573886.63429  22614341.315
   -839892.851 4   -654463.19921  26000213.519
  -8168943.560 7  -6365395.04728  23076763.395
   8959275.581 6   6981258.23626  23595945.169
    939367.135 8    731995.50126  23998561.933
 92  5  6  4 54  0.0060000  0  5G 3G23G17G20G16
  -9726534.488 8  -7579093.66029  22613069.892
   -920495.317 4   -717270.10723  25984865.355
  -8196452.183 7  -6386830.30529  23071523.321
   9075080.731 7   7071495.99326  23617987.115
   1030687.538 7    803154.26427  24015929.524
 92  5  6  4 54 30.0060000  0  5G 3G23G17G20G16
  -9732988.824 8  -7584122.99829  22611841.344
  -1001005.328 4   -780005.05623  25969538.165
  -8223643.323 7  -6408018.15828  23066349.506
   9191258.541 7   7162024.14726  23640094.098
   1122465.656 8    874669.69026  24033400.821
 92  5  6  4 55  0.0060000  0  5G 3G23G17G20G16
  -9739221.743 8  -7588979.79429  22610653.263
  -1081415.986 5   -842662.49524  25954256.835
  -8250521.241 7  -6428961.94127  23061235.039
   9307798.268 7   7252834.29226  23662267.654
   1214709.201 7    946547.74027  24050946.474
 92  5  6  4 55 30.0060000  0  5G 3G23G17G20G16
  -9745231.437 8  -7593662.65529  22609508.965
  -1161728.561 5   -905243.63423  25938967.426
  -8277078.787 7  -6449656.07629  23056181.735
   9424697.470 6   7343924.59327  23684515.250
   1307409.616 7   1018781.88027  24068592.868
 92  5  6  4 56  0.0060000  0  5G 3G23G17G20G16
  -9751014.757 8  -7598169.11529  22608408.729
  -1241944.145 4   -967749.12622  25923696.304
  -8303318.512 7  -6470102.56628  23051188.094
   9541956.026 7   7435294.88626  23706830.606
   1400560.986 7   1091367.28826  24086321.381
 92  5  6  4 56 30.0060000  0  5G 3G23G17G20G16
  -9756565.832 8  -7602494.60429  22607356.150
  -1322044.487 4  -1030164.88122  25908463.852
  -8329246.190 7  -6490305.90328  23046251.706
   9659575.171 7   7526946.14926  23729213.111
   1494159.052 7   1164300.88227  24104128.159
 92  5  6  4 57  0.0060000  0  5G 3G23G17G20G16
  -9761884.600 8  -7606639.07629  22606344.351
  -1402030.049 4  -1092491.09323  25893238.292
     -9362.33017     -7279.53228  23041377.093
   9777551.079 7   7618875.41627  23751661.559
   1588186.741 7   1237569.22326  24122028.471
 92  5  6  4 57 30.0060000  0  5G 3G23G17G20G16
  -9766972.270 8  -7610603.48829  22605371.833
  -1481908.178 4  -1154733.66621  25878035.209
    -34692.904 7    -27017.59728  23036556.418
   9895878.276 7   7711078.41227  23774181.973
   1682634.368 7   1311164.75926  24139996.820
 92  5  6  4 58  0.0060000  0  5G 3G23G17G20G16
  -9771818.927 8  -7614380.11429  22604450.269
  -1561662.697 4  -1216879.89521  25862870.499
    -59728.758 7    -46526.02928  23031795.719
  10014562.770 7   7803559.82027  23796765.643
   1777520.213 7   1385101.75727  24158047.936
 92  5  6  4 58 30.0060000  0  5G 3G23G17G20G16
  -9776424.135 8  -7617968.54129  22603574.879
  -1641292.509 4  -1278928.92822  25847706.399
    -84461.053 7    -65797.88829  23027086.882
  10133601.105 7   7896316.96527  23819415.869
   1872846.586 6   1459382.07126  24176187.769
 92  5  6  4 59  0.0060000  0  5G 3G23G17G20G16
  -9780786.157 8  -7621367.49929  22602745.942
  -1720812.265 5  -1340892.24424  25832592.975
   -108867.981 7    -84816.22328  23022440.396
  10252990.464 7   7989347.59326  23842140.729
   1968603.501 7   1533997.79026  24194416.057
 92  5  6  4 59 30.0060000  0  5G 3G23G17G20G16
  -9784904.073 8  -7624576.25129  22601965.289
  -1800228.632 4  -1402774.99123  25817461.839
   -132931.676 7   -103567.09328  23017866.763
  10372727.140 7   8082648.87827  23864916.561
   2064790.518 6   1608948.75326  24212716.292
 92  5  6  5  0  0.0060000  0  5G 3G23G17G20G16
  -9788784.311 8  -7627599.77429  22601225.103
  -1879544.461 5  -1464579.43723  25802371.798
   -156650.399 7   -122049.16427  23013350.089
  10492800.907 7   8176212.83626  23887769.436
   2161392.521 7   1684222.99226  24231100.167
 92  5  6  5  0 30.0060000  0  5G 3G23G17G20G16
  -9792426.547 8  -7630437.85729  22600532.573
  -1958762.080 5  -1526307.34623  25787292.227
   -180025.676 7   -140263.63929  23008899.376
  10613208.082 6   8270036.59226  23910679.286
   2258397.379 6   1759811.20427  24249554.191
 92  5  6  5  1  0.0060000  0  5G 3G23G17G20G16
  -9795832.676 8  -7633091.95929  22599882.326
  -2037874.194 5  -1587953.07624  25772242.950
   -203076.635 7   -158225.38828  23004514.904
  10733942.440 6   8364115.32027  23933653.283
   2355808.911 7   1835716.25927  24268102.045
 92  5  6  5  1 30.0060000  0  5G 3G23G17G20G16
  -9798999.205 8  -7635559.36429  22599277.344
  -2116863.463 5  -1649503.00425  25757216.742
   -225820.035 7   -175947.49229  23000190.094
  10855003.346 7   8458448.46827  23956695.022
   2453651.036 5   1911956.85126  24286696.665
 92  5  6  5  2  0.0060000  0  5G 3G23G17G20G16
  -9801927.644 8  -7637841.22729  22598723.928
  -2195714.701 5  -1710945.39824  25742206.745
   -248280.017 7   -193448.74329  22995915.663
  10976385.169 6   8553031.69626  23979788.936
   2551928.358 7   1988536.60026  24305417.817
 92  5  6  5  2 30.0060000  0  5G 3G23G17G20G16
  -9804608.016 8  -7639929.80929  22598210.979
  -2274422.256 5  -1772275.86524  25727231.213
   -270451.662 8   -210725.30929  22991695.485
  11098093.386 6   8647869.26526  24002943.403
   2650657.695 5   2065468.51626  24324184.811
 92  5  6  5  3  0.0060000  0  5G 3G23G17G20G16
  -9807039.485 8  -7641824.42729  22597750.799
  -2352990.115 5  -1833497.46624  25712280.861
   -292326.039 7   -227770.25529  22987532.561
  11220125.014 7   8742958.84026  24026177.321
   2749839.309 7   2142752.91125  24343081.931
 92  5  6  5  3 30.0060000  0  5G 3G23G17G20G16
  -9809223.629 8  -7643526.32429  22597333.791
  -2431428.185 5  -1894618.01424  25697347.296
   -313893.150 7   -244575.77229  22983423.907
  11342474.002 6   8838295.64726  24049456.505
   2849448.279 6   2220370.24925  24362027.615
 92  5  6  5  4  0.0060000  0  5G 3G23G17G20G16
  -9811155.528 8  -7645031.67329  22596963.550
  -2509745.238 5  -1955644.19423  25682447.619
   -335141.137 7   -261132.62328  22979380.011
  11465140.863 6   8933880.19026  24072802.541
   2949465.513 7   2298305.78926  24381072.538
 92  5  6  5  4 30.0060000  0  5G 3G23G17G20G16
  -9812825.962 8  -7646333.27029  22596646.375
  -2587945.147 5  -2016579.08824  25667564.713
   -356047.533 7   -277423.25929  22975404.154
  11588130.438 7   9029716.20926  24096198.344
   3049889.161 6   2376557.91324  24400177.717
 92  5  6  5  5  0.0060000  0  4G 3G23G20G16
  -9814227.223 8  -7647425.12329  22596380.451
  -2666011.433 5  -2077409.85723  25652711.506
  11711446.238 7   9125806.44426  24119672.395
   3150718.371 7   2455126.22124  24419370.130
 92  5  6  5  5 30.0060000  0  5G 3G23G17G20G16
  -9815349.928 8  -7648299.91729  22596169.391
  -2743928.899 5  -2138124.67723  25637880.461
    -19541.40117    -15210.93629  22967645.525
  11835093.134 7   9222154.64226  24143195.620
   3251964.771 6   2534019.40525  24438630.581
 92  5  6  5  6  0.0060000  0  5G 3G23G17G20G16
  -9816181.377 8  -7648947.79029  22596007.505
  -2821682.629 5  -2198711.89223  25623095.607
    -39410.774 7    -30693.53928  22963860.643
  11959080.339 7   9318768.05924  24166789.274
   3353646.425 6   2613251.93125  24457980.097
 92  5  6  5  6 30.0060000  0  5G 3G23G17G20G16
  -9816727.909 8  -7649373.63029  22595905.282
  -2899263.898 5  -2259164.73424  25608323.928
    -58940.277 7    -45911.30129  22960146.224
  12083396.524 7   9415637.80625  24190444.998
   3455759.316 6   2692820.37825  24477408.437
 92  5  6  5  7  0.0060000  0  5G 3G23G17G20G16
  -9816979.803 8  -7649569.88029  22595860.313
  -2976659.135 5  -2319472.63123  25593596.625
    -78120.270 7    -60856.72129  22956493.841
  12208047.354 6   9512768.31727  24214164.887
   3558306.069 5   2772726.92325  24496908.148
 92  5  6  5  7 30.0060000  0  5G 3G23G17G20G16
  -9816938.133 8  -7649537.38429  22595868.113
  -3053871.572 5  -2379638.07222  25578903.786
    -96947.022 7    -75526.88129  22952913.127
  12333026.913 7   9610154.98027  24237957.003
   3661272.838 6   2852960.78724  24516522.960
 92  5  6  5  8  0.0060000  0  5G 3G23G17G20G16
  -9816606.091 8  -7649278.64229  22595928.962
  -3130897.631 5  -2439658.30023  25564251.745
   -115432.044 7    -89930.75729  22949395.965
  12458328.124 6   9707792.24326  24261794.402
   3764655.159 6   2933518.38724  24536192.654
 92  5  6  5  8 30.0060000  0  5G 3G23G17G20G16
  -9815979.493 8  -7648790.38129  22596045.582
  -3207732.498 5  -2499529.54222  25549624.868
   -133570.450 8   -104064.52929  22945942.655
  12583950.623 7   9805679.87026  24285702.858
   3868451.110 6   3014398.35524  24555943.282
 92  5  6  5  9  0.0060000  0  5G 3G23G17G20G16
  -9815076.133 8  -7648086.42929  22596219.159
  -3284395.755 5  -2559267.08322  25535032.769
   -151378.352 7   -117940.77829  22942553.194
  12709872.018 7   9903800.41726  24309664.066
   3972638.423 6   3095583.28422  24575768.544
 92  5  6  5  9 30.0060000  0  5G 3G23G17G20G16
  -9813907.354 8  -7647175.68629  22596442.801
  -3360891.385 5  -2618873.95522  25520483.232
   -168877.071 7   -131576.10129  22939223.710
  12836077.083 7  10002142.04226  24333679.841
   4077212.426 6   3177069.47923  24595671.773
 92  5  6  5 10  0.0060000  0  5G 3G23G17G20G16
  -9812481.841 8  -7646064.87729  22596716.211
  -3437229.414 4  -2678358.12222  25505947.200
   -186073.532 7   -144975.90629  22935952.370
  12962552.944 7  10100694.65626  24357748.385
   4182169.866 6   3258854.44222  24615636.742
 92  5  6  5 10 30.0060000  0  5G 3G23G17G20G16
  -9810794.630 8  -7644750.15529  22597031.903
  -3513404.373 5  -2737715.22722  25491463.031
   -202963.288 8   -158136.72929  22932740.989
  13089299.612 6  10199458.28226  24381865.790
   4287503.177 6   3340932.42824  24635686.571
 92  5  6  5 11  0.0060000  0  5G 3G23G17G20G16
  -9808843.255 8  -7643229.56529  22597404.238
  -3589410.685 5  -2796940.82122  25476985.458
   -219552.532 7   -171063.39029  22929577.875
  13216315.370 6  10298431.57024  24406039.542
   4393213.877 6   3423304.29923  24655804.735
 92  5  6  5 11 30.0060000  0  5G 3G23G17G20G16
  -9806633.609 8  -7641507.74629  22597828.453
  -3665258.869 6  -2856043.21523  25462563.935
   -235852.170 7   -183764.35629  22926478.926
  13343589.632 6  10397606.32424  24430254.685
   4499289.786 5   3505960.93922  24675991.269
 92  5  6  5 12  0.0060000  0  5G 3G23G17G20G16
  -9804157.818 8  -7639578.54529  22598298.230
  -3740945.699 5  -2915019.90622  25448160.106
   -251849.303 7   -196229.61829  22923436.341
  13471126.012 6  10496985.33125  24454525.879
   4605729.061 6   3588900.55024  24696248.843
 92  5  6  5 12 30.0060000  0  5G 3G23G17G20G16
  -9801414.294 8  -7637440.72429  22598817.758
  -3816467.653 5  -2973868.13922  25433785.664
   -267554.450 7   -208467.35529  22920445.897
  13598921.986 6  10596566.61726  24478841.449
   4712519.493 4   3672113.89223  24716540.288
 92  5  6  5 13  0.0060000  0  5G 3G23G17G20G16
  -9798406.216 8  -7635096.72229  22599394.261
  -3891832.765 5  -3032594.18123  25419448.687
   -282964.065 7   -220474.83029  22917510.334
  13726969.874 6  10696344.16226  24503215.477
   4819649.838 6   3755592.09023  24736957.357
 92  5  6  5 13 30.0060000  0  5G 3G23G17G20G16
  -9795126.928 8  -7632541.42929  22600016.030
  -3967038.189 5  -3091195.73624  25405132.389
   -298058.852 7   -232236.94929  22914642.827
  13855271.507 6  10796319.42525  24527623.986
   4927121.739 5   3839336.40723  24757388.822
 92  5  6  5 14  0.0060000  0  5G 3G23G17G20G16
  -9791582.206 8  -7629779.28329  22600691.772
  -4042087.695 5  -3149675.78824  25390855.685
   -312844.777 7   -243758.42829  22911829.573
  13983816.454 6  10896484.35425  24552091.844
   5034928.635 5   3923341.81923  24777915.600
 92  5  6  5 14 30.0060000  0  5G 3G23G17G20G16
  -9787768.112 8  -7626807.23629  22601421.767
  -4116986.211 5  -3208038.17625  25376601.143
   -327311.416 8   -255031.09529  22909078.668
  14112604.632 6  10996838.76426  24576600.779
   5143072.552 5   4007609.72823  24798494.555
 92  5  6  5 15  0.0060000  0  5G 3G23G17G20G16
  -9783686.077 8  -7623626.41629  22602197.918
  -4191742.661 5  -3266289.89224  25362368.798
   -341450.890 8   -266048.84229  22906383.534
  14241630.487 6  11097378.36426  24601146.273
   5251555.071 5   4092141.60922  24819142.473
 92  5  6  5 15 30.0060000  0  5G 3G23G17G20G16
  -9779334.427 8  -7620235.49029  22603018.148
  -4266355.714 5  -3324429.88525  25348176.623
   -355271.657 7   -276818.24329  22903757.957
  14370890.734 6  11198100.62125  24625743.646
   5360384.266 5   4176943.54223  24839850.925
 92  5  6  5 16  0.0060000  0  5G 3G23G17G20G16
  -9774709.668 8  -7616631.76529  22603903.449
  -4340823.277 5  -3382456.52625  25334005.127
   -368779.566 8   -287343.83129  22901184.835
  14500384.730 6  11299004.98726  24650383.598
   5469552.465 5   4262009.66225  24860612.758
 92  5  6  5 16 30.0060000  0  5G 3G23G17G20G16
  -9769811.035 8  -7612814.64429  22604832.499
  -4415131.304 5  -3440358.79826  25319860.626
   -381976.602 7   -297627.20929  22898673.784
  14630108.832 6  11400088.67826  24675064.017
   5579054.706 5   4347336.03823  24881457.933
 92  5  6  5 17  0.0060000  0  5G 3G23G17G20G16
  -9764619.758 8  -7608769.47329  22605821.822
  -4489229.095 5  -3498097.24826  25305759.890
   -394863.059 8   -307668.57829  22896219.376
  14760076.818 6  11501362.45325  24699804.988
   5688914.653 5   4432941.20322  24902358.862
 92  5  6  5 17 30.0060000  0  5G 3G23G17G20G16
  -9759136.928 8  -7604497.12529  22606864.193
  -4563099.493 4  -3555658.52224  25291704.124
   -407447.333 8   -317474.47829  22893828.539
  14890283.381 6  11602822.09825  24724576.829
   5799132.737 5   4518825.33924  24923329.347
 92  5  6  5 18  0.0060000  0  5G 3G23G17G20G16
  -9753358.370 8  -7599994.33829  22607963.225
  -4636729.664 5  -3613032.64125  25277692.419
   -419727.645 8   -327043.50529  22891488.657
  15020728.343 6  11704467.51325  24749405.051
   5909707.257 5   4604987.31522  24944371.779
 92  5  6  5 18 30.0060000  0  5G 3G23G17G20G16
  -9747290.724 8  -7595266.27929  22609120.140
  -4710123.471 6  -3670222.57224  25263727.778
   -431707.664 8   -336378.57029  22889211.124
  15151400.508 6  11806289.96725  24774269.831
   6020637.389 5   4691426.34022  24965491.254
 92  5  6  5 19  0.0060000  0  5G 3G23G17G20G16
  -9740941.262 8  -7590318.62929  22610326.194
  -4783309.613 5  -3727250.67625  25249800.026
   -443397.923 7   -345487.83329  22886982.766
  15282288.176 6  11908280.32225  24799181.989
   6131910.257 5   4778132.40724  24986661.701
 92  5  6  5 19 30.0070000  0  5G 3G23G17G20G16
  -9734299.339 8  -7585143.09529  22611591.617
  -4856311.391 6  -3784135.11426  25235914.542
   -454774.354 8   -354352.55529  22884823.061
  15413401.199 6  12010446.34124  24824128.317
   6243523.708 5   4865103.95822  25007890.889
 92  5  6  5 20  0.0070000  0  5G 3G23G17G20G16
  -9727361.682 8  -7579737.12329  22612911.307
  -4929132.804 6  -3840878.99525  25222055.143
   -465828.753 7   -362966.36329  22882715.825
  15544731.191 6  12112781.39423  24849121.112
   6355462.463 5   4952328.91923  25029203.451
 92  5  6  5 20 30.0070000  0  5G 3G23G17G20G16
  -9720119.688 8  -7574093.98429  22614285.861
  -5001767.553 6  -3897477.47424  25208231.708
   -476554.195 8   -371323.79929  22880675.737
  15676285.237 6  12215291.02925  24874152.577
   6467729.759 5   5039809.88623  25050570.858
 92  5  6  5 21  0.0070000  0  5G 3G23G17G20G16
  -9712572.181 8  -7568212.78829  22615722.468
  -5074205.217 6  -3953922.40924  25194446.647
   -486963.726 8   -379435.10129  22878697.406
  15808060.454 6  12317972.97924  24899232.327
   6580316.945 5   5127540.14823  25071987.720
 92  5  6  5 21 30.0070000  0  5G 3G23G17G20G16
  -9704715.234 8  -7562090.48729  22617220.220
  -5146426.135 6  -4010198.38625  25180707.759
   -497055.715 8   -387298.97029  22876772.438
  15940056.120 6  12420826.71425  24924344.743
   6693220.029 6   5215516.52622  25093481.048
 92  5  6  5 22  0.0070000  0  5G 3G23G17G20G16
  -9696553.033 8  -7555730.30129  22618775.540
  -5218421.011 6  -4066298.20625  25167008.745
   -506840.741 8   -394923.66029  22874912.820
  16072263.484 6  12523845.46125  24949509.318
   6806429.688 5   5303731.85323  25115013.343
 92  5  6  5 22 30.0070000  0  5G 3G23G17G20G16
  -9688081.884 8  -7549129.39229  22620384.834
  -5290188.534 5  -4122220.89624  25153340.600
   -516312.930 8   -402304.55729  22873107.770
  16204681.910 6  12627028.59624  24974706.874
   6919945.109 6   5392185.43824  25136624.478
 92  5  6  5 23  0.0070000  0  5G 3G23G17G20G16
  -9679296.496 8  -7542283.62829  22622058.275
  -5361744.382 5  -4177978.71324  25139733.322
   -525464.080 8   -409435.29929  22871368.978
  16337312.240 5  12730376.89224  24999933.206
   7033761.954 5   5480873.89623  25158268.001
 92  5  6  5 23 30.0070000  0  5G 3G23G17G20G16
  -9670207.688 8  -7535201.43529  22623788.377
  -5433118.033 6  -4233594.49124  25126146.128
   -534291.757 7   -416313.98929  22869688.051
  16470139.368 6  12833878.47824  25025221.608
   7147861.414 6   5569782.51625  25179995.459
 92  5  6  5 24  0.0070000  0  5G 3G23G17G20G16
  -9660814.061 8  -7527881.69429  22625573.936
  -5504312.639 6  -4289070.77426  25112599.106
   -542786.627 8   -422933.33329  22868069.473
  16603159.730 6  12937530.72324  25050537.877
   7262246.627 5   5658913.86823  25201760.382
 92  5  6  5 24 30.0070000  0  5G 3G23G17G20G16
  -9651117.311 8  -7520325.78729  22627417.970
  -5575325.401 6  -4344405.37625  25099099.163
   -550958.704 7   -429301.20229  22866511.448
  16736367.197 5  13041328.76422  25075883.533
   7376922.922 6   5748271.95125  25223585.579
 92  5  6  5 25  0.0070000  0  5G 3G23G17G20G16
  -9641114.506 8  -7512531.34629  22629322.539
  -5646139.514 5  -4399585.12723  25085610.285
   -558813.519 8   -435421.77929  22865025.963
  16869760.160 6  13145271.35023  25101257.057
   7491905.327 5   5837868.61324  25245455.431
 92  5  6  5 25 30.0070000  0  5G 3G23G17G20G16
  -9630814.197 8  -7504505.10029  22631280.489
  -5716733.760 5  -4454593.58125  25072179.899
   -566363.020 8   -441304.49329  22863585.465
  17003325.623 6  13249348.28223  25126687.260
   7607205.827 5   5927713.17425  25267401.436
 92  5  6  5 26  0.0070000  0  5G 3G23G17G20G16
  -9620222.727 8  -7496251.98329  22633295.989
  -5787090.240 6  -4509416.78824  25058785.758
   -573625.372 8   -446963.45329  22862207.317
  17137052.426 5  13353550.96523  25152124.041
   7722830.221 6   6017810.03924  25289407.102
 92  5  6  5 26 30.0070000  0  5G 3G23G17G20G16
  -9609341.546 8  -7487773.10429  22635365.759
  -5857206.755 6  -4564052.96426  25045443.199
   -580625.400 8   -452417.99229  22860871.747
  17270935.016 5  13457875.06123  25177607.902
   7838768.468 5   6108151.54024  25311458.943
 92  5  6  5 27  0.0070000  0  5G 3G23G17G20G16
  -9598177.747 8  -7479074.02929  22637495.192
  -5927094.022 6  -4618510.52926  25032147.110
   -587375.995 7   -457678.17829  22859586.538
  17404961.365 6  13562311.14124  25203116.648
   7954995.897 6   6198718.35326  25333593.811
 92  5  6  5 27 30.0070000  0  5G 3G23G17G20G16
  -9586729.047 8  -7470152.96129  22639670.187
  -5996747.165 6  -4672785.66626  25018893.879
   -593876.567 8   -462743.53929  22858350.487
  17539129.391 6  13666857.63925  25228640.070
   8071486.827 5   6289490.44024  25355741.278
 92  5  6  5 28  0.0070000  0  5G 3G23G17G20G16
  -9574990.579 8  -7461006.05329  22641909.940
  -6066174.600 5  -4726884.92824  25005675.723
   -600120.852 7   -467609.20929  22857161.813
  17673439.605 5  13771514.94025  25254199.177
   8188215.853 6   6380448.16323  25377966.992
 92  5  6  5 28 30.0070000  0  5G 3G23G17G20G16
  -9562942.984 8  -7451618.30529  22644196.756
  -6135370.944 5  -4780804.11824  24992516.933
   -606082.981 8   -472254.96729  22856026.799
  17807906.737 5  13876294.51425  25279793.062
   8305187.992 5   6471595.19124  25400225.687
 92  5  6  5 29  0.0070000  0  5G 3G23G17G20G16
  -9550576.992 8  -7441982.44029  22646548.016
  -6204326.207 5  -4834535.46825  24979394.125
   -611724.349 8   -476650.81429  22854953.244
  17942535.730 5  13981200.20525  25305400.733
   8422413.159 5   6562939.50524  25422523.645
 92  5  6  5 29 30.0070000  0  5G 3G23G17G20G16
  -9537894.979 8  -7432100.32029  22648961.642
  -6273050.552 6  -4888086.83325  24966310.580
   -617031.267 8   -480786.06329  22853942.039
  18077319.592 5  14086226.53425  25331058.765
   8539894.865 6   6654483.60924  25444886.972
 92  5  6  5 30  0.0070000  0  5G 3G23G17G20G16
  -9524894.545 8  -7421970.11029  22651440.341
  -6341552.158 6  -4941464.69725  24953267.519
   -622000.308 8   -484658.02529  22852998.593
  18212255.866 5  14191371.66124  25356724.912
   8657635.737 5   6746229.76224  25467294.360
 92  5  6  5 30 30.0070000  0  5G 3G23G17G20G16
  -9511570.962 8  -7411588.08929  22653975.387
  -6409827.351 6  -4994666.13026  24940283.493
   -626626.593 8   -488262.89029  22852117.514
  18347345.140 6  14296636.01623  25382443.497
   8775647.633 6   6838187.05624  25489747.014
 92  5  6  5 31  0.0070000  0  5G 3G23G17G20G16
  -9497928.212 9  -7400957.36229  22656574.282
  -6477881.291 6  -5047695.12026  24927329.777
   -630927.002 8   -491613.84829  22851300.582
  18482578.951 6  14402012.98525  25408179.479
   8893917.790 5   6930345.54624  25512256.330
 92  5  6  5 31 30.0070000  0  5G 3G23G17G20G16
  -9483965.049 9  -7390076.96229  22659230.136
  -6545715.806 6  -5100553.14727  24914433.002
   -634920.179 7   -494725.39729  22850536.402
  18617954.010 6  14507500.00924  25433931.062
   9012444.851 6   7022704.27123  25534816.913
 92  5  6  5 32  0.0070000  0  5G 3G23G17G20G16
  -9469671.359 8  -7378939.00229  22661946.856
  -6613316.766 6  -5153229.20525  24901571.005
   -638613.572 8   -497603.34329  22849837.590
  18753475.688 6  14613101.32825  25459725.503
   9131234.822 6   7115267.83624  25557415.277
 92  5  6  5 32 30.0070000  0  5G 3G23G17G20G16
  -9455048.832 8  -7367544.80629  22664729.537
  -6680680.767 5  -5205720.62425  24888744.083
   -642022.109 8   -500259.32429  22849188.233
  18889138.158 6  14718812.33724  25485544.828
   9250287.814 5   7208036.39823  25580073.879
 92  5  6  5 33  0.0070000  0  5G 3G23G17G20G16
  -9440094.551 8  -7355892.11429  22667572.474
  -6747800.692 6  -5258021.85426  24875966.632
   -645157.063 8   -502702.12029  22848589.551
  19024939.764 6  14824631.75224  25511381.829
   9369596.933 5   7301004.55222  25602777.467
 92  5  6  5 33 30.0070000  0  5G 3G23G17G20G16
  -9424802.799 8  -7343976.42629  22670483.746
  -6814664.160 6  -5310123.23126  24863244.638
   -648010.591 8   -504925.64629  22848049.624
  19160881.301 6  14930560.24924  25537250.625
   9489166.519 6   7394175.60922  25625532.010
 92  5  6  5 34  0.0070000  0  5G 3G23G17G20G16
  -9409164.772 8  -7331790.92429  22673457.700
  -6881249.982 6  -5362008.24426  24850577.211
   -650576.346 8   -506924.92529  22847561.855
  19296967.193 6  15036601.15024  25563145.195
   9608987.200 5   7487542.42623  25648320.145
 92  5  6  5 34 30.0070000  0  5G 3G23G17G20G16
  -9393176.113 8  -7319332.22029  22676503.286
  -6947552.156 6  -5413672.25527  24837960.442
   -652838.387 8   -508687.54029  22847132.859
  19433197.479 6  15142754.61224  25589072.450
   9729060.162 5   7581105.79723  25671172.409
 92  5  6  5 35  0.0070000  0  5G 3G23G17G20G16
  -9376833.865 8  -7306597.97729  22679614.224
  -7013569.325 6  -5465114.18526  24825398.536
   -654777.385 8   -510198.43429  22846761.710
  19569569.979 6  15249018.89823  25615014.991
   9849384.182 5   7674864.81322  25694075.366
 92  5  6  5 35 30.0070000  0  5G 3G23G17G20G16
  -9360134.277 8  -7293585.30629  22682789.326
  -7079298.694 6  -5516331.81826  24812892.698
   -656379.632 8   -511446.88829  22846456.523
  19706084.719 5  15355394.00423  25640996.201
   9969962.827 6   7768822.17322  25717029.574
 92  5  6  5 36  0.0070000  0  5G 3G23G17G20G16
  -9343077.464 8  -7280294.26729  22686036.078
  -7144746.980 6  -5567330.44627  24800430.625
   -657636.314 8   -512426.09729  22846218.188
  19842737.102 5  15461876.37725  25667000.812
  10090794.546 5   7862976.73622  25740007.759
 92  5  6  5 36 30.0070000  0  5G 3G23G17G20G16
  -9325665.736 8  -7266726.66829  22689347.885
  -7209926.102 6  -5618119.32826  24788031.809
   -658542.924 8   -513132.54029  22846044.611
  19979520.244 5  15568460.63125  25693035.682
  10211893.347 5   7957339.47923  25763057.001
 92  5  6  5 37  0.0070000  0  5G 3G23G17G20G16
  -9307906.774 8  -7252888.50729  22692728.656
  -7274838.607 6  -5668700.47026  24775677.055
   -659115.377 8   -513578.59029  22845932.197
  20116421.873 5  15675137.17923  25719082.557
  10333247.692 5   8051901.32424  25786157.216
 92  5  6  5 37 30.0070000  0  5G 3G23G17G20G16
  -9289804.422 8  -7238782.76029  22696176.260
  -7339486.176 6  -5719075.16326  24763381.073
   -659367.883 8   -513775.33129  22845885.430
  20253433.814 5  15781899.67925  25745155.207
  10454849.576 5   8146656.01622  25809294.006
 92  5  6  5 38  0.0070000  0  5G 3G23G17G20G16
  -9271342.080 8  -7224396.50529  22699688.640
  -7403844.977 6  -5769224.84026  24751128.856
   -659287.497 8   -513712.67429  22845903.107
  20390567.736 5  15888757.23725  25771235.936
  10576714.510 6   8241615.67524  25832485.048
 92  5  6  5 38 30.0070000  0  5G 3G23G17G20G16
  -9252521.537 8  -7209731.14129  22703271.152
  -7467913.122 6  -5819148.04826  24738939.582
   -658901.285 8   -513411.72729  22845974.461
  20527817.762 5  15995705.31025  25797370.953
  10698844.460 5   8336781.87124  25855723.748
 92  5  6  5 39  0.0070000  0  5G 3G23G17G20G16
  -9233337.634 8  -7194782.63029  22706922.331
  -7531684.187 7  -5868839.72726  24726804.596
   -658210.881 8   -512873.73429  22846108.775
  20665184.643 5  16102744.36324  25823506.266
  10821217.512 5   8432137.48123  25879012.529
 92  5  6  5 39 30.0070000  0  5G 3G23G17G20G16
  -9213792.490 8  -7179552.64429  22710641.252
  -7595164.588 6  -5918304.93626  24714716.953
   -657225.660 8   -512105.98629  22846295.545
  20802661.751 5  16209869.34224  25849666.149
  10943822.683 5   8527673.97624  25902338.479
 92  5  6  5 40  0.0070000  0  5G 3G23G17G20G16
  -9193890.585 8  -7164044.64829  22714430.933
  -7658362.830 6  -5967550.28825  24702698.883
   -655952.377 8   -511113.79229  22846535.381
  20940240.571 5  16317073.58824  25875855.122
  11066653.468 5   8623386.27324  25925721.701
 92  5  6  5 40 30.0070000  0  5G 3G23G17G20G16
  -9173627.931 8  -7148255.56029  22718284.761
  -7721284.020 6  -6016579.73425  24690719.762
   -654386.829 7   -509893.87529  22846830.970
  21077920.056 5  16424356.28424  25902049.190
  11189700.142 5   8719266.74924  25949138.777
 92  5  6  5 41  0.0070000  0  5G 3G23G17G20G16
  -9153008.411 8  -7132188.40529  22722207.239
  -7783927.986 6  -6065393.19426  24678801.525
   -652518.441 8   -508437.95929  22847189.520
  21215691.894 5  16531710.94623  25928268.439
  11312943.619 5   8815300.62024  25972586.146
 92  5  6  5 41 30.0070000  0  5G 3G23G17G20G16
  -9132021.721 8  -7115835.13329  22726200.773
  -7846281.736 6  -6113980.49126  24666940.525
   -650344.461 8   -506743.92829  22847606.231
  21353562.119 5  16639142.28124  25954505.975
  11436404.056 5   8911503.50923  25996079.985
 92  5  6  5 42  0.0070000  0  5G 3G23G17G20G16
  -9110661.080 8  -7099190.47329  22730265.662
  -7908331.991 6  -6162331.32226  24655132.015
   -647862.419 8   -504809.85929  22848072.117
  21491532.638 6  16746651.77923  25980761.486
  11560087.090 5   9007879.90624  26019607.398
 92  5  6  5 42 30.0070000  0  5G 3G23G17G20G16
  -9088927.928 8  -7082255.55429  22734403.702
  -7970073.198 6  -6210441.34225  24643378.648
   -645080.920 8   -502642.42029  22848599.742
  21629598.276 5  16854235.37224  26007030.206
  11683978.306 5   9104418.47722  26043186.673
 92  5  6  5 43  0.0070000  0  5G 3G23G17G20G16
  -9066806.927 8  -7065018.39729  22738611.281
  -8031482.220 6  -6258292.49125  24631690.335
   -641992.392 8   -500235.75529  22849197.237
  21767769.807 5  16961901.45524  26033327.701
  11808090.924 5   9201129.60522  26066815.420
 92  5  6  5 43 30.0070000  0  5G 3G23G17G20G16
  -9044289.243 8  -7047472.16429  22742898.922
  -8092558.565 6  -6305884.40225  24620071.578
   -638584.710 8   -497580.42729  22849839.684
  21906051.544 6  17069653.42425  26059637.482
  11932434.451 5   9298020.64521  26090453.450
 92  5  6  5 44  0.0070000  0  5G 3G23G17G20G16
  -9021377.646 8  -7029618.96929  22747256.101
  -8153304.910 6  -6353219.20126  24608507.686
   -634849.367 8   -494669.76529  22850551.688
  22044436.626 5  17177485.90325  26085977.853
  12057003.699 6   9395087.59624  26114173.932
 92  5  6  5 44 30.0070000  0  5G 3G23G17G20G16
  -8998073.221 8  -7011459.68029  22751691.825
  -8213729.070 6  -6400302.88626  24597010.051
   -630772.137 8   -491492.68729  22851330.561
  22182918.988 5  17285394.22524  26112326.914
  12181797.111 5   9492329.16724  26137910.294
 92  5  6  5 45  0.0070000  0  5G 3G23G17G20G16
  -8974381.044 8  -6992998.23229  22756198.308
  -8273835.879 6  -6447139.32527  24585576.267
   -626344.481 8   -488042.55129  22852174.471
  22321489.440 5  17393371.15424  26138690.964
  12306818.314 5   9589748.27523  26161709.930
 92  5  6  5 45 30.0070000  0  5G 3G23G17G20G16
  -8950298.184 8  -6974232.36029  22760780.334
  -8333629.925 6  -6493732.06726  24574195.532
   -621562.975 7   -484316.69729  22853079.841
  22460146.538 5  17501415.64824  26165083.790
  12432079.470 6   9687354.37021  26185551.221
 92  5  6  5 46  0.0070000  0  5G 3G23G17G20G16
  -8925827.571 8  -6955164.34529  22765437.920
  -8393100.592 6  -6540072.81626  24562876.867
   -616446.179 8   -480329.55329  22854056.861
  22598883.289 4  17609522.14922  26191471.224
  12557574.780 5   9785142.90024  26209421.897
 92  5  6  5 46 30.0070000  0  5G 3G23G17G20G16
  -8900970.226 9  -6935794.96729  22770169.843
  -8452243.835 6  -6586158.39926  24551621.773
   -611005.382 8   -476089.97029  22855088.448
  22737693.822 4  17717686.18422  26217897.328
  12683292.003 5   9883104.38222  26233351.922
 92  5  6  5 47  0.0070000  0  5G 3G23G17G20G16
  -8875722.451 8  -6916121.36629  22774973.713
  -8511056.934 6  -6631986.75026  24540434.404
   -605252.503 8   -471607.19029  22856184.200
  22876578.043 5  17825907.63623  26244330.028
  12809224.597 5   9981233.71422  26257321.227
 92  5  6  5 47 30.0080000  0  5G 3G23G17G20G16
  -8850079.350 8  -6896139.71029  22779850.442
  -8569534.727 6  -6677553.85127  24529304.920
   -599194.254 8   -466886.46829  22857339.599
  23015540.221 4  17934189.75721  26270762.434
  12935370.862 5  10079529.47722  26281331.019
 92  5  6  5 48  0.0080000  0  5G 3G23G17G20G16
  -8824035.863 8  -6875846.09229  22784807.507
  -8627657.954 7  -6722844.65327  24518249.177
   -592821.429 8   -461920.61029  22858548.655
  23154573.241 4  18042527.17922  26297220.612
  13061717.999 5  10177981.75423  26305358.782
 92  5  6  5 48 30.0080000  0  5G 3G23G17G20G16
  -8797598.873 8  -6855245.83029  22789839.819
  -8685456.298 7  -6767882.27428  24507254.580
   -586127.100 8   -456704.25429  22859824.580
  23293669.971 4  18150914.15123  26323687.793
  13188259.444 5  10276585.51422  26329442.613
 92  5  6  5 49  0.0080000  0  4G 3G23G17G16
  -8770765.697 8  -6834336.85029  22794943.780
  -8742941.337 6  -6812675.77827  24496310.659
   -579100.756 8   -451229.15429  22861161.354
  13315002.502 5  10375346.40223  26353557.313
 92  5  6  5 49 30.0080000  0  4G 3G23G17G16
  -8743540.951 8  -6813122.74129  22800123.895
  -8800118.229 6  -6857229.16026  24485423.992
   -571742.708 8   -445495.60529  22862561.978
  13441941.934 5  10474260.2272   26377720.578
 92  5  6  5 50  0.0080000  0  5G 3G23G17G20G16
  -8715915.019 8  -6791596.03029  22805383.461
  -8856994.029 6  -6901547.94427  24474603.286
   -564043.784 8   -439496.42129  22864027.971
     78925.42915     61502.65323  26403177.758
  13569078.558 5  10573327.69822  26401895.254
 92  5  6  5 50 30.0080000  0  5G 3G23G17G20G16
  -8687881.632 8  -6769751.80629  22810717.067
  -8913568.465 7  -6945631.87127  24463835.943
   -556006.794 8   -433233.82229  22865559.908
    218255.558 5    170071.49924  26429684.516
  13696405.396 5  10672543.42622  26426131.966
 92  5  6  5 51  0.0080000  0  5G 3G23G17G20G16
  -8659438.572 8  -6747588.37529  22816129.217
  -8969812.753 7  -6989458.55126  24453134.842
   -547647.311 8   -426719.91329  22867145.505
    357643.631 5    278685.53424  26456208.341
  13823907.680 4  10771895.84922  26450389.374
 92  5  6  5 51 30.0080000  0  5G 3G23G17G20G16
  -8630587.113 8  -6725106.70629  22821620.225
  -9025715.710 7  -7033019.28027  24442498.812
   -538989.848 8   -419973.83229  22868795.266
    497084.598 5    387340.80123  26482747.173
  13951577.363 5  10871378.74821  26474700.738
 92  5  6  5 52  0.0080000  0  5G 3G23G17G20G16
  -8601332.104 8  -6702310.58129  22827182.866
  -9081269.400 6  -7076307.84026  24431922.130
   -530046.763 8   -413005.16929  22870494.777
    636569.182 5    496030.03623  26509282.411
  14079402.234 5  10970982.53122  26499010.916
 92  5  6  5 52 30.0080000  0  5G 3G23G17G20G16
  -8571672.805 8  -6679199.43429  22832830.367
  -9136453.248 7  -7119308.21527  24421421.898
   -520816.957 8   -405813.07729  22872254.562
    776094.338 5    604750.87823  26535835.325
  14207384.003 5  11070708.52621  26523368.453
 92  5  6  5 53  0.0080000  0  5G 3G23G17G20G16
  -8541594.658 8  -6655761.90329  22838553.096
  -9191257.982 7  -7162013.15127  24410995.724
   -511283.613 8   -398384.48929  22874070.711
    915669.877 5    713511.01322  26562395.743
  14335551.778 5  11170579.53424  26547764.067
 92  5  6  5 53 30.0080000  0  5G 3G23G17G20G16
  -8511091.782 8  -6631993.42529  22844360.075
  -9245698.783 7  -7204434.50027  24400630.993
   -501421.217 8   -390699.47029  22875940.519
   1055297.807 5    822311.90322  26588965.445
  14463926.387 5  11270611.72824  26572203.743
 92  5  6  5 54  0.0080000  0  5G 3G23G17G20G16
  -8480167.431 8  -6607896.53129  22850243.206
  -9299776.660 6  -7246573.05126  24390346.323
   -491203.242 8   -382737.39429  22877889.761
   1194970.125 5    931147.40523  26615541.743
  14592498.762 6  11370797.94124  26596659.909
 92  5  6  5 54 30.0080000  0  5G 3G23G17G20G16
  -8448823.791 8  -6583472.90329  22856208.476
  -9353499.681 6  -7288435.10927  24380120.094
   -480634.675 8   -374502.12529  22879898.368
   1334680.976 5   1040012.94723  26642133.641
  14721265.192 5  11471135.44923  26621161.952
 92  5  6  5 55  0.0080000  0  5G 3G23G17G20G16
  -8417056.396 8  -6558719.09529  22862250.788
  -9406876.968 6  -7330027.77826  24369967.627
   -469718.966 8   -365996.35529  22881975.939
   1474430.634 5   1148908.65924  26668721.630
  14850217.416 6  11571617.67723  26645706.869
 92  5  6  5 55 30.0080000  0  5G 3G23G17G20G16
  -8384862.651 8  -6533633.06329  22868377.944
  -9459884.206 6  -7371332.08827  24359874.509
   -458458.187 8   -357221.69829  22884119.454
   1614217.429 5   1257833.40524  26695326.110
  14979334.350 6  11672228.21322  26670276.061
 92  5  6  5 56  0.0080000  0  5G 3G23G17G20G16
  -8352238.809 8  -6508211.88229  22874584.847
  -9512508.707 7  -7412338.15526  24349862.341
   -446871.322 8   -348192.97329  22886322.928
   1754041.100 5   1366786.84623  26721939.594
  15108611.184 5  11772963.34923  26694871.322
 92  5  6  5 56 30.0080000  0  5G 3G23G17G20G16
  -8319170.581 8  -6482444.43629  22880879.891
  -9564748.590 7  -7453044.50927  24339922.715
   -434967.838 8   -338917.50729  22888590.252
   1893911.680 5   1475776.84024  26748557.266
  15238051.384 5  11873825.83722  26719503.474
 92  5  6  5 57  0.0080000  0  5G 3G23G17G20G16
  -8285663.502 8  -6456335.01429  22887254.979
  -9616610.512 6  -7493456.38428  24330049.050
   -422741.860 8   -329390.77029  22890919.350
   2033819.518 5   1584795.84822  26775182.721
  15367646.584 5  11974809.06623  26744163.807
 92  5  6  5 57 30.0080000  0  5G 3G23G17G20G16
  -8251731.262 8  -6429894.30429  22893711.018
  -9668099.627 6  -7533577.75227  24320253.946
   -410208.221 8   -319624.27629  22893299.996
   2173746.693 5   1693830.00122  26801808.194
  15497396.475 5  12075912.83824  26768852.602
 92  5  6  5 58  0.0080000  0  5G 3G23G17G20G16
  -8217361.966 8  -6403113.00129  22900254.588
  -9719227.606 7  -7573417.73427  24310524.769
   -397357.639 8   -309610.82829  22895744.510
   2313701.257 5   1802885.36221  26828432.759
  15627311.126 5  12177145.01223  26793587.291
 92  5  6  5 58 30.0080000  0  5G 3G23G17G20G16
  -8182566.111 8  -6375999.36625  22906875.794
  -9770001.917 7  -7612982.06423  24300865.760
   -384203.590 8   -299360.91424  22898246.574
   2453668.310 5   1911950.53621  26855069.329
  15757370.094 5  12278489.6812   26818332.450
 92  5  6  5 59  0.0080000  0  5G 3G23G17G20G16
  -8147336.756 8  -6348547.89929  22913581.860
  -9820399.658 7  -7652252.99228  24291272.398
   -370734.618 8   -288865.57029  22900814.304
   2593650.858 5   2021027.85722  26881715.480
  15887593.079 5  12379962.04821  26843109.997
 92  5  6  5 59 30.0080000  0  5G 3G23G17G20G16
  -8111672.998 8  -6320757.96129  22920368.564
  -9870425.735 7  -7691234.32228  24281752.484
   -356956.817 8   -278129.62029  22903437.176
   2733645.951 5   2130114.74222  26908352.627
  16017981.007 5  12481563.02722  26867908.536
 92  5  6  6  0  0.0080000  0  5G 3G23G17G20G16
  -8075573.577 8  -6292628.55329  22927236.499
  -9920077.906 7  -7729924.29728  24272303.034
   -342866.974 8   -267150.52229  22906110.724
   2873650.396 4   2239209.04623  26934983.195
  16148525.451 5  12583285.98522  26892767.331
 92  5  6  6  0 30.0080000  0  5G 3G23G17G20G16
  -8039047.834 8  -6264166.92429  22934189.887
  -9969350.743 7  -7768318.68828  24262926.718
   -328470.974 8   -255932.82829  22908856.533
   3013651.260 5   2348300.59022  26961632.644
  16279227.811 5  12685131.96622  26917638.115
 92  5  6  6  1  0.0080000  0  5G 3G23G17G20G16
  -8002085.374 8  -6235364.99729  22941218.521
 -10018241.788 7  -7806415.58128  24253623.570
   -313744.317 8   -244457.50929  22911659.597
   3153654.757 4   2457394.20822  26988270.105
  16410100.725 5  12787110.84022  26942539.471
 92  5  6  6  1 30.0080000  0  5G 3G23G17G20G16
  -7964694.534 8  -6206229.26829  22948334.999
 -10066766.841 7  -7844227.27328  24244394.447
   -298698.369 8   -232733.39429  22914517.209
   3293648.435 5   2566480.02121  27014919.554
  16541116.486 6  12889200.95222  26967475.605
 92  5  6  6  2  0.0080000  0  5G 3G23G17G20G16
  -7926869.220 8  -6176755.00129  22955531.521
 -10114901.838 7  -7881735.00227  24235231.303
   -283328.753 8   -220757.06629  22917444.990
   3433634.961 5   2675560.38022  27041555.217
  16672265.948 5  12991395.42221  26992425.525
 92  5  6  6  2 30.0080000  0  5G 3G23G17G20G16
  -7888610.271 8  -6146942.83629  22962814.072
 -10162647.447 7  -7918939.35028  24226145.480
   -267633.650 8   -208527.11629  22920432.711
   3573609.035 5   2784631.00421  27068180.393
  16803531.166 5  13093679.92422  27017405.442
 92  5  6  6  3  0.0080000  0  5G 3G23G17G20G16
  -7849927.878 8  -6116800.71529  22970176.075
 -10210010.155 7  -7955845.31827  24217130.122
   -251618.899 8   -196048.09329  22923478.298
   3713556.700 5   2893681.00522  27094818.150
  16934888.149 5  13196036.01922  27042400.034
 92  5  6  6  3 30.0080000  0  5G 3G23G17G20G16
  -7810822.385 8  -6086328.88929  22977617.232
 -10256982.708 7  -7992447.25927  24208190.323
   -235301.007 8   -183332.83229  22926584.157
   3853473.553 5   3002707.10421  27121447.514
  17066323.493 5  13298453.18622  27067416.824
 92  5  6  6  4  0.0080000  0  5G 3G23G17G20G16
  -7771293.345 8  -6055527.03429  22985139.026
 -10303567.671 7  -8028747.22227  24199336.240
   -218680.335 8   -170381.67229  22929748.772
   3993356.238 5   3111706.58621  27148067.891
  17197839.090 5  13400932.84723  27092439.598
 92  5  6  6  4 30.0080000  0  5G 3G23G17G20G16
  -7731333.812 8  -6024389.70629  22992745.646
 -10349778.052 7  -8064755.29227  24190534.943
   -201752.381 8   -157191.05529  22932968.529
   4133207.904 5   3220681.74922  27174669.666
  17329453.293 5  13503489.39623  27117491.759
 92  5  6  6  5  0.0080000  0  5G 3G23G17G20G16
  -7690930.312 8  -5992906.46829  23000430.826
 -10395611.055 7  -8100469.26427  24181819.380
   -184509.602 8   -143755.11929  22936247.058
   4273038.093 5   3329640.37922  27201286.134
  17461193.373 4  13606144.00823  27142548.998
 92  5  6  6  5 30.0080000  0  5G 3G23G17G20G16
  -7650100.374 8  -5961090.91029  23008204.148
 -10441105.258 7  -8135919.25027  24173156.271
   -166978.922 8   -130094.84729  22939584.063
   4412825.171 5   3438565.25522  27227889.131
  17593049.343 5  13708888.90023  27167643.737
 92  5  6  6  6  0.0080000  0  6G 3G23G17G20G16G21
  -7608840.151 7  -5928940.07729  23016051.214
 -10486264.863 7  -8171108.53028  24164561.830
   -149140.043 8   -116194.42629  22942982.511
   4552569.217 4   3547456.61223  27254474.415
  17725040.933 5  13811739.43722  27192767.234
    -50294.291 5    -39190.16023  27297837.595
 92  5  6  6  6 30.0080000  0  6G 3G23G17G20G16G21
  -7567145.283 8  -5896450.56729  23023989.720
 -10531071.397 7  -8206022.67327  24156034.222
   -130985.473 8   -102047.99329  22946435.507
   4692270.897 5   3656315.01323  27281056.716
  17857170.590 5  13914697.56422  27217911.724
   -129616.184 5   -100999.31922  27282752.336
 92  5  6  6  7  0.0080000  0  6G 3G23G17G20G16G21
  -7525008.257 8  -5863616.52029  23032001.970
 -10575500.551 7  -8240642.75827  24147581.878
   -112517.166 8    -87657.08629  22949949.685
   4831933.558 5   3765142.92923  27307646.502
  17989434.918 3  14017760.70124  27243073.909
   -208839.669 5   -162731.81122  27267673.079
 92  5  6  6  7 30.0080000  0  6G 3G23G17G20G16G21
  -7482436.459 8  -5830443.67429  23040103.861
 -10619549.090 7  -8274966.25227  24139196.682
    -93754.413 8    -73036.7652   22953520.209
   4971546.285 5   3873931.93323  27334212.923
  18121804.644 5  14120905.84922  27268273.873
   -287983.400 4   -224402.18622  27252606.422
 92  5  6  6  8  0.0080000  0  6G 3G23G17G20G16G21
  -7439427.243 8  -5796929.99129  23048292.708
 -10663186.910 7  -8308969.71528  24130892.437
    -74699.885 8    -58189.07429  22957142.298
   5111107.870 4   3982681.11324  27360759.242
  18254264.694 4  14224121.38323  27293475.914
   -367048.473 4   -286011.23021  27237564.631
 92  5  6  6  8 30.0080000  0  6G 3G23G17G20G16G21
  -7395980.046 8  -5763075.03329  23056558.876
 -10706406.464 7  -8342647.26928  24122672.425
    -55377.275 8    -43132.49822  22960824.957
   5250615.447 4   4091388.13224  27387310.062
  18386795.235 4  14327391.88024  27318683.364
   -446034.283 4   -347558.49921  27222537.236
 92  5  6  6  9  0.0080000  0  3G 3G23G17
  -7352084.970 8  -5728871.05828  23064912.295
 -10749224.046 7  -8376011.53627  24114523.470
    -35781.228 8    -27862.84022  22964550.770
 92  5  6  6  9 30.0080000  0  3G 3G23G17
  -7307753.890 8  -5694327.36729  23073346.962
 -10791663.407 7  -8409081.15329  24106445.851
    -15904.601 8    -12374.53222  22968333.559
 92  5  6  6 10  0.0080000  0  4G 3G23G17G21
  -7262976.939 8  -5659436.22629  23081868.549
 -10833720.993 7  -8441853.26328  24098441.105
      4273.782 8      3348.87929  22972171.804
    -28844.56314    -22475.41622  27177549.475
 92  5  6  6 10 30.0080000  0  4G 3G23G17G21
  -7217758.904 8  -5624201.40029  23090470.791
 -10875423.940 7  -8474349.02529  24090505.584
     24761.094 8     19313.02829  22976072.399
   -107446.172 4    -83723.31922  27162593.435
 92  5  6  6 11  0.0080000  0  4G 3G23G17G21
  -7172095.442 8  -5588619.47329  23099161.192
 -10916770.539 7  -8506567.11928  24082641.137
     45572.274 8     35529.53829  22980031.749
   -185947.720 4   -144893.26822  27147658.073
 92  5  6  6 11 30.0080000  0  3G 3G23G17
  -7125986.799 7  -5552690.65529  23107937.308
 -10957731.885 7  -8538485.03529  24074846.229
     66695.566 8     51989.26429  22984055.873
 92  5  6  6 12  0.0080000  0  3G 3G23G17
  -7079432.858 8  -5516414.86329  23116794.375
 -10998301.704 7  -8570097.83329  24067127.178
     88112.175 8     68677.52929  22988126.154
 92  5  6  6 12 30.0080000  0  3G 3G23G17
  -7032436.081 8  -5479793.99528  23125735.081
 -11038477.946 7  -8601403.96829  24059478.870
    109809.904 8     85584.84921  22992256.987
 92  5  6  6 13  0.0080000  0  4G 3G23G17G21
  -6984989.089 8  -5442822.32429  23134766.337
 -11078231.600 7  -8632380.83629  24051915.998
    131783.668 8    102707.28229  22996439.089
    -13004.17914    -10131.87522  27088096.797
 92  5  6  6 13 30.0080000  0  4G 3G23G17G21
  -6937083.905 8  -5405493.61029  23143883.918
 -11117553.397 7  -8663021.12829  24044435.578
    154041.547 8    120051.08929  23000677.555
    -90944.009 3    -70864.15322  27073268.772
 92  5  6  6 14  0.0080000  0  3G 3G23G17
  -6888720.068 8  -5367807.48729  23153086.047
 -11156462.196 7  -8693339.63929  24037028.013
    176601.258 8    137630.08929  23004969.087
 92  5  6  6 14 30.0080000  0  3G 3G23G17
  -6839906.262 8  -5329770.75129  23162374.815
 -11194963.616 7  -8723340.72629  24029702.586
    199469.682 8    155449.64929  23009317.576
 92  5  6  6 15  0.0090000  0  3G 3G23G17
  -6790637.404 8  -5291379.40928  23171749.633
 -11233050.888 7  -8753019.08928  24022452.407
    222652.315 8    173514.04829  23013726.936
 92  5  6  6 15 30.0090000  0  3G 3G23G17
  -6740908.109 8  -5252629.29729  23181215.871
 -11270725.800 7  -8782376.14828  24015285.568
    246167.565 8    191837.62229  23018205.220
 92  5  6  6 16  0.0090000  0  4G 3G23G17G21
  -6690717.347 8  -5213519.62028  23190764.874
 -11307994.494 7  -8811416.68029  24008190.379
    270008.241 8    210414.78229  23022742.591
    -59262.46115    -46177.05922  26999469.448
 92  5  6  6 16 30.0090000  0  4G 3G23G17G21
  -6640062.589 8  -5174048.39529  23200403.502
 -11344844.210 7  -8840130.71529  24001179.737
    294158.803 8    229233.41629  23027335.715
   -136457.740 5   -106329.15521  26984787.428
 92  5  6  6 17  0.0090000  0  4G 3G23G17G21
  -6588946.420 8  -5134217.58629  23210129.660
 -11381288.038 7  -8868528.46428  23994245.527
    318601.904 8    248280.01829  23031989.688
   -213537.536 5   -166391.22121  26970105.984
 92  5  6  6 17 30.0090000  0  4G 3G23G17G21
  -6537364.764 8  -5094024.09129  23219944.570
 -11417336.032 7  -8896617.77129  23987386.282
    343345.166 8    267560.49229  23036695.820
   -290479.660 5   -226346.03523  26955484.499
 92  5  6  6 18  0.0090000  0  4G 3G23G17G21
  -6485320.992 7  -5053470.50529  23229847.603
 -11452992.667 7  -8924402.12129  23980602.283
    368374.214 8    287063.66629  23041461.631
   -367292.843 5   -286200.34322  26940843.836
 92  5  6  6 18 30.0090000  0  4G 3G23G17G21
  -6432812.503 7  -5012554.80129  23239842.390
 -11488243.860 7  -8951870.54329  23973892.325
    393696.518 8    306795.33229  23046277.490
   -443970.977 4   -345949.48023  26926258.333
 92  5  6  6 19  0.0090000  0  4G 3G23G17G21
  -6379834.802 8  -4971273.46529  23249925.318
 -11523080.219 7  -8979015.72329  23967262.115
    419325.078 8    326765.64622  23051156.012
   -520488.280 4   -405573.24823  26911710.314
 92  5  6  6 19 30.0090000  0  4G 3G23G17G21
  -6326392.742 7  -4929630.30129  23260091.867
 -11557497.184 7  -9005834.10729  23960711.042
    445262.766 8    346976.84229  23056090.009
   -596860.311 4   -465083.76723  26897166.779
 92  5  6  6 20  0.0090000  0  4G 3G23G17G21
  -6272478.474 8  -4887619.19229  23270353.171
 -11591464.544 7  -9032302.16029  23954250.517
    471504.539 8    367424.97622  23061084.541
   -673080.100 4   -524475.75324  26882666.712
 92  5  6  6 20 30.0090000  0  4G 3G23G17G21
  -6218092.895 8  -4845240.83628  23280703.209
 -11624979.674 7  -9058417.80729  23947864.331
    498048.547 8    388108.61229  23066137.548
   -749140.285 4   -583743.34423  26868180.152
 92  5  6  6 21  0.0090000  0  4G 3G23G17G21
  -6163224.026 8  -4802485.86529  23291144.669
 -11658043.683 7  -9084181.95729  23941580.996
    524905.679 8    409036.26629  23071246.902
   -825034.932 4   -642881.97623  26853755.628
 92  5  6  6 21 30.0090000  0  4G 3G23G17G21
  -6107880.978 8  -4759361.42529  23301675.491
 -11690679.142 7  -9109612.16729  23935363.588
    552060.573 8    430195.93723  23076415.028
   -900784.228 4   -701907.34622  26839347.611
 92  5  6  6 22  0.0090000  0  3G 3G23G17
  -6052054.657 8  -4715860.40328  23312298.940
 -11722876.875 7  -9134701.28328  23929242.436
    579519.088 8    451592.18723  23081639.815
 92  5  6  6 22 30.0090000  0  3G 3G23G17
  -5995752.263 8  -4671988.41028  23323014.420
 -11754656.019 7  -9159464.19629  23923192.027
    607288.507 8    473230.71222  23086925.748
 92  5  6  6 23  0.0090000  0  3G 3G23G17
  -5938968.325 8  -4627741.21029  23333818.339
 -11786012.248 7  -9183897.61729  23917227.350
    635378.061 8    495118.68022  23092270.750
 92  5  6  6 23 30.0090000  0  3G 3G23G17
  -5881706.458 8  -4583121.59228  23344714.586
 -11816938.934 8  -9207996.31929  23911343.015
    663779.112 8    517249.36522  23097672.709
 92  5  6  6 24  0.0090000  0  4G 3G23G17G21
  -5823969.230 8  -4538131.54228  23355702.587
 -11847428.100 8  -9231754.06028  23905545.040
    692490.357 8    539621.77821  23103140.333
    -47508.74514    -37017.77721  26767687.612
 92  5  6  6 24 30.0090000  0  4G 3G23G17G21
  -5765747.344 8  -4492763.83828  23366780.212
 -11877474.289 7  -9255166.63128  23899824.702
    721513.622 8    562237.32923  23108660.099
   -122413.939 4    -95385.32121  26753434.884
 92  5  6  6 25  0.0090000  0  4G 3G23G17G21
  -5707042.074 8  -4447019.49028  23377954.686
 -11907082.247 7  -9278237.73629  23894191.597
    750837.447 8    585087.06229  23114241.045
   -197163.012 5   -153631.25922  26739212.433
 92  5  6  6 25 30.0090000  0  4G 3G23G17G21
  -5647857.437 7  -4400901.59727  23389209.483
 -11936251.868 7  -9300967.28029  23888640.630
    780452.033 8    608163.37122  23119877.134
   -271737.382 5   -211741.06122  26725007.066
 92  5  6  6 26  0.0090000  0  4G 3G23G17G21
  -5588191.046 7  -4354408.33227  23400570.116
 -11964982.777 7  -9323354.98129  23883164.927
    810363.078 8    631470.68429  23125567.807
   -346122.095 5   -269703.06723  26710861.658
 92  5  6  6 26 30.0090000  0  4G 3G23G17G21
  -5528051.955 7  -4307546.70727  23412010.810
 -11993299.197 7  -9345419.69029  23877786.054
    840567.163 8    655006.34729  23131315.123
   -420316.446 5   -327516.77922  26696737.225
 92  5  6  6 27  0.0090000  0  4G 3G23G17G21
  -5467444.390 7  -4260320.02828  23423550.116
 -12021198.780 7  -9367159.61829  23872475.831
    871059.049 8    678766.27529  23137117.006
   -494316.280 5   -385178.91623  26682650.886
 92  5  6  6 27 30.0090000  0  4G 3G23G17G21
  -5406354.121 7  -4212717.25128  23435170.076
 -12048655.305 7  -9388554.29929  23867247.449
    901848.612 8    702758.15829  23142980.943
   -568121.928 5   -442689.78623  26668607.404
 92  5  6  6 28  0.0090000  0  4G 3G23G17G21
  -5344782.234 8  -4164739.16827  23446888.962
 -12075677.752 7  -9409610.72529  23862106.300
    932938.407 8    726983.97429  23148896.444
   -641744.474 5   -500057.92522  26654592.715
 92  5  6  6 28 30.0090000  0  4G 3G23G17G21
  -5282724.396 7  -4116382.43928  23458694.488
 -12102260.570 7  -9430324.59529  23857041.008
    964329.735 8    751444.74322  23154867.717
   -715195.514 5   -557292.35122  26640628.685
 92  5  6  6 29  0.0090000  0  5G 3G23G17G21G28
  -5220174.406 7  -4067642.19728  23470597.438
 -12128380.241 7  -9450677.59829  23852081.552
    996014.584 8    776134.26629  23160897.448
   -788481.138 5   -614397.94522  26626679.330
  -1213073.192 4   -945252.06022  27544608.771
 92  5  6  6 29 30.0090000  0  5G 3G23G17G21G28
  -5157130.589 7  -4018517.12728  23482593.346
 -12154048.582 7  -9470678.88929  23847190.430
   1028010.881 8    801066.44229  23166988.324
   -861606.551 5   -671378.74821  26612756.377
  -1292700.078 5  -1007298.83321  27529457.253
 92  5  6  6 30  0.0090000  0  5G 3G23G17G21G28
  -5093605.786 7  -3969017.29528  23494683.974
 -12179289.841 7  -9490347.37729  23842387.764
   1060313.936 8    826237.65521  23173128.968
   -934578.387 5   -728239.88622  26598874.188
  -1372306.968 5  -1069330.10022  27514312.331
 92  5  6  6 30 30.0090000  0  5G 3G23G17G21G28
  -5029604.458 7  -3919146.14427  23506860.038
 -12204115.280 7  -9509691.86329  23837666.625
   1092919.328 8    851644.46529  23179336.185
  -1007394.976 4   -784979.97522  26585026.166
  -1451908.280 4  -1131356.99422  27499148.231
 92  5  6  6 31  0.0090000  0  5G 3G23G17G21G28
  -4965120.893 7  -3868899.22727  23519134.434
 -12228518.776 7  -9528707.55729  23833018.637
   1125834.498 8    877292.65322  23185599.749
  -1080036.067 4   -841583.37423  26571194.338
  -1531494.452 4  -1193372.11022  27484008.423
 92  5  6  6 31 30.0090000  0  5G 3G23G17G21G28
  -4900157.229 7  -3818278.19428  23531496.691
 -12252509.451 8  -9547401.57529  23828457.307
   1159066.697 8    903187.88029  23191921.160
  -1152479.016 4   -898032.31021  26557411.982
  -1611065.433 5  -1255375.37122  27468872.488
 92  5  6  6 32  0.0090000  0  5G 3G23G17G21G28
  -4834710.673 8  -3767280.88428  23543952.465
 -12276076.873 7  -9565765.78429  23823971.205
   1192600.693 8    929318.26921  23198305.846
  -1224717.799 4   -954322.18822  26543661.699
  -1690592.143 5  -1317344.13222  27453735.069
 92  5  6  6 32 30.0090000  0  5G 3G23G17G21G28
  -4768779.874 7  -3715906.24327  23556495.786
 -12299202.918 8  -9583786.04929  23819572.651
   1226430.434 8    955679.11529  23204743.894
  -1296754.650 4  -1010454.82222  26529958.200
  -1770041.170 5  -1379252.34121  27438611.140
 92  5  6  6 33  0.0090000  0  5G 3G23G17G21G28
  -4702357.157 8  -3664148.31027  23569136.828
 -12321864.537 8  -9601444.43129  23815257.736
   1260558.159 8    982272.15621  23211236.196
  -1368583.834 3  -1066425.58822  26516285.850
  -1849386.345 5  -1441079.65022  27423515.986
 92  5  6  6 33 30.0090000  0  5G 3G23G17G21G28
  -4635447.160 7  -3612010.65127  23581869.607
 -12344063.084 8  -9618741.98029  23811036.057
   1294980.542 8   1009094.8012   23217784.268
  -1440218.595 4  -1122244.9002   26502667.490
  -1928618.896 5  -1502819.17424  27408445.420
 92  5  6  6 34  0.0090000  0  5G 3G23G17G21G28
  -4568056.180 8  -3559498.21928  23594695.028
 -12365795.796 7  -9635676.54829  23806898.628
   1329693.679 8   1036143.99721  23224392.595
  -1511686.623 4  -1177934.26422  26489051.207
  -2007749.641 5  -1564479.37223  27393377.855
 92  5  6  6 34 30.0090000  0  5G 3G23G17G21G28
  -4500179.252 8  -3506607.11028  23607610.091
 -12387060.167 7  -9652246.16629  23802850.526
   1364712.468 8   1063431.37621  23231055.769
  -1582985.942 4  -1233492.06521  26475494.604
  -2086789.597 5  -1626068.83623  27378342.660
 92  5  6  6 35  0.0090000  0  5G 3G23G17G21G28
  -4431814.715 7  -3453336.04327  23620621.078
 -12407865.459 8  -9668458.05329  23798891.473
   1400043.485 8   1090962.05622  23237778.326
  -1654108.062 5  -1288911.90522  26461960.774
  -2165757.355 5  -1687602.06222  27363316.173
 92  5  6  6 35 30.0090000  0  5G 3G23G17G21G28
  -4362960.091 8  -3399683.09428  23633721.114
 -12428217.949 7  -9684317.13029  23795017.856
   1435681.238 8   1118731.76021  23244559.934
  -1725050.801 3  -1344191.94123  26448438.932
  -2244683.483 4  -1749102.83822  27348269.583
 92  5  6  6 36  0.0090000  0  5G 3G23G17G21G28
  -4293611.917 7  -3345645.55427  23646918.574
 -12448130.085 7  -9699833.05129  23791234.475
   1471614.447 8   1146731.66223  23251398.186
  -1795802.341 4  -1399323.03422  26434995.040
  -2323585.460 5  -1810584.85323  27333275.763
 92  5  6  6 36 30.0090000  0  5G 3G23G17G21G28
  -4223772.974 8  -3291225.62927  23660209.881
 -12467608.345 7  -9715010.89829  23787520.946
   1507821.992 8   1174945.36025  23258291.022
  -1866354.845 4  -1454298.89522  26421576.328
  -2402451.512 5  -1872038.80022  27318277.754
 92  5  6  6 37  0.0090000  0  4G 3G23G17G28
  -4153445.473 7  -3236424.99627  23673591.720
 -12486644.377 7  -9729844.14429  23783906.640
   1544287.358 8   1203359.93129  23265224.028
  -2481279.348 4  -1933463.02121  27303268.647
 92  5  6  6 37 30.0090000  0  5G 3G23G17G21G28
  -4082632.476 7  -3181246.05328  23687066.482
 -12505237.613 7  -9744332.34629  23780363.390
   1581000.367 8   1231967.47223  23272217.884
    -11675.77714     -9094.76222  26394835.440
  -2560055.210 5  -1994846.71422  27288280.219
 92  5  6  6 38  0.0090000  0  5G 3G23G17G21G28
  -4011322.467 8  -3125679.82827  23700635.684
 -12523364.650 7  -9758457.29629  23776913.692
   1617989.733 8   1260790.35423  23279251.909
    -81600.982 4    -63581.95022  26381525.252
  -2638736.125 5  -2056156.40423  27273307.077
 92  5  6  6 38 30.0090000  0  5G 3G23G17G21G28
  -3939520.828 8  -3069730.51327  23714305.033
 -12541011.291 7  -9772207.91229  23773559.899
   1655269.621 8   1289839.62724  23286347.395
   -151315.154 5   -117904.68721  26368259.736
  -2717315.995 6  -2117387.3312   27258355.835
 92  5  6  6 39  0.0090000  0  5G 3G23G17G21G28
  -3867225.864 8  -3013396.79427  23728058.300
 -12558181.803 7  -9785587.52929  23770283.778
   1692859.163 8   1319130.16429  23293496.243
   -220813.914 3   -172059.49821  26355018.196
  -2795806.731 5  -2178548.82722  27243411.783
 92  5  6  6 39 30.0090000  0  5G 3G23G17G21G28
  -3794428.895 7  -2956671.89226  23741910.509
 -12574878.853 7  -9798598.20829  23767110.474
   1730787.019 8   1348684.34722  23300717.056
   -290097.277 3   -226046.52521  26341860.313
  -2874192.788 5  -2239628.80422  27228505.790
 92  5  6  6 40  0.0090000  0  4G 3G23G17G28
  -3721135.223 8  -2899559.95527  23755858.660
 -12591111.497 7  -9811246.99129  23764022.902
   1769056.905 8   1378505.03622  23308001.998
  -2952486.106 4  -2300636.46222  27213585.731
 92  5  6  6 40 30.0090000  0  5G 3G23G17G21G28
  -3647344.111 8  -2842060.42727  23769900.938
 -12606884.685 7  -9823537.77429  23761020.190
   1807653.775 8   1408580.50929  23315348.418
    -25223.28014    -19650.92923  26315602.081
  -3030691.752 5  -2361575.92022  27198719.018
 92  5  6  6 41  0.0090000  0  5G 3G23G17G21G28
  -3573057.230 7  -2784174.52427  23784037.359
 -12622213.359 7  -9835482.17729  23758101.101
   1846566.243 8   1438901.92829  23322749.997
    -93874.049 5    -73144.96923  26302545.828
  -3108800.239 5  -2422439.55822  27183858.605
 92  5  6  6 41 30.0090000  0  5G 3G23G17G21G28
  -3498273.979 7  -2725901.90428  23798266.406
 -12637097.538 7  -9847080.23829  23755270.466
   1885783.799 8   1469461.06229  23330213.333
   -162318.180 3   -126478.03021  26289504.547
  -3186800.833 5  -2483219.15822  27169012.588
 92  5  6  6 42  0.0100000  0  5G 3G23G17G21G28
  -3423007.118 7  -2667252.40827  23812591.381
 -12651548.039 7  -9858340.35029  23752522.269
   1925272.557 8   1500231.53729  23337727.924
        -1.22314         2.68022  26276531.937
  -3264705.954 5  -2543924.34022  27154183.047
 92  5  6  6 42 30.0100000  0  5G 3G23G17G21G28
  -3347262.185 7  -2608230.43227  23827002.713
 -12665570.511 8  -9869266.93329  23749856.522
   1965015.744 8   1531200.28429  23345290.185
    -52145.459 5    -40629.38323  26263586.004
  -3342500.100 5  -2604543.02221  27139387.391
 92  5  6  6 43  0.0100000  0  5G 3G23G17G21G28
  -3271034.600 7  -2548832.30727  23841512.063
 -12679171.512 7  -9879865.08129  23747263.018
   2005017.259 8   1562370.31029  23352903.715
   -119972.432 5    -93481.61923  26250667.939
  -3420170.335 4  -2665065.13922  27124599.536
 92  5  6  6 43 30.0100000  0  5G 3G23G17G21G28
  -3194322.925 7  -2489056.98627  23856108.367
 -12692343.133 7  -9890128.65529  23744758.842
   2045270.065 8   1593736.13729  23360561.621
   -187577.430 4   -146160.84522  26237806.239
  -3497716.612 5  -2725490.70823  27109848.238
 92  5  6  6 44  0.0100000  0  4G 3G23G17G28
  -3117122.294 7  -2428900.66427  23870791.591
 -12705075.574 7  -9900050.02629  23742341.324
   2085792.335 8   1625311.96629  23368273.779
  -3575139.121 5  -2785819.81523  27095123.029
 92  5  6  6 44 30.0100000  0  4G 3G23G17G28
  -3039427.928 8  -2368359.64627  23885581.261
 -12717367.474 7  -9909628.14029  23739995.735
   2126595.493 8   1657106.59829  23376040.208
  -3652436.853 5  -2846051.72421  27080409.529
 92  5  6  6 45  0.0100000  0  4G 3G23G17G28
  -2961253.635 7  -2307444.61227  23900459.963
 -12729218.736 8  -9918862.85529  23737744.605
   2167678.831 8   1689119.60421  23383858.796
  -3729629.289 5  -2906201.53522  27065716.987
 92  5  6  6 45 30.0100000  0  4G 3G23G17G28
  -2882604.998 7  -2246159.93127  23915423.804
 -12740621.019 8  -9927747.72629  23735574.408
   2209050.786 8   1721357.52729  23391729.839
  -3806735.846 5  -2966284.42622  27051045.751
 92  5  6  6 46  0.0100000  0  4G 3G23G17G28
  -2803481.172 7  -2184505.01427  23930485.662
 -12751562.369 8  -9936273.41629  23733492.650
   2250723.530 8   1753829.79829  23399655.448
  -3883758.555 6  -3026302.02721  27036385.893
 92  5  6  6 46 30.0100000  0  5G 3G23G17G21G28
  -2723874.946 7  -2122474.17926  23945627.879
 -12762038.919 7  -9944436.93029  23731494.233
   2292689.066 8   1786530.21829  23407642.832
    -42005.15815    -32727.94224  26161448.501
  -3960682.034 5  -3086242.26923  27021747.935
 92  5  6  6 47  0.0100000  0  5G 3G23G17G21G28
  -2643795.732 7  -2060074.78927  23960866.945
 -12772049.086 7  -9952237.03329  23729591.147
   2334941.447 8   1819454.14429  23415683.264
   -108165.523 5    -84281.42022  26148859.024
  -4037520.586 5  -3146116.49421  27007121.058
 92  5  6  6 47 30.0100000  0  5G 3G23G17G21G28
  -2563241.205 7  -1997305.05527  23976201.324
 -12781607.036 8  -9959684.76229  23727776.499
   2377476.570 8   1852598.40729  23423779.153
   -174107.091 4   -135664.4312   26136303.418
  -4114271.221 5  -3205922.11824  26992525.957
 92  5  6  6 48  0.0100000  0  4G 3G23G17G28
  -2482204.548 7  -1934159.60928  23991617.248
 -12790715.362 8  -9966782.15329  23726040.709
   2420298.023 8   1885965.7692   23431926.607
  -4190915.514 5  -3265644.86123  26977936.563
 92  5  6  6 48 30.0100000  0  4G 3G23G17G28
  -2400691.994 7  -1870643.35628  24007125.518
 -12799391.086 7  -9973542.43629  23724386.446
   2463402.161 8   1919553.41926  23440127.738
  -4267456.877 5  -3325287.41223  26963371.146
 92  5  6  6 49  0.0100000  0  4G 3G23G17G28
  -2318713.964 7  -1806764.37126  24022730.305
 -12807635.049 7  -9979966.28529  23722817.933
   2506789.384 8   1953361.64922  23448387.624
  -4343899.198 6  -3384852.79022  26948822.219
 92  5  6  6 49 30.0100000  0  4G 3G23G17G28
  -2236266.711 7  -1742519.76826  24038419.657
 -12815444.681 7  -9986051.69429  23721327.963
   2550465.036 8   1987394.61129  23456698.168
  -4420218.497 5  -3444322.35322  26934300.566
 92  5  6  6 50  0.0100000  0  4G 3G23G17G28
  -2153346.183 7  -1677906.38726  24054195.927
 -12822792.409 8  -9991777.19429  23719933.935
   2594439.138 8   2021660.15429  23465062.669
  -4496404.271 5  -3503687.88022  26919800.814
 92  5  6  6 50 30.0100000  0  4G 3G23G17G28
  -2069953.937 7  -1612925.41426  24070068.733
 -12829675.987 7  -9997141.00029  23718623.546
   2638691.783 8   2056142.73921  23473487.738
  -4572461.788 5  -3562953.41424  26905330.430
 92  5  6  6 51  0.0100000  0  4G 3G23G17G28
  -1986085.517 7  -1547573.39527  24086024.287
 -12836101.707 7 -10002148.02829  23717404.282
   2683216.325 8   2090837.17829  23481957.777
  -4648377.995 5  -3622108.86123  26890886.431
 92  5  6  6 51 30.0100000  0  4G 3G23G17G28
  -1901749.820 7  -1481857.29927  24102078.173
 -12842096.936 8 -10006819.59129  23716262.671
   2727996.861 8   2125731.10829  23490477.881
  -4724171.878 5  -3681168.99423  26876461.017
 92  5  6  6 52  0.0100000  0  4G 3G23G17G28
  -1816948.141 7  -1415778.08326  24118213.307
 -12847676.178 8 -10011167.04129  23715202.902
   2773015.050 8   2160810.21629  23499047.753
  -4799853.732 5  -3740141.84023  26862062.284
 92  5  6  6 52 30.0100000  0  5G 3G23G17G21G28
  -1731671.742 7  -1349328.94727  24134440.178
 -12852845.108 7 -10015194.75729  23714214.190
   2818270.999 8   2196074.60029  23507657.184
    -10609.62314     -8263.59523  26013191.538
  -4875411.484 5  -3799018.00923  26847674.038
 92  5  6  6 53  0.0100000  0  5G 3G23G17G21G28
  -1645920.856 7  -1282510.08026  24150757.580
 -12857603.718 7 -10018902.75029  23713311.211
   2863778.419 8   2231534.92629  23516320.292
    -74136.367 4    -57764.93922  26001106.913
  -4950832.811 5  -3857787.86723  26833329.575
 92  5  6  6 53 30.0100000  0  5G 3G23G17G21G28
  -1559688.275 7  -1215315.88526  24167171.220
 -12861927.528 7 -10022271.93729  23712486.479
   2909553.782 8   2267204.0162   23525031.057
   -137431.017 3   -107085.41023  25989068.148
  -5026109.542 6  -3916445.03022  26819007.885
 92  5  6  6 54  0.0100000  0  5G 3G23G17G21G28
  -1472983.087 7  -1147753.42726  24183666.090
 -12865798.492 7 -10025288.26329  23711750.499
   2955588.668 8   2303075.33629  23533792.497
   -200491.254 3   -156223.25821  25977056.657
  -5101241.061 5  -3974989.01924  26804711.986
 92  5  6  6 54 30.0100000  0  5G 3G23G17G21G28
  -1385798.641 7  -1079817.50627  24200259.904
 -12869199.974 7 -10027938.72829  23711103.549
   3001901.108 8   2339162.96729  23542601.891
   -263305.497 3   -205169.33721  25965101.827
  -5176221.020 5  -4033414.88022  26790437.359
 92  5  6  6 55  0.0100000  0  5G 3G23G17G21G28
  -1298127.597 7  -1011502.44827  24216942.765
 -12872123.109 7 -10030216.48529  23710544.723
   3048509.003 8   2375480.81229  23551471.854
   -325861.443 4   -253914.16622  25953208.474
  -5251047.044 5  -4091720.80822  26776201.716
 92  5  6  6 55 30.0100000  0  5G 3G23G17G21G28
  -1209973.096 7   -942810.64426  24233717.346
 -12874562.737 8 -10032117.47529  23710085.154
   3095414.570 8   2412030.59429  23560395.180
   -388154.862 5   -302454.46821  25941341.785
  -5325734.803 5  -4149918.99521  26761985.268
 92  5  6  6 56  0.0100000  0  5G 3G23G17G21G28
  -1121341.186 7   -873746.84326  24250577.380
 -12876526.247 7 -10033647.48029  23709707.706
   3142612.327 8   2448808.07229  23569381.152
   -450186.482 4   -350790.73222  25929546.450
  -5400290.417 5  -4208014.21823  26747805.081
 92  5  6  6 56 30.0100000  0  5G 3G23G17G21G28
  -1032224.909 7   -804305.67627  24267541.434
 -12878022.226 7 -10034813.16529  23709425.903
   3190122.023 8   2485828.57929  23578420.504
   -511957.457 3   -398923.99921  25917784.986
  -5474698.298 6  -4265994.35322  26733640.477
 92  5  6  6 57  0.0100000  0  5G 3G23G17G21G28
   -942609.006 7   -734475.10927  24284594.223
 -12879045.325 7 -10035610.37529  23709234.334
   3237970.585 8   2523113.20829  23587526.988
   -573455.824 5   -446844.78221  25906103.286
  -5548926.150 6  -4323834.17322  26719519.953
 92  5  6  6 57 30.0100000  0  5G 3G23G17G21G28
   -852493.183 7   -664255.01326  24301741.156
 -12879594.314 8 -10036038.14729  23709125.515
   3286150.196 8   2560655.75929  23596695.856
   -634695.587 5   -494564.11122  25894436.559
  -5622957.900 6  -4381521.23923  26705424.016
 92  5  6  6 58  0.0100000  0  5G 3G23G17G21G28
   -761890.001 7   -593655.19127  24318983.716
 -12879690.819 7 -10036113.40229  23709108.134
   3334637.022 8   2598437.69329  23605918.959
   -695695.205 5   -542096.23821  25882836.091
  -5696783.116 6  -4439047.34722  26691380.849
 92  5  6  6 58 30.0100000  0  5G 3G23G17G21G28
   -670804.722 7   -522679.63926  24336317.122
 -12879354.124 7 -10035850.97029  23709168.983
   3383415.378 8   2636446.80429  23615202.929
   -756460.036 4   -589445.46022  25871269.790
  -5770399.801 6  -4496410.94923  26677370.348
 92  5  6  6 59  0.0100000  0  5G 3G23G17G21G28
   -579246.605 7   -451335.69026  24353735.965
 -12878592.662 7 -10035257.62529  23709319.177
   3432457.482 8   2674661.43729  23624531.885
   -816983.079 4   -636606.26022  25859743.380
  -5843814.339 6  -4553617.03524  26663398.221
 92  5  6  6 59 30.0100000  0  5G 3G23G17G21G28
   -487215.678 7   -379623.32026  24371253.732
 -12877390.188 8 -10034320.60729  23709543.727
   3481744.092 8   2713066.57629  23633911.481
   -877259.006 4   -683574.45922  25848291.605
  -5917038.432 6  -4610674.71322  26649462.355
 92  5  6  7  0  0.0100000  0  5G 3G23G17G21G28
   -394715.234 7   -307545.06226  24388856.639
 -12875746.480 8 -10033039.79529  23709859.698
   3531276.633 8   2751663.35429  23643340.550
   -937287.229 4   -730349.57822  25836864.417
  -5990083.511 6  -4667592.96624  26635561.581
 92  5  6  7  0 30.0100000  0  5G 3G23G17G21G28
   -301736.409 7   -235094.08126  24406548.002
 -12873652.244 7 -10031407.88929  23710255.137
   3581066.931 8   2790460.99529  23652815.198
   -997053.435 5   -776920.61023  25825493.279
  -6062957.974 6  -4724378.21523  26621704.276
 92  5  6  7  1  0.0100000  0  5G 3G23G17G21G28
   -208265.303 7   -162259.43927  24424335.584
 -12871081.399 8 -10029404.61229  23710749.781
   3631137.396 8   2829476.93329  23662342.598
  -1056548.732 5   -823280.56924  25814155.733
  -6135649.283 6  -4781020.76624  26607864.351
 92  5  6  7  1 30.0100000  0  5G 3G23G17G21G28
   -114298.424 7    -89038.55326  24442219.405
 -12868029.170 7 -10027026.23129  23711324.783
   3681507.752 8   2868726.54729  23671927.566
  -1115776.970 6   -869432.38824  25802896.434
  -6208158.297 6  -4837521.26623  26594071.210
 92  5  6  7  2  0.0100000  0  5G 3G23G17G21G28
    -19894.867 6    -15477.34125  24460175.766
 -12864566.008 7 -10024327.65729  23711989.427
   3732135.564 8   2908176.79729  23681565.601
  -1174785.941 5   -915413.37523  25791661.111
  -6280535.430 6  -4893918.95224  26580296.637
 92  5  6  7  2 30.0100000  0  5G 3G23G17G21G28
     74984.525 7     58454.61926  24478237.370
 -12860657.278 7 -10021281.87229  23712729.316
   3783062.534 8   2947860.13629  23691252.181
  -1233517.991 6   -961178.58423  25780497.736
  -6352728.949 6  -4950173.60024  26566556.248
 92  5  6  7  3  0.0100000  0  5G 3G23G17G21G28
    170346.484 7    132762.60126  24496383.206
 -12856291.137 7 -10017879.66529  23713564.239
   3834284.633 8   2987773.42429  23701001.147
  -1291970.016 6  -1006725.59125  25769362.246
  -6424722.776 6  -5006272.69924  26552855.140
 92  5  6  7  3 30.0100000  0  5G 3G23G17G21G28
    266182.284 7    207439.82825  24514620.184
 -12851471.667 7 -10014124.22429  23714479.207
   3885790.677 8   3027907.98529  23710798.048
  -1350144.293 6  -1052056.17124  25758305.299
  -6496515.853 6  -5062215.33423  26539198.390
 92  5  6  7  4  0.0100000  0  5G 3G23G17G21G28
    362499.674 7    282492.30225  24532945.303
 -12846186.568 7 -10010005.94929  23715481.407
   3937572.486 8   3068257.46729  23720656.427
  -1408026.463 6  -1097159.12125  25747276.831
  -6568084.175 6  -5117982.80823  26525572.230
 92  5  6  7  4 30.0100000  0  5G 3G23G17G21G28
    459288.554 7    357912.15526  24551367.847
 -12840439.387 7 -10005527.61229  23716578.049
   3989601.116 8   3108799.23729  23730552.881
  -1465641.576 5  -1142054.00725  25736327.204
  -6639434.878 5  -5173580.73124  26511997.933
 92  5  6  7  5  0.0100000  0  5G 3G23G17G21G28
    556553.347 7    433702.86126  24569874.030
 -12834220.289 8 -10000681.54029  23717761.331
   4041884.977 8   3149539.90229  23740502.088
  -1522991.893 5  -1186742.49524  25725394.974
  -6710556.052 5  -5228999.79524  26498460.194
 92  5  6  7  5 30.0100000  0  5G 3G23G17G21G28
    654290.140 7    509861.42426  24588476.747
 -12827542.095 7  -9995477.73429  23719029.159
   4094445.649 8   3190496.27229  23750508.863
  -1580071.402 6  -1231219.99225  25714543.085
  -6781438.674 6  -5284232.96224  26484979.726
 92  5  6  7  6  0.0100000  0  5G 3G23G17G21G28
    752500.410 7    586388.86126  24607164.918
 -12820411.881 8  -9989921.72329  23720391.707
   4147290.757 8   3231674.26529  23760565.109
  -1636884.309 5  -1275489.73225  25703719.989
  -6852090.653 5  -5339286.39824  26471524.142
 92  5  6  7  6 30.0100000  0  5G 3G23G17G21G28
    851187.172 6    663287.60426  24625940.009
 -12812835.358 7  -9984017.94229  23721828.628
   4200432.328 8   3273083.28729  23770674.108
  -1693435.163 5  -1319555.30924  25692965.227
  -6922524.127 5  -5394169.55724  26458127.627
 92  5  6  7  7  0.0100000  0  5G 3G23G17G21G28
    950341.966 6    740551.05526  24644807.150
 -12804821.909 7  -9977773.66929  23723352.171
   4253884.388 8   3314734.24329  23780847.271
  -1749723.796 6  -1363416.55124  25682253.342
  -6992747.878 6  -5448889.33323  26444761.075
 92  5  6  7  7 30.0100000  0  5G 3G23G17G21G28
   1049964.322 7    818178.83426  24663770.528
 -12796368.289 7  -9971186.43129  23724964.152
   4307639.985 8   3356621.74229  23791077.688
  -1805746.927 6  -1407070.88125  25671594.225
  -7062778.574 6  -5503458.65025  26431441.289
 92  5  6  7  8  0.0100000  0  5G 3G23G17G21G28
   1150048.082 7    896166.15326  24682809.152
 -12787466.457 7  -9964249.91529  23726654.677
   4361683.701 8   3398733.72229  23801362.357
  -1861506.784 6  -1450520.09225  25660986.674
  -7132634.912 6  -5557892.11124  26418148.795
 92  5  6  7  8 30.0100000  0  5G 3G23G17G21G28
   1250608.299 6    974524.74226  24701945.200
 -12778092.684 7  -9956945.65529  23728439.939
   4416027.445 8   3441079.51529  23811702.205
  -1916971.875 6  -1493739.60525  25650426.186
  -7202287.216 6  -5612166.57424  26404891.079
 92  5  6  7  9  0.0110000  0  5G 3G23G17G21G28
   1351640.874 7   1053251.39026  24721171.784
 -12768241.554 7  -9949269.44629  23730319.034
   4470671.455 8   3483659.24829  23822096.605
  -1972139.220 6  -1536727.10425  25639928.941
  -7271731.887 6  -5666279.23625  26391676.521
 92  5  6  7  9 30.0110000  0  5G 3G23G17G21G28
   1453140.110 7   1132341.64526  24740492.211
 -12757909.477 7  -9941218.46429  23732281.189
   4525591.463 8   3526454.06429  23832548.866
  -2026999.957 7  -1579475.69926  25629497.969
  -7340958.057 6  -5720221.65724  26378501.851
 92  5  6  7 10  0.0110000  0  5G 3G23G17G21G28
   1555100.811 7   1211791.49326  24759890.885
 -12747116.176 7  -9932808.09429  23734335.655
   4580779.521 8   3569457.75129  23843053.601
  -2081571.881 7  -1621999.26825  25619112.559
  -7409953.110 6  -5773984.00925  26365375.431
 92  5  6  7 10 30.0110000  0  5G 3G23G17G21G28
   1657523.396 7   1291601.30026  24779384.593
 -12735877.266 7  -9924050.50029  23736474.389
   4636227.980 8   3612664.34229  23853604.194
  -2135862.546 6  -1664303.66527  25608776.306
  -7478696.381 6  -5827550.10824  26352293.683
 92  5  6  7 11  0.0110000  0  5G 3G23G17G21G28
   1760414.621 6   1371776.25226  24798956.234
 -12724199.347 7  -9914950.80529  23738694.947
   4691938.493 8   3656075.13429  23864205.149
  -2189864.191 6  -1706382.85126  25598500.327
  -7547174.725 6  -5880909.82424  26339261.110
 92  5  6  7 11 30.0110000  0  5G 3G23G17G21G28
   1863767.587 7   1452311.01726  24818630.115
 -12712106.476 7  -9905527.79629  23741000.347
   4747904.298 8   3699684.84129  23874859.170
  -2243591.311 6  -1748248.08926  25588281.008
  -7615388.826 6  -5934063.62424  26326276.194
 92  5  6  7 12  0.0110000  0  5G 3G23G17G21G28
   1967589.961 7   1533211.50925  24838390.341
 -12699599.692 7  -9895782.21129  23743376.194
   4804152.997 8   3743514.99529  23885558.178
  -2297043.576 6  -1789899.16025  25578101.842
  -7683321.096 6  -5986997.81024  26313352.440
 92  5  6  7 12 30.0110000  0  5G 3G23G17G21G28
   2071882.009 7   1614477.99625  24858232.407
 -12686663.970 7  -9885702.42529  23745836.605
   4860688.368 8   3787568.52929  23896317.424
  -2350214.905 7  -1831331.32226  25567991.047
  -7750983.469 6  -6039721.71625  26300480.252
 92  5  6  7 13  0.0110000  0  5G 3G23G17G21G28
   2176636.156 7   1696104.58225  24878169.194
 -12673295.089 7  -9875285.08329  23748385.437
   4917518.846 8   3831852.01729  23907131.236
  -2403109.127 6  -1872547.57325  25557919.514
  -7818402.335 6  -6092255.84324  26287648.235
 92  5  6  7 13 30.0110000  0  5G 3G23G17G21G28
   2281852.195 7   1778091.10626  24898186.339
 -12659475.107 7  -9864516.28429  23751012.218
   4974654.883 8   3876373.60029  23918005.008
  -2455727.938 6  -1913549.21026  25547910.645
  -7885580.084 6  -6144602.08325  26274868.079
 92  5  6  7 14  0.0110000  0  5G 3G23G17G21G28
   2387526.660 6   1860434.83725  24918298.221
 -12645191.729 7  -9853386.35629  23753731.032
   5032082.083 8   3921122.07129  23928936.348
  -2508054.514 6  -1954323.09626  25537947.652
  -7952515.782 6  -6196759.74625  26262121.218
 92  5  6  7 14 30.0110000  0  5G 3G23G17G21G28
   2493663.877 6   1943139.12724  24938497.040
 -12630433.422 7  -9841886.35629  23756538.283
   5089788.068 8   3966087.73429  23939912.343
  -2560066.341 6  -1994851.76126  25528054.496
  -8019198.860 6  -6248720.54426  26249434.299
 92  5  6  7 15  0.0110000  0  5G 3G23G17G21G28
   2600273.379 7   2026211.41126  24958781.295
 -12615193.244 7  -9830010.88829  23759438.178
   5147782.024 8   4011277.84129  23950947.110
  -2611739.104 7  -2035116.23425  25518222.205
  -8085597.228 6  -6300459.49425  26236801.947
 92  5  6  7 15 30.0110000  0  5G 3G23G17G21G28
   2707339.414 7   2109639.49426  24979159.694
 -12599488.239 7  -9817773.22129  23762429.215
   5206031.386 8   4056666.94429  23962036.724
  -2663091.376 6  -2075130.94726  25508451.061
  -8151692.263 6  -6351962.07525  26224224.755
 92  5  6  7 16  0.0110000  0  5G 3G23G17G21G28
   2814863.052 6   2193424.14026  24999620.825
 -12583328.069 7  -9805180.85229  23765502.983
   5264526.467 8   4102247.52729  23973166.228
  -2714135.298 6  -2114905.39526  25498737.188
  -8217473.964 6  -6403220.49526  26211705.114
 92  5  6  7 16 30.0110000  0  5G 3G23G17G21G28
   2922845.255 7   2277566.07325  25020164.408
 -12566710.600 7  -9792232.18129  23768666.690
   5323283.486 8   4148032.21729  23984350.282
  -2764890.043 6  -2154454.51626  25489076.677
  -8282945.629 6  -6454237.33525  26199243.634
 92  5  6  7 17  0.0110000  0  5G 3G23G17G21G28
   3031288.596 6   2362067.30924  25040804.211
 -12549633.388 7  -9778925.25629  23771914.350
   5382328.511 8   4194041.29329  23995586.495
  -2815360.736 7  -2193782.31027  25479477.627
  -8348120.614 6  -6505022.98527  26186846.615
 92  5  6  7 17 30.0110000  0  5G 3G23G17G21G28
   3140184.324 7   2446921.14024  25061525.873
 -12532104.586 7  -9765266.41629  23775249.541
   5441661.200 8   4240274.58729  24006875.180
  -2865566.416 6  -2232903.56226  25469922.341
  -8413025.123 6  -6555597.88925  26174496.381
 92  5  6  7 18  0.0110000  0  5G 3G23G17G21G28
   3249533.145 7   2532128.02324  25082336.567
 -12514126.567 7  -9751257.57629  23778670.167
   5501301.467 8   4286747.50829  24018222.935
  -2915485.363 6  -2271801.39226  25460417.713
  -8477683.486 6  -6605980.97725  26162185.689
 92  5  6  7 18 30.0110000  0  5G 3G23G17G21G28
   3359341.054 7   2617692.51824  25103229.102
 -12495688.772 7  -9736890.45329  23782178.935
   5561265.806 8   4333472.96329  24029630.037
  -2965084.357 6  -2310449.91727  25450977.250
  -8542097.006 6  -6656173.28726  26149931.675
 92  5  6  7 19  0.0110000  0  5G 3G23G17G21G28
   3469600.707 7   2703609.13224  25124207.073
 -12476811.184 7  -9722180.63729  23785771.045
   5621541.089 8   4380440.71529  24041102.194
  -3014356.974 6  -2348844.13927  25441594.356
  -8606253.229 6  -6706165.11225  26137724.724
 92  5  6  7 19 30.0110000  0  5G 3G23G17G21G28
   3580306.871 6   2789873.63025  25145276.780
 -12457502.225 7  -9707134.68129  23789445.014
   5682110.780 8   4427637.87629  24052630.716
  -3063304.838 6  -2386985.25426  25432288.486
  -8670134.434 6  -6755942.65525  26125562.742
 92  5  6  7 20  0.0110000  0  5G 3G23G17G21G28
   3691463.915 7   2876489.52425  25166432.237
 -12437764.514 7  -9691754.64129  23793202.307
   5742973.978 8   4475063.74129  24064207.504
  -3111919.262 6  -2424866.57426  25423034.793
  -8733712.604 6  -6805484.06726  26113474.226
 92  5  6  7 20 30.0110000  0  5G 3G23G17G21G28
   3803071.928 6   2963456.77825  25187665.348
 -12417591.033 7  -9676035.04229  23797039.645
   5804127.372 8   4522715.73529  24075848.440
  -3160225.438 7  -2462507.72226  25413843.763
  -8796964.667 6  -6854771.36325  26101433.349
 92  5  6  7 21  0.0110000  0  5G 3G23G17G21G28
   3915116.715 6   3050764.37625  25208985.379
 -12396995.214 7  -9659986.34829  23800961.232
   5865550.918 8   4570578.21329  24087537.346
  -3208256.390 6  -2499934.41125  25404706.393
  -8859896.193 6  -6903808.88725  26089451.244
 92  5  6  7 21 30.0110000  0  5G 3G23G17G21G28
   4027620.976 6   3138429.99326  25230396.255
 -12375943.057 7  -9643582.06029  23804965.865
   5927261.736 8   4618664.57729  24099283.506
  -3255990.423 6  -2537129.70425  25395622.978
  -8922502.970 6  -6952593.37425  26077542.291
 92  5  6  7 22  0.0110000  0  5G 3G23G17G21G28
   4140554.014 7   3226429.72025  25251887.175
 -12354461.039 7  -9626842.82129  23809056.231
   5989223.687 8   4666946.61829  24111073.153
  -3303460.901 6  -2574119.63424  25386582.439
  -8984824.881 6  -7001155.86926  26065682.198
 92  5  6  7 22 30.0110000  0  5G 3G23G17G21G28
   4253922.475 7   3314768.76824  25273457.843
 -12332542.007 7  -9609763.04429  23813226.642
   6051451.974 8   4715436.18429  24122908.955
  -3350657.858 6  -2610896.42525  25377606.344
  -9046871.353 6  -7049503.73826  26053876.078
 92  5  6  7 23  0.0110000  0  5G 3G23G17G21G28
   4367722.879 6   3403444.39924  25295118.153
 -12310200.627 7  -9592354.17729  23817478.911
   6113935.748 8   4764124.83529  24134801.732
  -3397553.415 6  -2647438.39326  25368687.520
  -9108663.790 6  -7097653.66926  26042121.821
 92  5  6  7 23 30.0110000  0  5G 3G23G17G21G28
   4481960.987 6   3492461.04324  25316854.598
 -12287435.518 7  -9574615.10729  23821808.798
   6176691.761 8   4813025.63429  24146747.261
  -3444121.883 6  -2683725.47227  25359817.557
  -9170186.127 6  -7145593.10825  26030398.730
 92  5  6  7 24  0.0110000  0  5G 3G23G17G21G28
   4596636.567 7   3581818.65124  25338685.186
 -12264244.743 7  -9556544.38029  23826219.358
   6239732.288 8   4862148.12929  24158741.057
  -3490364.655 7  -2719758.75526  25351027.656
  -9231408.653 6  -7193298.92226  26018751.495
 92  5  6  7 24 30.0110000  0  5G 3G23G17G21G28
   4711749.528 6   3671516.98725  25360576.345
 -12240618.940 7  -9538134.64629  23830718.042
   6303068.970 8   4911501.37729  24170792.108
  -3536265.457 6  -2755525.60126  25342294.694
  -9292311.066 6  -7240755.32925  26007156.122
 92  5  6  7 25  0.0110000  0  5G 3G23G17G21G28
   4827294.226 7   3761551.75924  25382574.212
 -12216549.868 7  -9519379.54029  23835296.176
   6366694.170 8   4961079.46729  24182901.634
  -3581826.538 7  -2791027.69725  25333616.003
  -9352865.537 6  -7287940.57325  25995640.793
 92  5  6  7 25 30.0110000  0  5G 3G23G17G21G28
   4943268.874 6   3851921.60224  25404641.042
 -12192023.232 7  -9500267.86529  23839965.139
   6430612.512 8   5010885.96829  24195066.600
  -3627064.770 7  -2826278.21526  25325010.760
  -9413035.505 6  -7334826.23126  25984198.319
 92  5  6  7 26  0.0110000  0  5G 3G23G17G21G28
   5059672.836 6   3942625.93025  25426788.195
 -12167026.539 7  -9480789.92529  23844722.540
   6494816.933 8   5060915.36429  24207280.147
  -3671982.731 6  -2861279.18426  25316459.472
  -9472821.015 6  -7381412.30725  25972818.491
 92  5  6  7 26 30.0110000  0  5G 3G23G17G21G28
   5176490.795 6   4033652.85224  25449020.802
 -12141585.331 7  -9460965.59229  23849562.392
   6559288.357 8   5111152.84929  24219551.855
  -3716588.623 6  -2896036.97126  25307969.366
  -9532248.970 6  -7427719.78225  25961508.813
 92  5  6  7 27  0.0110000  0  5G 3G23G17G21G28
   5293732.538 6   4125010.02825  25471331.970
 -12115714.786 7  -9440806.72829  23854486.774
   6624026.230 8   5161597.94329  24231872.128
  -3760881.639 6  -2930550.97426  25299549.985
  -9591324.544 6  -7473752.64925  25950270.506
 92  5  6  7 27 30.0110000  0  5G 3G23G17G21G28
   5411394.895 6   4216694.96624  25493722.571
 -12089431.763 7  -9420326.43729  23859486.715
   6689018.650 8   5212241.40129  24244237.666
  -3804865.602 7  -2964824.17426  25291177.981
  -9650076.404 6  -7519533.27725  25939092.734
 92  5  6  7 28  0.0110000  0  5G 3G23G17G21G28
   5529476.480 6   4308706.53825  25516190.215
 -12062753.326 7  -9399538.03529  23864564.310
   6754260.964 8   5263079.58429  24256654.159
  -3848542.137 7  -2998857.80526  25282861.434
  -9708536.560 6  -7565086.62725  25927968.046
 92  5  6  7 28 30.0110000  0  5G 3G23G17G21G28
   5647976.451 6   4401044.16623  25538745.389
 -12035693.386 7  -9378452.37629  23869712.037
   6819769.213 8   5314124.96029  24269116.843
  -3891917.825 7  -3032656.96927  25274612.646
  -9766705.016 6  -7610412.64825  25916893.108
 92  5  6  7 29  0.0110000  0  5G 3G23G17G21G28
   5766898.725 6   4493710.88025  25561368.340
 -12008232.459 7  -9357054.25129  23874939.825
   6885548.400 8   5365381.45629  24281635.280
  -3934981.863 7  -3066213.32828  25266410.625
  -9824578.609 6  -7655508.93626  25905879.630
 92  5  6  7 29 30.0110000  0  5G 3G23G17G21G28
   5886233.942 7   4586699.32225  25584084.213
 -11980361.869 7  -9335336.90029  23880243.156
   6951604.422 8   5416853.68129  24294207.674
  -3977745.029 6  -3099535.26926  25258283.849
  -9882153.243 7  -7700372.25026  25894925.518
 92  5  6  7 30  0.0110000  0  5G 3G23G17G21G28
   6005990.394 6   4680015.98924  25606866.938
 -11952058.704 7  -9313282.48629  23885627.124
   7017967.560 8   5468565.19329  24306837.932
  -4020191.528 6  -3132610.42326  25250191.852
  -9939394.828 7  -7744976.07826  25884034.662
 92  5  6  7 30 30.0110000  0  5G 3G23G17G21G28
   6126166.955 6   4773660.04625  25629742.603
 -11923308.016 7  -9290879.33629  23891099.844
   7084639.586 7   5520517.42529  24319519.755
  -4062312.806 6  -3165432.12727  25242185.901
  -9996288.132 7  -7789308.47926  25873210.955
 92  5  6  7 31  0.0110000  0  5G 3G23G17G21G28
   6246755.250 6   4867624.89125  25652689.919
 -11894106.939 7  -9268125.23829  23896658.296
   7151588.322 8   5572685.27029  24332262.428
  -4104107.539 7  -3197999.42127  25234230.312
 -10052828.161 6  -7833365.62626  25862441.798
 92  5  6  7 31 30.0110000  0  5G 3G23G17G21G28
   6367762.356 6   4961916.08525  25675714.277
 -11864448.582 7  -9245014.81729  23902299.184
   7218824.812 7   5625077.31929  24345054.868
  -4145572.760 7  -3230309.97028  25226337.962
 -10108988.015 7  -7877126.53225  25851763.503
 92  5  6  7 32  0.0110000  0  5G 3G23G17G21G28
   6489182.520 6   5056529.17423  25698816.585
 -11834334.671 7  -9221549.42429  23908032.418
   7286330.176 7   5677678.90529  24357904.877
  -4186705.683 7  -3262361.57327  25218514.594
 -10164773.141 7  -7920595.43226  25841146.651
 92  5  6  7 32 30.0110000  0  5G 3G23G17G21G28
   6611012.199 6   5151461.34923  25722003.719
 -11803779.897 7  -9197740.50729  23913844.492
   7354082.670 7   5730473.02429  24370796.243
  -4227514.389 6  -3294160.51226  25210739.475
 -10220196.571 7  -7963782.51127  25830600.246
 92  5  6  7 33  0.0110000  0  5G 3G23G17G21G28
   6733257.837 6   5246717.67024  25745266.116
 -11772792.553 7  -9173594.48829  23919742.910
   7422095.679 7   5783470.18529  24383737.394
  -4267993.644 6  -3325702.72526  25203048.884
 -10275245.795 7  -8006677.96627  25820125.491
 92  5  6  7 33 30.0110000  0  5G 3G23G17G21G28
   6855914.664 6   5342294.39825  25768604.369
 -11741384.839 7  -9149120.93629  23925718.074
   7490388.252 7   5836685.17529  24396732.502
  -4308148.665 7  -3356992.33026  25195404.485
 -10329921.502 6  -8049282.40427  25809719.996
 92  5  6  7 34  0.0110000  0  5G 3G23G17G21G28
   6978975.510 6   5438185.93823  25792017.553
 -11709570.083 8  -9124330.20029  23931773.282
   7558954.927 8   5890113.73229  24409784.549
  -4347982.164 7  -3388031.39427  25187822.435
 -10384242.688 7  -8091610.55827  25799386.151
 92  5  6  7 34 30.0110000  0  5G 3G23G17G21G28
   7102435.914 6   5534388.81424  25815514.690
 -11677362.555 7  -9099233.41429  23937904.032
   7627807.188 8   5943764.84229  24422885.789
  -4387493.145 7  -3418819.12726  25180302.438
 -10438205.796 6  -8133659.73127  25789115.861
 92  5  6  7 35  0.0110000  0  5G 3G23G17G21G28
   7226294.841 6   5630902.25225  25839080.179
 -11644756.191 7  -9073825.84729  23944107.340
   7696949.438 8   5997641.90329  24436044.282
  -4426679.157 7  -3449353.67126  25172845.699
 -10491795.646 7  -8175418.06927  25778915.423
 92  5  6  7 35 30.0110000  0  5G 3G23G17G21G28
   7350549.232 6   5727723.80723  25862730.197
 -11611748.245 7  -9048105.35329  23950387.395
   7766367.134 8   6051733.59929  24449251.340
  -4465543.466 7  -3479637.51627  25165451.029
 -10545009.902 6  -8216883.70727  25768784.542
 92  5  6  7 36  0.0120000  0  5G 3G23G17G21G28
   7475206.498 6   5824859.26023  25886445.884
 -11578339.460 7  -9022072.54329  23956746.589
   7836052.368 8   6106033.78729  24462511.153
  -4504087.328 7  -3509671.64627  25158119.288
 -10597844.786 7  -8258053.74226  25758733.098
 92  5  6  7 36 30.0120000  0  5G 3G23G17G21G28
   7600257.721 6   5922301.75224  25910248.208
 -11544535.079 7  -8995731.45729  23963175.336
   7905997.008 8   6160536.08429  24475825.844
  -4542314.546 7  -3539459.05228  25150846.631
 -10650271.150 7  -8298905.43227  25748764.399
 92  5  6  7 37  0.0120000  0  5G 3G23G17G21G28
   7725706.035 5   6020053.64825  25934118.884
 -11510330.205 7  -8969078.30329  23969687.426
   7976198.154 8   6215238.26929  24489181.891
  -4580225.445 7  -3569000.01228  25143626.132
 -10702284.092 7  -8339435.00826  25738858.364
 92  5  6  7 37 30.0120000  0  5G 3G23G17G21G28
   7851545.011 6   6118109.89225  25958060.915
 -11475733.972 7  -8942120.20629  23976269.665
   8046666.286 8   6270148.46829  24502590.708
  -4617815.096 7  -3598290.66927  25136468.576
 -10753895.873 7  -8379651.99827  25729045.252
 92  5  6  7 38  0.0120000  0  5G 3G23G17G21G28
   7977771.345 6   6216468.05123  25982091.679
 -11440742.400 7  -8914854.04329  23982928.965
   8117415.273 8   6325277.55429  24516053.185
  -4655078.909 6  -3627327.36226  25129379.687
 -10805113.201 7  -8419561.58127  25719294.210
 92  5  6  7 38 30.0120000  0  5G 3G23G17G21G28
   8104383.403 6   6315126.76024  26006186.888
 -11405339.696 7  -8887267.51529  23989666.791
   8188451.825 8   6380630.70729  24529572.322
  -4692004.799 7  -3656100.73327  25122357.947
 -10855942.019 7  -8459168.44926  25709621.100
 92  5  6  7 39  0.0120000  0  5G 3G23G17G21G28
   8231377.073 6   6414082.79823  26030348.058
 -11369518.733 7  -8859355.08229  23996480.490
   8259778.582 8   6436209.97929  24543142.432
  -4728582.108 7  -3684602.53228  25115401.278
 -10906399.982 7  -8498486.33426  25700020.846
 92  5  6  7 39 30.0120000  0  5G 3G23G17G21G28
   8358754.052 6   6513337.54125  26054591.087
 -11333279.410 8  -8831116.64729  24003381.406
   8331402.484 8   6492020.81229  24556771.907
  -4764814.532 7  -3712835.55528  25108506.644
 -10956490.555 6  -8537517.92526  25690486.239
 92  5  6  7 40  0.0120000  0  5G 3G23G17G21G28
   8486509.679 6   6612887.36325  26078899.450
 -11296628.350 7  -8802557.36929  24010350.377
   8403307.310 8   6548050.51029  24570453.837
  -4800706.926 7  -3740803.64128  25101674.971
 -11006210.955 7  -8576261.10425  25681023.596
 92  5  6  7 40 30.0120000  0  5G 3G23G17G21G28
   8614642.771 5   6712731.26924  26103276.479
 -11259569.698 7  -8773680.49629  24017404.505
   8475486.836 8   6604294.30029  24584195.413
  -4836251.191 7  -3768500.42328  25094910.761
 -11055545.246 7  -8614703.38225  25671638.293
 92  5  6  7 41  0.0120000  0  5G 3G23G17G21G28
   8743153.716 5   6812869.56723  26127734.146
 -11222123.853 7  -8744501.91329  24024530.564
   8547942.841 8   6660753.49529  24597979.270
  -4871450.703 7  -3795928.59428  25088207.696
 -11104477.894 6  -8652832.69426  25662325.548
 92  5  6  7 41 30.0120000  0  5G 3G23G17G21G28
   8872038.705 6   6913299.37923  26152258.664
 -11184296.786 7  -8715026.27329  24031729.180
   8620666.959 8   6717421.64629  24611819.788
  -4906306.058 7  -3823088.60827  25081578.986
 -11152991.826 6  -8690635.70426  25653092.237
 92  5  6  7 42  0.0120000  0  5G 3G23G17G21G28
   9001292.012 6   7014016.25024  26176856.037
 -11146088.551 7  -8685253.62929  24038997.352
   8693637.400 7   6774281.72029  24625699.290
  -4940813.081 7  -3849977.18327  25075014.127
 -11201071.565 7  -8728100.45426  25643942.861
 92  5  6  7 42 30.0120000  0  5G 3G23G17G21G28
   9130925.379 6   7115029.25123  26201527.452
 -11107477.390 7  -8655167.00829  24046347.663
   8766870.335 7   6831346.33529  24639639.641
  -4974971.010 7  -3876593.70527  25068514.322
 -11248698.523 7  -8765212.35326  25634883.737
 92  5  6  7 43  0.0120000  0  5G 3G23G17G21G28
   9260931.424 6   7216332.64522  26226265.439
 -11068463.662 8  -8624766.68529  24053773.220
   8840358.692 8   6888609.99429  24653626.147
  -5008798.896 7  -3902953.07727  25062076.291
 -11295889.562 7  -8801984.57926  25625902.250
 92  5  6  7 43 30.0120000  0  5G 3G23G17G21G28
   9391303.087 6   7317920.86822  26251071.465
 -11029037.523 8  -8594045.01929  24061277.319
   8914093.032 7   6946065.31529  24667656.733
  -5042301.719 7  -3929059.17028  25055694.904
 -11342663.809 7  -8838432.02726  25617001.417
 92  5  6  7 44  0.0120000  0  5G 3G23G17G21G28
   9522042.975 6   7419796.08322  26275953.329
 -10989196.174 7  -8562999.80429  24068855.774
   8988083.902 7   7003720.51429  24681736.790
  -5075486.666 7  -3954917.55527  25049385.167
 -11389038.195 7  -8874567.91427  25608177.331
 92  5  6  7 44 30.0120000  0  5G 3G23G17G21G28
   9653143.988 5   7521952.68324  26300898.467
 -10948944.860 7  -8531635.14129  24076516.368
   9062338.553 8   7061581.28429  24695869.303
  -5108362.208 7  -3980534.84128  25043126.995
 -11435037.881 7  -8910411.81427  25599420.689
 92  5  6  7 45  0.0120000  0  5G 3G23G17G21G28
   9784623.761 6   7624404.43824  26325920.352
 -10908273.450 7  -8499943.13229  24084255.522
   9136869.460 8   7119657.29029  24710050.990
  -5140897.237 7  -4005886.78528  25036936.583
 -11480633.837 7  -8945941.11227  25590744.703
 92  5  6  7 45 30.0120000  0  5G 3G23G17G21G28
   9916472.424 5   7727143.58724  26351010.572
 -10867195.837 7  -8467934.60929  24092071.404
   9211679.465 7   7177950.80729  24724280.630
  -5173096.454 7  -4030977.07228  25030813.022
 -11525819.330 6  -8981150.56728  25582149.947
 92  5  6  7 46  0.0120000  0  5G 3G23G17G21G28
  10048685.099 6   7830166.41222  26376167.364
 -10825712.657 7  -8435610.05929  24099965.534
   9286776.588 8   7236468.03729  24738573.842
  -5204966.038 7  -4055810.46829  25024741.935
 -11570577.350 6  -9016026.95127  25573633.735
 92  5  6  7 46 30.0120000  0  5G 3G23G17G21G28
  10181241.904 6   7933457.38623  26401396.993
 -10783848.016 7  -8402988.25029  24107932.221
   9362147.021 8   7295198.23329  24752919.806
  -5236512.858 7  -4080392.38128  25018742.777
 -11614894.306 6  -9050559.63327  25565197.881
 92  5  6  7 47  0.0120000  0  5G 3G23G17G21G28
  10314142.244 6   8037016.07223  26426686.582
 -10741606.671 7  -8370072.89829  24115971.764
   9437796.772 8   7354146.11029  24767314.944
  -5267732.763 7  -4104719.59027  25012801.501
 -11658747.408 6  -9084730.89627  25556855.263
 92  5  6  7 47 30.0120000  0  5G 3G23G17G21G28
  10447390.614 6   8140845.94222  26452038.834
 -10698982.045 8  -8336858.90429  24124079.955
   9513737.197 8   7413320.46829  24781767.947
  -5298610.841 7  -4128780.41126  25006922.575
 -11702129.537 6  -9118535.13027  25548597.471
 92  5  6  7 48  0.0120000  0  5G 3G23G17G21G28
  10580987.152 5   8244947.09323  26477467.239
 -10655981.401 8  -8303351.88929  24132266.986
   9589956.431 8   7472712.07529  24796269.497
  -5329135.850 7  -4152566.10528  25001111.687
 -11745034.439 6  -9151967.54427  25540426.337
 92  5  6  7 48 30.0120000  0  5G 3G23G17G21G28
  10714926.288 4   8349315.19322  26502945.691
 -10612623.551 7  -8269566.56129  24140516.664
   9666432.832 8   7532304.06429  24810823.519
  -5359302.664 7  -4176072.72328  24995378.453
 -11787469.493 7  -9185033.82527  25532356.222
 92  5  6  7 49  0.0120000  0  5G 3G23G17G21G28
  10849202.029 5   8453945.53023  26528497.905
 -10568907.513 7  -8235502.10729  24148836.806
   9743155.064 8   7592087.61929  24825421.621
  -5389125.048 8  -4199310.96428  24989702.491
 -11829455.200 7  -9217749.96127  25524365.854
 92  5  6  7 49 30.0120000  0  5G 3G23G17G21G28
  10983812.483 5   8558836.75523  26554115.471
 -10524832.059 8  -8201157.59229  24157219.908
   9820123.009 7   7652062.64829  24840067.676
  -5418606.752 7  -4222283.71528  24984090.082
 -11871002.557 7  -9250124.52128  25516459.423
 92  5  6  7 50  0.0120000  0  5G 3G23G17G21G28
  11118766.891 6   8663995.98325  26579805.280
 -10480394.085 8  -8166530.59029  24165677.644
   9897350.686 8   7712240.04129  24854767.408
  -5447762.387 7  -4245002.37228  24978542.710
 -11912107.833 7  -9282154.62728  25508638.444
 92  5  6  7 50 30.0120000  0  5G 3G23G17G21G28
  11254050.951 5   8769412.07624  26605543.671
 -10435599.651 7  -8131625.83329  24174202.250
   9974834.839 8   7772617.30529  24869508.200
  -5476615.421 7  -4267485.24627  24973049.626
 -11952789.964 7  -9313854.96727  25500896.900
 92  5  6  7 51  0.0120000  0  6G 3G23G17G11G21G28
  11389670.873 6   8875089.84523  26631346.505
 -10390427.534 8  -8096426.75729  24182799.100
  10052611.738 7   7833222.71829  24884307.154
   -189112.267 4   -147359.77922  28783728.046
  -5505160.650 7  -4289728.26929  24967623.672
 -11993039.080 7  -9345217.92227  25493237.807
 92  5  6  7 51 30.0120000  0  6G 3G23G17G11G21G28
  11525622.923 6   8981026.46924  26657222.194
 -10344885.545 8  -8060939.46229  24191464.896
  10130678.580 7   7894053.99129  24899166.067
   -269058.592 4   -209655.52322  28768498.875
  -5533383.842 7  -4311720.33429  24962244.800
 -12032852.551 7  -9376241.39227  25485661.743
 92  5  6  7 52  0.0120000  0  6G 3G23G17G11G21G28
  11661904.857 6   9087220.11823  26683159.325
 -10298976.661 8  -8025166.33029  24200201.748
  10209028.157 8   7955105.59429  24914071.153
   -349026.468 4   -271968.00522  28753279.318
  -5561278.443 7  -4333456.38428  24956939.375
 -12072217.257 7  -9406915.18727  25478171.132
 92  5  6  7 52 30.0120000  0  6G 3G23G17G11G21G28
  11798514.252 6   9193668.97722  26709153.745
 -10252688.304 8  -7989097.44229  24209011.456
  10287655.381 8   8016373.57528  24929035.587
   -429014.028 4   -334295.81722  28738068.156
  -5588819.285 7  -4354916.76628  24951699.005
 -12111123.736 7  -9437231.92527  25470772.850
 92  5  6  7 53  0.0120000  0  6G 3G23G17G11G21G28
  11935438.168 5   9300362.88423  26735207.496
 -10206028.722 8  -7952739.30229  24217889.202
  10366536.179 7   8077839.15729  24944046.491
   -509030.373 4   -396646.08623  28722847.081
  -5616010.606 7  -4376104.78728  24946523.079
 -12149582.484 7  -9467199.76027  25463450.128
 92  5  6  7 53 30.0120000  0  6G 3G23G17G11G21G28
  12072685.069 5   9407308.41723  26761313.126
 -10159003.649 8  -7916096.39329  24226837.708
  10445651.711 7   8139487.58429  24959097.880
   -589062.455 4   -459008.70022  28707593.340
  -5642849.741 7  -4397018.40428  24941418.820
 -12187574.400 7  -9496803.87327  25456221.219
 92  5  6  7 54  0.0120000  0  6G 3G23G17G11G21G28
  12210251.036 5   9514502.67822  26787504.193
 -10111611.109 8  -7879167.11829  24235856.365
  10525001.447 7   8201318.57929  24974199.316
   -669109.736 5   -521383.18721  28692381.583
  -5669352.368 7  -4417669.78928  24936372.706
 -12225102.630 7  -9526046.64227  25449078.670
 92  5  6  7 54 30.0120000  0  6G 3G23G17G11G21G28
  12348139.393 5   9621948.09522  26813733.633
 -10063836.750 8  -7841940.33229  24244951.174
  10604588.589 7   8263334.54129  24989347.536
   -749164.636 5   -583763.55423  28677146.427
  -5695513.391 7  -4438054.99428  24931393.757
 -12262169.844 7  -9554930.19427  25442026.950
 92  5  6  7 55  0.0120000  0  6G 3G23G17G11G21G28
  12486350.343 6   9729644.91421  26840043.117
 -10015683.108 8  -7804418.02329  24254107.129
  10684422.873 7   8325543.07929  25004534.722
   -829222.593 5   -646146.31622  28661914.568
  -5721342.919 7  -4458181.86027  24926479.252
 -12298772.856 7  -9583452.03627  25435059.182
 92  5  6  7 55 30.0120000  0  6G 3G23G17G11G21G28
  12624899.938 5   9837605.56622  26866414.060
  -9967149.657 8  -7766599.73629  24263346.443
  10764537.566 7   8387970.10929  25019783.665
   -909263.381 5   -708515.70423  28646680.615
  -5746814.609 7  -4478029.93027  24921631.617
 -12334881.362 7  -9611588.55127  25428189.136
 92  5  6  7 56  0.0120000  0  6G 3G23G17G11G21G28
  12763785.938 5   9945828.32123  26892830.584
  -9918234.951 8  -7728484.36229  24272653.796
  10844946.732 7   8450626.58728  25035084.469
   -989284.797 5   -770870.01723  28631456.260
  -5771914.971 7  -4497588.65228  24916855.614
 -12370486.181 7  -9639332.58427  25421412.920
 92  5  6  7 56 30.0120000  0  6G 3G23G17G11G21G28
  12903007.534 6  10054312.64023  26919323.836
  -9868941.911 8  -7690074.19329  24282031.002
  10925663.295 7   8513522.58828  25050444.046
  -1069282.893 6   -833206.13123  28616236.686
  -5796638.613 7  -4516853.79929  24912152.781
 -12405572.784 7  -9666672.80828  25414739.835
 92  5  6  7 57  0.0120000  0  6G 3G23G17G11G21G28
  13042557.605 6  10163052.92222  26945883.661
  -9819296.788 8  -7651389.68129  24291475.967
  11006693.411 7   8576662.94428  25065856.672
  -1149260.646 5   -895526.41723  28601012.331
  -5820987.727 7  -4535827.10629  24907519.486
 -12440137.638 7  -9693606.46427  25408157.299
 92  5  6  7 57 30.0120000  0  6G 3G23G17G11G21G28
  13182433.879 6  10272047.35623  26972503.130
  -9769303.963 8  -7612434.23429  24300992.269
  11088026.652 7   8640039.48228  25081340.355
  -1229216.050 5   -957829.26022  28585795.165
  -5844953.957 7  -4554502.06029  24902960.233
 -12474184.853 7  -9720136.77228  25401680.284
 92  5  6  7 58  0.0120000  0  6G 3G23G17G11G21G28
  13322633.132 6  10381293.47022  26999187.358
  -9718944.681 8  -7573193.22429  24310576.033
  11169644.090 8   8703637.47729  25096874.102
  -1309147.833 4  -1020113.70122  28570585.503
  -5868549.009 7  -4572887.79328  24898467.849
 -12507720.654 6  -9746268.57028  25395295.598
 92  5  6  7 58 30.0120000  0  6G 3G23G17G11G21G28
  13463152.729 5  10490789.22622  27025924.337
  -9668202.121 8  -7533653.55629  24320233.560
  11251529.985 7   8767444.66528  25112457.600
  -1389053.811 5  -1082378.07923  28555376.120
  -5891782.186 7  -4590991.55129  24894045.615
 -12540762.271 7  -9772015.30029  25389010.448
 92  5  6  7 59  0.0120000  0  6G 3G23G17G11G21G28
  13603989.811 5  10600532.34322  27052719.199
  -9617076.180 8  -7493815.16929  24329961.812
  11333663.512 7   8831444.83228  25128084.881
  -1468932.396 5  -1144621.10322  28540187.433
  -5914649.989 7  -4608810.57929  24889698.329
 -12573309.187 7  -9797376.55029  25382816.441
 92  5  6  7 59 30.0120000  0  6G 3G23G17G11G21G28
  13745144.668 5  10710523.10822  27079582.395
  -9565552.460 8  -7453666.80629  24339764.140
  11416035.178 7   8895630.53728  25143761.337
  -1548778.905 5  -1206839.11821  28524984.367
  -5937146.910 7  -4626340.62628  24885411.282
 -12605354.401 7  -9822346.83529  25376721.656
 92  5  6  8  0  0.0120000  0  6G 3G23G17G11G21G28
  13886609.276 5  10820755.22322  27106499.566
  -9513632.200 8  -7413209.46829  24349645.884
  11498646.688 8   8960003.13028  25159485.152
  -1628597.036 5  -1269035.05022  28509805.278
  -5959284.115 7  -4643590.38328  24881202.202
 -12636887.731 7  -9846918.27029  25370716.216
 92  5  6  8  0 30.0120000  0  6G 3G23G17G11G21G28
  14028381.827 5  10931227.29622  27133485.385
  -9461325.850 8  -7372451.27329  24359597.203
  11581519.885 7   9024579.63328  25175249.731
  -1708383.805 5  -1331206.52522  28494616.294
  -5981058.305 7  -4660557.25928  24877056.379
 -12667908.101 7  -9871089.99429  25364813.907
 92  5  6  8  1  0.0120000  0  6G 3G23G17G11G21G28
  14170467.303 5  11041943.23122  27160514.359
  -9408644.280 8  -7331400.69229  24369622.859
  11664679.941 7   9089379.68028  25191078.178
  -1788129.499 4  -1393346.06721  28479434.500
  -6002456.942 7  -4677231.45729  24872985.784
 -12698391.671 7  -9894843.42229  25359012.320
 92  5  6  8  1 30.0120000  0  6G 3G23G17G11G21G28
  14312859.991 5  11152898.52322  27187609.905
  -9355584.843 8  -7290055.69229  24379723.167
  11748140.207 7   9154413.64429  25206954.892
  -1867835.409 4  -1455454.54521  28464273.698
  -6023491.983 7  -4693622.36028  24868986.561
 -12728344.294 7  -9918183.13029  25353316.272
 92  5  6  8  2  0.0120000  0  6G 3G23G17G11G21G28
  14455550.154 4  11264085.68322  27214777.102
  -9302157.438 8  -7248423.95429  24389888.233
  11831908.057 7   9219687.27028  25222896.661
  -1947506.475 5  -1517535.96622  28449110.192
  -6044181.364 7  -4709743.91729  24865042.498
 -12757774.831 7  -9941116.01329  25347715.538
 92  5  6  8  2 30.0130000  0  6G 3G23G17G11G21G28
  14598566.272 5  11375526.77222  27241984.473
  -9248350.736 8  -7206496.64629  24400124.953
  11916022.647 7   9285231.09827  25238905.877
  -2027117.013 5  -1579570.11422  28433967.367
  -6064497.627 7  -4725574.75529  24861184.153
 -12786657.246 7  -9963621.78029  25342217.047
 92  5  6  8  3  0.0130000  0  6G 3G23G17G11G21G28
  14741899.738 5  11487215.11322  27269258.989
  -9194162.978 8  -7164272.42929  24410439.602
  12000472.637 7   9351036.28228  25254975.050
  -2106656.107 4  -1641548.60123  28418811.661
  -6084422.991 7  -4741101.00629  24857384.595
 -12814967.881 7  -9985682.00729  25336833.079
 92  5  6  8  3 30.0130000  0  6G 3G23G17G11G21G28
  14885538.880 5  11599141.67524  27296587.757
  -9139607.372 8  -7121761.55329  24420825.012
  12085242.317 7   9417090.56828  25271102.088
  -2186138.287 5  -1703482.76022  28403702.722
  -6103965.305 7  -4756328.75329  24853671.363
 -12842720.081 7 -10007307.08729  25331550.724
 92  5  6  8  4  0.0130000  0  6G 3G23G17G11G21G28
  15029452.539 6  11711282.17722  27323981.598
  -9084728.665 8  -7078998.91929  24431260.189
  12170295.331 7   9483365.62028  25287292.365
  -2265590.023 5  -1765393.23122  28388575.791
  -6123145.650 7  -4771274.43428  24850016.590
 -12869932.657 8 -10028511.70428  25326373.017
 92  5  6  8  4 30.0130000  0  6G 3G23G17G11G21G28
  15173652.231 6  11823645.58022  27351419.814
  -9029507.625 8  -7035969.53229  24441772.113
  12255618.468 7   9549851.18028  25303526.738
  -2344994.851 5  -1827267.10423  28373468.352
  -6141943.427 7  -4785922.00928  24846442.471
 -12896594.175 7 -10049286.88529  25321297.534
 92  5  6  8  5  0.0130000  0  6G 3G23G17G11G21G28
  15318166.054 5  11936253.72721  27378916.174
  -8973908.382 8  -6992645.44929  24452352.093
  12341216.679 7   9616551.07127  25319817.459
  -2424320.150 5  -1889079.03523  28358379.202
  -6160336.182 7  -4800254.00428  24842941.189
 -12922683.323 7 -10069616.10229  25316334.169
 92  5  6  8  5 30.0130000  0  6G 3G23G17G11G21G28
  15462956.910 5  12049077.64522  27406471.586
  -8917979.100 8  -6949064.20829  24462998.017
  12427053.710 7   9683437.06928  25336149.554
  -2503598.129 5  -1950854.06322  28343287.642
  -6178377.565 7  -4814312.20829  24839504.666
 -12948256.139 7 -10089542.94728  25311464.930
 92  5  6  8  6  0.0130000  0  6G 3G23G17G11G21G28
  15608025.555 5  12162118.12022  27434078.878
  -8861714.865 8  -6905221.95829  24473702.103
  12513127.116 7   9750507.24928  25352527.212
  -2582823.193 5  -2012587.87124  28328216.186
  -6196080.812 7  -4828106.94229  24836141.904
 -12973315.765 7 -10109069.91028  25306699.432
 92  5  6  8  6 30.0130000  0  6G 3G23G17G11G21G28
  15753389.235 5  12275388.48222  27461740.736
  -8805096.995 8  -6861104.12629  24484479.043
  12599452.312 7   9817773.62627  25368953.747
  -2661973.205 5  -2074263.17422  28313155.514
  -6213432.678 7  -4841627.87029  24832836.379
 -12997847.141 7 -10128185.27127  25302032.860
 92  5  6  8  7  0.0130000  0  6G 3G23G17G11G21G28
  15899067.839 5  12388904.27122  27489463.443
  -8748118.115 8  -6816705.01329  24495319.852
  12686077.127 7   9885273.46128  25385445.320
  -2741023.711 5  -2135860.94922  28298107.127
  -6230416.846 7  -4854862.24829  24829607.024
 -13021818.530 7 -10146864.26728  25297473.328
 92  5  6  8  7 30.0130000  0  6G 3G23G17G11G21G28
  16045016.294 5  12502630.30421  27517236.512
  -8690812.436 8  -6772051.24029  24506226.290
  12772971.633 7   9952983.45227  25401978.581
  -2820014.973 5  -2197412.60523  28283077.935
  -6247062.987 7  -4867833.25129  24826441.206
 -13045255.117 7 -10165126.53027  25293004.310
 92  5  6  8  8  0.0130000  0  6G 3G23G17G11G21G28
  16191223.971 5  12616558.34322  27545050.658
  -8633174.476 8  -6727138.54929  24517192.705
  12860128.186 7  10020897.66027  25418554.107
  -2898952.381 5  -2258922.26623  28268052.931
  -6263373.027 7  -4880542.34929  24823332.956
 -13068139.949 7 -10182958.85627  25288652.522
 92  5  6  8  8 30.0130000  0  6G 3G23G17G11G21G28
  16337711.660 4  12730704.54022  27572934.361
  -8575176.201 8  -6681945.10029  24528228.659
  12947574.289 7  10089037.44827  25435201.283
  -2977810.424 5  -2320370.08425  28253044.731
  -6279313.641 7  -4892963.59529  24820300.561
 -13090445.470 7 -10200339.77327  25284413.463
 92  5  6  8  9  0.0130000  0  6G 3G23G17G11G21G28
  16484474.144 4  12845064.91022  27600858.217
  -8516815.234 8  -6636469.02129  24539335.373
  13035314.209 7  10157406.21227  25451896.412
  -3056589.637 5  -2381756.46722  28238053.895
  -6294881.921 7  -4905094.70028  24817339.207
 -13112168.375 7 -10217266.71027  25280273.329
 92  5  6  8  9 30.0130000  0  6G 3G23G17G11G21G28
  16631511.089 4  12959639.15222  27628835.453
  -8458078.232 8  -6590699.93629  24550513.739
  13123343.195 7  10226000.22428  25468650.017
  -3135285.419 5  -2443077.82124  28223079.863
  -6310072.980 7  -4916931.89529  24814450.707
 -13133310.879 7 -10233741.39127  25276246.220
 92  5  6  8 10  0.0130000  0  6G 3G23G17G11G21G28
  16778816.911 4  13074422.87422  27656870.240
  -8398975.922 8  -6544646.17729  24561758.955
  13211658.481 7  10294817.30929  25485458.782
  -3213898.291 5  -2504334.61722  28208129.511
  -6324896.050 7  -4928482.34629  24811621.277
 -13153893.709 7 -10249779.96127  25272339.029
 92  5  6  8 10 30.0130000  0  6G 3G23G17G11G21G28
  16926423.688 5  13189441.16921  27684956.610
  -8339484.198 8  -6498289.01029  24573079.714
  13300300.112 7  10363888.70527  25502322.708
  -3292391.085 5  -2565497.87223  28193187.570
  -6339315.213 7  -4939718.02829  24808886.566
 -13173898.656 7 -10265368.21727  25268530.466
 92  5  6  8 11  0.0130000  0  6G 3G23G17G11G21G28
  17074338.813 5  13304699.69022  27713114.613
  -8279606.406 8  -6451630.97729  24584473.625
  13389275.848 7  10433220.43527  25519257.080
  -3370751.560 5  -2626557.96522  28178274.684
  -6353317.911 7  -4950629.19229  24806222.302
 -13193314.555 7 -10280497.50328  25264833.725
 92  5  6  8 11 30.0130000  0  6G 3G23G17G11G21G28
  17222509.576 5  13420157.47022  27741313.397
  -8219391.453 8  -6404710.24829  24595933.183
  13478533.816 7  10502772.08227  25536239.125
  -3449027.546 5  -2687552.21823  28163373.507
  -6366954.067 7  -4961254.77529  24803624.313
 -13212197.540 7 -10295211.51227  25261239.504
 92  5  6  8 12  0.0130000  0  6G 3G23G17G11G21G28
  17370933.533 5  13535812.4752   27769537.641
  -8158860.942 8  -6357543.63329  24607450.623
  13568064.770 7  10572536.46227  25553274.831
  -3527216.428 5  -2748478.60622  28148506.497
  -6380225.635 7  -4971596.25029  24801101.849
 -13230545.542 7 -10309508.67027  25257751.729
 92  5  6  8 12 30.0130000  0  6G 3G23G17G11G21G28
  17519595.983 4  13651653.37022  27797825.473
  -8098035.800 8  -6310147.42229  24619025.597
  13657848.111 7  10642497.46328  25570362.712
  -3605327.733 5  -2809344.56323  28133640.988
  -6393140.925 7  -4981660.09229  24798640.252
 -13248352.304 7 -10323384.06328  25254359.267
 92  5  6  8 13  0.0130000  0  6G 3G23G17G11G21G28
  17668515.834 4  13767694.85922  27826177.732
  -8036889.541 8  -6262500.99829  24630661.454
  13747888.338 7  10712658.68027  25587498.250
  -3683337.584 5  -2870131.48322  28118789.562
  -6405675.090 7  -4991426.99529  24796253.306
 -13265575.180 7 -10336804.50628  25251088.241
 92  5  6  8 13 30.0130000  0  6G 3G23G17G11G21G28
  17817646.255 4  13883900.35622  27854558.487
  -7975462.194 8  -6214635.54129  24642349.156
  13838141.198 7  10782985.56428  25604671.254
  -3761287.624 5  -2930871.76423  28103945.935
  -6417884.299 7  -5000940.62929  24793930.822
 -13282246.074 6 -10349794.80227  25247908.043
 92  5  6  8 14  0.0130000  0  6G 3G23G17G11G21G28
  17967007.614 4  14000285.81923  27882987.212
  -7913736.049 8  -6166537.24929  24654096.818
  13928627.324 7  10853494.24627  25621890.134
  -3839152.611 5  -2991545.76923  28089144.591
  -6429745.394 7  -5010183.02629  24791674.282
 -13298319.826 7 -10362319.80628  25244854.046
 92  5  6  8 14 30.0130000  0  6G 3G23G17G11G21G28
  18116633.960 4  14116877.74722  27911455.794
  -7851654.400 8  -6118161.94529  24665911.348
  14019397.440 7  10924224.18427  25639165.378
  -3916893.288 5  -3052122.92123  28074356.125
  -6441214.386 7  -5019119.88829  24789492.987
 -13313752.012 7 -10374344.88328  25241915.778
 92  5  6  8 15  0.0130000  0  6G 3G23G17G11G21G28
  18266470.037 3  14233633.08421  27939958.875
  -7789261.317 8  -6069543.94729  24677784.633
  14110414.057 7  10995146.17026  25656482.590
  -3994559.859 5  -3112642.32725  28059579.350
  -6452349.992 7  -5027796.97029  24787374.060
 -13328600.938 7 -10385915.48029  25239089.646
 92  5  6  8 15 30.0130000  0  5G23G17G11G21G28
  -7726536.161 8  -6020667.23329  24689719.657
  14201726.283 7  11066298.55626  25673862.763
  -4072120.286 5  -3173079.00922  28044806.781
  -6463119.665 7  -5036188.89329  24785325.875
 -13342852.396 6 -10397020.49729  25236379.819
 92  5  6  8 16  0.0130000  0  5G23G17G11G21G28
  -7663483.367 8  -5971535.16729  24701722.755
  14293334.803 7  11137681.81927  25691292.983
  -4149574.550 5  -3233432.97722  28030072.585
  -6473516.422 7  -5044290.26529  24783347.841
 -13356523.438 7 -10407673.26028  25233778.811
 92  5  6  8 16 30.0130000  0  5G23G17G11G21G28
  -7600114.411 8  -5922156.76629  24713776.213
  14385234.079 7  11209291.61126  25708780.178
  -4226932.946 5  -3293712.25723  28015350.970
  -6483554.921 7  -5052112.47029  24781430.673
 -13369640.886 7 -10417894.63128  25231280.045
 92  5  6  8 17  0.0130000  0  5G23G17G11G21G28
  -7536465.917 8  -5872560.55029  24725889.631
  14477392.540 7  11281103.38027  25726317.437
  -4304216.761 5  -3353933.43023  28000645.864
  -6493260.891 7  -5059675.54629  24779589.046
 -13382225.192 7 -10427700.58628  25228885.299
 92  5  6  8 17 30.0130000  0  5G23G17G11G21G28
  -7472511.708 8  -5822726.09529  24738058.505
  14569825.208 7  11353128.84327  25743910.467
  -4381397.488 5  -3414074.26423  27985955.730
  -6502603.012 7  -5066955.12129  24777804.988
 -13394250.474 7 -10437070.95127  25226599.687
 92  5  6  8 18  0.0130000  0  5G23G17G11G21G28
  -7408246.714 8  -5772649.46229  24750288.839
  14662508.689 7  11425349.69227  25761542.150
  -4458479.040 5  -3474137.78023  27971285.681
  -6511593.962 7  -5073961.03429  24776101.254
 -13405718.428 7 -10446007.01528  25224416.595
 92  5  6  8 18 30.0130000  0  5G23G17G11G21G28
  -7343672.123 8  -5722331.60529  24762572.833
  14755432.012 7  11497757.45626  25779234.699
  -4535454.907 5  -3534119.00324  27956638.422
  -6520234.325 7  -5080693.76629  24774461.090
 -13416611.308 7 -10454494.96628  25222342.933
 92  5  6  8 19  0.0130000  0  5G23G17G11G21G28
  -7278789.416 8  -5671773.64829  24774925.476
  14848581.204 7  11570341.22827  25796952.446
  -4612313.336 5  -3594008.70023  27942012.748
  -6528514.706 7  -5087146.00429  24772876.698
 -13426926.082 7 -10462532.44927  25220379.889
 92  5  6  8 19 30.0130000  0  5G23G17G11G21G28
  -7213596.248 8  -5620973.78529  24787326.996
  14941947.683 7  11643094.31127  25814715.738
  -4689056.570 5  -3653808.64722  27927411.663
  -6536446.043 7  -5093326.26429  24771373.240
 -13436672.613 7 -10470127.14129  25218520.289
 92  5  6  8 20  0.0130000  0  6G 3G23G17G11G21G28
    146886.74014    114477.17321  28227345.307
  -7148105.584 8  -5569942.09929  24799793.257
  15035527.733 7  11716013.81928  25832524.017
  -4765679.683 5  -3713514.99022  27912820.157
  -6544027.714 7  -5099234.06329  24769929.443
 -13445830.957 7 -10477263.52928  25216782.387
 92  5  6  8 20 30.0130000  0  6G 3G23G17G11G21G28
    299035.137 4    233034.27621  28256280.386
  -7082343.626 8  -5518699.03229  24812303.894
  15129329.275 7  11789105.93327  25850376.654
  -4842184.614 5  -3773129.22522  27898275.418
  -6551258.644 7  -5104868.51629  24768553.389
 -13454405.791 6 -10483945.21728  25215146.725
 92  5  6  8 21  0.0130000  0  6G 3G23G17G11G21G28
    451382.389 4    351746.37022  28285295.491
  -7016304.432 8  -5467239.93529  24824870.896
  15223382.739 7  11862394.32226  25868272.166
  -4918563.799 5  -3832645.46823  27883738.183
  -6558129.237 7  -5110222.19929  24767248.689
 -13462395.063 7 -10490170.62628  25213627.667
 92  5  6  8 21 30.0130000  0  6G 3G23G17G11G21G28
    603924.262 4    470610.12722  28314327.697
  -6949984.013 8  -5415561.69229  24837497.262
  15317716.331 6  11935901.03126  25886220.745
  -4994816.115 5  -3892062.83823  27869231.537
  -6564648.752 7  -5115302.32329  24766003.057
 -13469782.053 7 -10495926.72128  25212220.743
 92  5  6  8 22  0.0130000  0  6G 3G23G17G11G21G28
    756659.493 3    589624.51821  28343391.384
  -6883394.007 8  -5363673.37729  24850164.096
  15412333.470 7  12009628.65026  25904228.968
  -5070937.763 5  -3951378.40023  27854736.270
  -6570813.349 7  -5120105.88229  24764829.966
 -13476569.475 7 -10501215.60228  25210934.941
 92  5  6  8 22 30.0130000  0  6G 3G23G17G11G21G28
    909577.314 4    708781.21222  28372492.536
  -6816523.852 8  -5311566.76429  24862887.573
  15507238.459 6  12083580.62226  25922288.774
  -5146934.010 5  -4010596.25223  27840285.675
  -6576639.484 7  -5124645.72929  24763721.040
 -13482785.200 7 -10506059.03728  25209750.158
 92  5  6  8 23  0.0130000  0  6G 3G23G17G11G21G28
   1062676.194 4    828078.97322  28401621.871
  -6749350.960 8  -5259224.25529  24875666.839
  15602422.323 7  12157749.87027  25940405.224
  -5222801.263 5  -4069713.58122  27825843.473
  -6582139.103 7  -5128931.14129  24762674.149
 -13488410.940 7 -10510442.73929  25208680.495
 92  5  6  8 23 30.0130000  0  6G 3G23G17G11G21G28
   1215955.191 4    947517.19022  28430791.969
  -6681867.022 8  -5206639.35529  24888513.532
  15697859.863 7  12232116.75026  25958565.753
  -5298534.838 5  -4128726.74324  27811430.343
  -6587315.035 7  -5132964.31129  24761696.239
 -13493442.218 7 -10514363.21329  25207724.764
 92  5  6  8 24  0.0130000  0  6G 3G23G17G11G21G28
   1369418.208 4   1067098.64722  28459992.064
  -6614069.662 8  -5153810.24529  24901415.106
  15793532.292 7  12306666.69727  25976770.361
  -5374125.354 5  -4187628.39523  27797047.508
  -6592144.375 7  -5136727.40929  24760771.674
 -13497878.164 7 -10517819.81128  25206878.149
 92  5  6  8 24 30.0130000  0  5G23G17G11G21G28
  -6545969.504 8  -5100745.18529  24914374.231
  15889438.149 7  12381398.54326  25995019.031
  -5449576.560 5  -4246421.51323  27782683.849
  -6596631.611 7  -5140223.94029  24759919.370
 -13501710.229 7 -10520805.83229  25206150.545
 92  5  6  8 25  0.0130000  0  5G23G17G11G21G28
  -6477576.627 8  -5047452.02429  24927387.627
  15985583.062 7  12456316.62725  26013318.062
  -5524873.815 5  -4305094.66724  27768357.064
  -6600752.881 7  -5143435.29629  24759130.010
 -13504910.585 7 -10523299.61828  25205543.173
 92  5  6  8 25 30.0130000  0  5G23G17G11G21G28
  -6408921.013 8  -4993954.15529  24940452.587
  16081959.733 7  12531415.33126  26031656.653
  -5600023.698 5  -4363652.97422  27754056.959
  -6604498.914 7  -5146354.25429  24758420.397
 -13507508.357 7 -10525323.85329  25205046.714
 92  5  6  8 26  0.0130000  0  5G23G17G11G21G28
  -6340014.963 8  -4940261.13229  24953566.112
  16178585.050 7  12606707.75127  26050039.340
  -5675020.542 5  -4422092.04224  27739794.931
  -6607868.056 7  -5148979.55029  24757776.152
 -13509495.735 7 -10526872.46729  25204665.374
 92  5  6  8 26 30.0130000  0  5G23G17G11G21G28
  -6270848.043 8  -4886364.83529  24966729.701
  16275482.211 6  12682212.01327  26068477.764
  -5749862.345 5  -4480410.28725  27725549.708
  -6610872.642 7  -5151320.77029  24757209.840
 -13510862.150 7 -10527937.20729  25204405.453
 92  5  6  8 27  0.0130000  0  5G23G17G11G21G28
  -6201415.400 8  -4832261.47329  24979940.353
  16372634.943 7  12757915.44226  26086976.164
  -5824554.076 5  -4538611.59323  27711332.945
  -6613526.096 7  -5153388.36429  24756702.597
 -13511631.762 7 -10528536.92029  25204258.557
 92  5  6  8 27 30.0130000  0  5G23G17G11G21G28
  -6131689.405 8  -4777929.53729  24993209.167
  16470053.184 6  12833825.74326  26105506.027
  -5899083.052 5  -4596686.09022  27697149.757
  -6615824.211 7  -5155179.09729  24756266.987
 -13511807.659 8 -10528674.04629  25204227.670
 92  5  6  8 28  0.0140000  0  5G23G17G11G21G28
  -6061665.395 8  -4723365.35529  25306327.694
  16567731.916 6  12909939.03326  26423887.730
  -5973457.290 5  -4654640.02122  27982786.023
  -6617790.054 7  -5156710.91929  25055680.811
 -13511386.207 7 -10528345.59829  25504103.785
 92  5  6  8 28 30.0140000  0  5G23G17G11G21G28
  -5991315.298 8  -4668547.10029  25019919.172
  16665682.409 7  12986264.04526  26142737.867
  -6047656.774 5  -4712457.72923  27668875.138
  -6619407.772 8  -5157971.46229  24755583.466
 -13510358.867 8 -10527545.09629  25204505.289
 92  5  6  8 29  0.0140000  0  5G23G17G11G21G28
  -5920666.385 8  -4613496.00629  25033362.471
  16763859.681 7  13062765.80225  26161415.829
  -6121685.163 6  -4770142.16522  27654790.579
  -6620690.463 7  -5158970.94429  24755341.239
 -13508751.540 7 -10526292.64429  25204805.381
 92  5  6  8 29 30.0140000  0  5G23G17G11G21G28
  -5849719.800 8  -4558212.94529  25046865.711
  16862274.010 7  13139452.29026  26180145.654
  -6195536.586 5  -4827688.69622  27640738.110
  -6621626.369 7  -5159700.19429  24755159.862
 -13506540.661 7 -10524569.86729  25205231.689
 92  5  6  8 30  0.0140000  0  5G23G17G11G21G28
  -5778502.076 8  -4502718.61329  25060416.032
  16960915.749 7  13216315.97425  26198923.170
  -6269208.593 5  -4885095.43122  27626713.824
  -6622224.739 7  -5160166.44229  24755046.243
 -13503710.441 8 -10522364.52529  25205769.208
 92  5  6  8 30 30.0140000  0  5G23G17G11G21G28
  -5707029.789 8  -4447025.93529  25074017.011
  17059772.398 6  13293347.07625  26217723.756
  -6342704.162 6  -4942364.66924  27612728.504
  -6622486.757 7  -5160370.58829  24755000.367
 -13500272.087 7 -10519685.27929  25206421.550
 92  5  6  8 31  0.0140000  0  5G23G17G11G21G28
  -5635306.545 8  -4391137.69829  25087665.978
  17158862.463 7  13370560.10525  26236587.895
  -6416014.619 5  -4999489.67124  27598781.854
  -6622395.416 7  -5160299.41329  24755009.964
 -13496200.350 7 -10516512.51229  25207193.216
 92  5  6  8 31 30.0140000  0  5G23G17G11G21G28
  -5563356.546 8  -4335072.74629  25101357.785
  17258198.220 6  13447964.54726  26255489.500
  -6489147.361 5  -5056476.21424  27584868.498
  -6621949.216 7  -5159951.69929  24755104.091
 -13491493.982 7 -10512845.21329  25208093.508
 92  5  6  8 32  0.0140000  0  5G23G17G11G21G28
  -5491175.139 8  -4278827.48629  25115095.486
  17357787.141 6  13525566.28226  26274435.480
  -6562098.869 6  -5113321.49723  27570984.809
  -6621157.490 7  -5159334.76529  24755249.800
 -13486164.751 7 -10508692.57129  25209104.992
 92  5  6  8 32 30.0140000  0  5G23G17G11G21G28
  -5418740.440 8  -4222384.88029  25128876.639
  17457649.683 6  13603381.21125  26293439.622
  -6634861.414 6  -5170019.54222  27557129.894
  -6619997.369 7  -5158430.75329  24755469.254
 -13480204.637 7 -10504048.31729  25210238.209
 92  5  6  8 33  0.0140000  0  5G23G17G11G21G28
  -5346063.651 8  -4165753.61229  25142709.357
  17557782.038 7  13681406.40325  26312494.440
  -6707442.350 5  -5226576.10723  27543323.858
  -6618481.201 7  -5157249.31329  24755758.840
 -13473629.128 8 -10498924.55929  25211493.438
 92  5  6  8 33 30.0140000  0  5G23G17G11G21G28
  -5273118.684 8  -4108913.36529  25156591.860
  17658185.019 6  13759642.48125  26331596.321
  -6779824.382 5  -5282977.64822  27529545.393
  -6616606.207 7  -5155788.26329  24756117.390
 -13466439.278 7 -10493322.08329  25212856.300
 92  5  6  8 34  0.0140000  0  5G23G17G11G21G28
  -5199896.176 8  -4051856.87529  25170521.409
  17758838.230 6  13838073.53126  26350754.548
  -6852012.488 6  -5339228.09222  27515811.007
  -6614384.573 7  -5154057.09129  24756544.309
 -13458641.182 7 -10487245.65029  25214343.268
 92  5  6  8 34 30.0140000  0  5G23G17G11G21G28
  -5126392.976 8  -3994581.68129  25184507.933
  17859734.222 7  13916693.73226  26369952.667
  -6924001.424 5  -5395323.36022  27502121.276
  -6611807.012 7  -5152048.57929  24757032.357
 -13450219.965 7 -10480683.64029  25215949.561
 92  5  6  8 35  0.0140000  0  5G23G17G11G21G28
  -5052615.657 8  -3937092.85729  25198552.008
  17960853.596 7  13995488.03725  26389195.738
  -6995789.516 6  -5451262.08522  27488459.134
  -6608894.744 7  -5149779.26329  24757586.087
 -13441182.089 7 -10473641.17429  25217668.564
 92  5  6  8 35 30.0140000  0  5G23G17G11G21G28
  -4978564.788 8  -3879390.88329  25212647.055
  18062205.258 7  14074463.32725  26408485.889
  -7067367.858 5  -5507037.36022  27474835.365
  -6605648.639 7  -5147249.82329  24758194.053
 -13431506.189 7 -10466101.50429  25219509.301
 92  5  6  8 36  0.0140000  0  5G23G17G11G21G28
  -4904260.285 8  -3821491.29229  25226780.161
  18163790.970 6  14153620.98824  26427818.008
  -7138742.715 6  -5562654.13423  27461250.266
  -6602070.953 7  -5144461.97429  24758881.487
 -13421195.648 7 -10458067.31829  25221472.642
 92  5  6  8 36 30.0140000  0  5G23G17G11G21G28
  -4829711.914 8  -3763401.65229  25240967.537
  18265621.703 6  14232969.59225  26447194.782
  -7209907.058 6  -5618106.82324  27447705.041
  -6598163.402 7  -5141417.11629  24759627.658
 -13410247.150 7 -10449536.02529  25223554.994
 92  5  6  8 37  0.0140000  0  5G23G17G11G21G28
  -4754930.688 8  -3705130.58229  25255197.788
  18367702.696 6  14312513.20225  26466617.136
  -7280853.252 6  -5673389.55023  27434206.302
  -6593917.364 7  -5138108.48929  24760434.713
 -13398663.299 7 -10440509.63129  25225755.466
 92  5  6  8 37 30.0140000  0  5G23G17G11G21G28
  -4679921.857 8  -3646682.14629  25269474.212
  18470031.987 6  14392250.27625  26486090.463
  -7351582.961 6  -5728503.58424  27420744.105
  -6589321.347 7  -5134527.15429  24761309.807
 -13386453.499 7 -10430995.52129  25228076.467
 92  5  6  8 38  0.0140000  0  5G23G17G11G21G28
  -4604686.556 8  -3588057.27229  25283786.898
  18572592.737 6  14472167.72226  26505615.040
  -7422097.652 6  -5783450.07123  27407323.300
  -6584371.317 7  -5130669.97729  24762249.955
 -13373621.373 7 -10420996.44929  25230520.370
 92  5  6  8 38 30.0140000  0  5G23G17G11G21G28
  -4529220.729 8  -3529252.71329  25298148.148
  18675370.792 6  14552254.50127  26525167.503
  -7492395.680 6  -5838227.71722  27393954.060
  -6579074.132 7  -5126542.27429  24763262.347
 -13360164.715 7 -10410510.73629  25233086.006
 92  5  6  8 39  0.0140000  0  5G23G17G11G21G28
  -4453499.787 8  -3470249.41329  25312560.074
  18778368.614 6  14632512.51026  26544765.842
  -7562461.373 6  -5892824.34524  27380619.284
  -6573411.858 7  -5122130.07729  24764335.308
 -13346080.171 7 -10399535.79229  25235762.241
 92  5  6  8 39 30.0140000  0  5G23G17G11G21G28
  -4377517.836 8  -3411042.67129  25327017.579
  18881587.670 6  14712942.90026  26564407.650
  -7632302.729 6  -5947246.13823  27367331.589
  -6567403.722 7  -5117448.41129  24765481.421
 -13331383.769 7 -10388084.02329  25238560.803
 92  5  6  8 40  0.0140000  0  5G23G17G11G21G28
  -4301258.397 8  -3351619.75729  25341528.133
  18985049.193 6  14793562.23424  26584101.006
  -7701906.132 6  -6001482.54125  27354084.064
  -6561044.423 7  -5112493.08029  24766690.180
 -13316067.159 7 -10376149.01429  25241469.998
 92  5  6  8 40 30.0140000  0  5G23G17G11G21G28
  -4224721.582 8  -3291980.66229  25356093.237
  19088766.143 6  14874380.61325  26603830.659
  -7771265.036 6  -6055528.40324  27340886.604
  -6554335.150 7  -5107265.05529  24767963.994
 -13300131.399 7 -10363731.55629  25244508.988
 92  5  6  8 41  0.0140000  0  5G23G17G11G21G28
  -4147923.252 8  -3232137.82829  25370704.827
  19192748.146 6  14955405.53625  26623616.658
  -7840382.211 6  -6109385.92424  27327728.407
  -6547277.757 7  -5101765.78029  24769305.270
 -13283582.657 7 -10350836.42529  25247658.613
 92  5  6  8 41 30.0140000  0  5G23G17G11G21G28
  -4070871.614 7  -3172097.59329  25385370.968
  19297014.216 6  15036651.77325  26643462.320
  -7909247.686 6  -6163047.31025  27314625.684
  -6539871.094 7  -5095994.33929  24770717.586
 -13266393.577 7 -10337442.33829  25250928.749
 92  5  6  8 42  0.0140000  0  5G23G17G11G21G28
  -3993574.805 8  -3111866.33129  25400078.500
  19401553.947 6  15118111.26625  26663358.936
  -7977851.149 6  -6216504.49924  27301574.806
  -6532110.757 7  -5089947.33429  24772195.567
 -13248529.745 7 -10323522.48129  25254328.086
 92  5  6  8 42 30.0140000  0  5G23G17G11G21G28
  -3916056.512 8  -3051462.46229  25414832.484
  19506351.845 6  15199771.93024  26683294.536
  -8046196.985 6  -6269760.96525  27288568.024
  -6524007.348 7  -5083632.97429  24773740.103
 -13229990.841 7 -10309076.57729  25257851.250
 92  5  6  8 43  0.0140000  0  5G23G17G11G21G28
  -3838309.096 8  -2990880.06629  25429621.841
  19611401.340 6  15281628.64225  26703294.597
  -8114276.284 6  -6322809.73624  27275609.492
  -6515557.390 7  -5077048.59529  24775347.582
 -13210773.339 7 -10294101.89529  25261509.915
 92  5  6  8 43 30.0140000  0  5G23G17G11G21G28
  -3760339.452 8  -2930124.50229  25444465.764
  19716688.587 6  15363670.64125  26723321.636
  -8182085.580 6  -6375648.08724  27262712.124
  -6506764.617 7  -5070197.06529  24777021.320
 -13190878.424 7 -10278599.36429  25265302.895
 92  5  6  8 44  0.0140000  0  5G23G17G11G21G28
  -3682142.764 8  -2869192.01229  25459343.872
  19822205.897 6  15445891.86324  26743397.832
  -8249620.259 6  -6428272.48724  27249854.926
  -6497617.058 7  -5063069.10629  24778760.426
 -13170326.053 7 -10262584.53629  25269204.694
 92  5  6  8 44 30.0140000  0  5G23G17G11G21G28
  -3603703.086 8  -2808070.19429  25474268.729
  19927962.403 6  15528299.48325  26763525.000
  -8316870.786 6  -6480675.45524  27237061.578
  -6488092.826 7  -5055647.61429  24780574.463
 -13149129.110 8 -10246067.44629  25273246.199
 92  5  6  8 45  0.0140000  0  5G23G17G11G21G28
  -3525014.453 8  -2746754.37229  25489240.073
  20033953.488 6  15610889.91425  26783700.733
  -8383842.044 6  -6532860.80824  27224310.808
  -6478198.086 7  -5047937.42429  24782454.166
 -13127291.512 7 -10229051.12629  25277397.728
 92  5  6  8 45 30.0140000  0  5G23G17G11G21G28
  -3446070.144 8  -2685239.33029  25504267.468
  20140187.306 6  15693669.50125  26803911.540
  -8450527.706 6  -6584823.62623  27211631.375
  -6467926.078 7  -5039933.25829  24784407.020
 -13104801.083 8 -10211526.14229  25281676.364
 92  5  6  8 46  0.0140000  0  5G23G17G11G21G28
  -3366839.693 8  -2623501.30029  25519343.426
  20246672.141 6  15776644.65124  26824172.412
  -8516913.467 6  -6636552.75424  27198995.132
  -6457267.944 7  -5031628.22529  24786438.714
 -13081645.306 7 -10193482.66329  25286082.405
 92  5  6  8 46 30.0140000  0  5G23G17G11G21G28
  -3287328.048 8  -2561544.18429  25534472.748
  20353416.098 6  15859821.73125  26844484.256
  -8582998.144 6  -6688047.25824  27186409.546
  -6446237.743 7  -5023033.25829  24788533.961
 -13057817.313 7 -10174915.42129  25290618.571
 92  5  6  8 47  0.0140000  0  5G23G17G11G21G28
  -3207560.616 8  -2499387.73229  25549648.539
  20460411.021 6  15943194.35424  26864846.758
  -8648787.668 6  -6739311.80825  27173898.595
  -6434858.285 7  -5014166.15629  24790705.658
 -13033333.081 8 -10155836.80629  25295276.436
 92  5  6  8 47 30.0140000  0  5G23G17G11G21G28
  -3127555.311 8  -2437045.93729  25564876.506
  20567659.489 6  16026764.55226  26885258.731
  -8714281.202 6  -6790345.70424  27161430.537
  -6423123.430 7  -5005022.12029  24792934.016
 -13008203.438 7 -10136255.27529  25300059.331
 92  5  6  8 48  0.0140000  0  5G23G17G11G21G28
  -3047320.729 8  -2374525.48129  25580142.829
  20675175.019 6  16110542.87326  26905722.549
  -8779474.697 6  -6841145.81525  27149024.514
  -6411035.303 7  -4995602.81229  24795239.120
 -12982442.111 8 -10116181.52529  25304964.535
 92  5  6  8 48 30.0140000  0  5G23G17G11G21G28
  -2966860.367 8  -2311829.08429  25595456.233
  20782965.294 6  16194535.26424  26926231.057
  -8844360.149 6  -6891705.88324  27136678.170
  -6398596.104 7  -4985909.97529  24797605.370
 -12956039.151 7 -10095607.78729  25309983.671
 92  5  6  8 49  0.0140000  0  5G23G17G11G21G28
  -2886167.391 8  -2248951.42629  25610816.700
  20891012.563 6  16278727.96223  26946785.425
  -8908936.016 6  -6942024.71625  27124391.769
  -6385809.284 7  -4975946.23129  24800034.597
 -12928991.783 7 -10074531.95529  25315131.398
 92  5  6  8 49 30.0140000  0  5G23G17G11G21G28
  -2805237.096 8  -2185888.86929  25626213.149
  20999307.957 6  16363113.94624  26967395.266
  -8973206.410 6  -6992105.51125  27112161.138
  -6372684.756 7  -4965719.33629  24802535.458
 -12901290.745 8 -10052946.72229  25320407.454
 92  5  6  8 50  0.0140000  0  5G23G17G11G21G28
  -2724057.918 8  -2122632.37429  25641655.144
  21107836.515 6  16447681.61623  26988042.573
  -9037161.593 6  -7041940.70525  27099986.872
  -6359232.990 8  -4955237.45129  24805094.794
 -12872913.251 7 -10030834.41029  25325799.816
 92  5  6  8 50 30.0140000  0  5G23G17G11G21G28
  -2642626.896 8  -2059179.62229  25657155.928
  21216579.060 6  16532416.04725  27008739.631
  -9100799.456 6  -7091528.62025  27087883.348
  -6345443.161 7  -4944492.13229  24807720.964
 -12843845.876 8 -10008184.50329  25331341.185
 92  5  6  8 51  0.0140000  0  5G23G17G11G21G28
  -2560961.883 8  -1995544.53429  25672697.755
  21325542.419 6  16617322.52224  27029478.377
  -9164117.399 6  -7140867.27125  27075836.189
  -6331292.178 7  -4933465.41029  24810406.815
 -12814092.081 7  -9984999.73829  25336992.263
 92  5  6  8 51 30.0140000  0  5G23G17G11G21G28
  -2479076.555 8  -1931737.77829  25688276.768
  21434740.749 6  16702412.10724  27050261.796
  -9227111.916 6  -7189953.90625  27063846.284
  -6316761.815 7  -4922143.06229  24813172.395
 -12783655.724 7  -9961283.12129  25342791.145
 92  5  6  8 52  0.0140000  0  5G23G17G11G21G28
  -2396981.350 8  -1867767.49529  25703898.063
  21544176.400 6  16787686.58123  27071075.490
  -9289781.712 7  -7238787.49026  27051925.342
  -6301842.512 7  -4910517.63529  24816014.128
 -12752544.743 8  -9937040.80329  25348714.150
 92  5  6  8 52 30.0140000  0  5G23G17G11G21G28
  -2314681.657 8  -1803637.84129  25719561.623
  21653865.726 6  16873158.79324  27091961.429
  -9352122.118 7  -7287364.41126  27040060.154
  -6286516.553 7  -4898575.34829  24818925.121
 -12720772.321 7  -9912283.08929  25354752.275
 92  5  6  8 53  0.0140000  0  5G23G17G11G21G28
  -2232179.812 8  -1739350.66929  25735262.945
  21763825.476 6  16958841.67924  27112885.444
  -9414128.908 6  -7335681.38325  27028260.020
  -6270806.902 7  -4886334.06329  24821920.346
 -12688338.843 7  -9887010.27529  25360925.603
 92  5  6  8 53 30.0140000  0  5G23G17G11G21G28
  -2149461.066 8  -1674894.49129  25751001.157
  21874049.406 6  17044730.41925  27133850.223
  -9475797.965 6  -7383735.16726  27016521.957
  -6254740.163 7  -4873814.53129  24824980.329
 -12655245.101 7  -9861222.96129  25367223.928
 92  5  6  8 54  0.0150000  0  5G23G17G11G21G28
  -2066514.655 8  -1610260.94129  25766788.215
  21984532.938 6  17130821.48423  27154878.576
  -9537130.039 6  -7431526.38025  27004850.137
  -6238343.012 8  -4861037.52529  24828099.960
 -12621485.860 7  -9834917.05529  25373644.599
 92  5  6  8 54 30.0150000  0  5G23G17G11G21G28
  -1983318.941 8  -1545433.10229  25782620.257
  22095273.345 6  17217112.66123  27175949.173
  -9598105.631 6  -7479039.80825  26993249.058
  -6221623.917 7  -4848009.65029  24831276.266
 -12587062.160 8  -9808093.40729  25380201.658
 92  5  6  8 55  0.0150000  0  5G23G17G11G21G28
  -1899863.832 8  -1480403.12429  25798501.176
  22206263.813 6  17303598.73524  27197071.964
  -9658726.577 6  -7526276.89524  26981707.048
  -6204594.532 7  -4834740.00529  24834520.017
 -12551973.008 7  -9780751.21829  25386881.322
 92  5  6  8 55 30.0150000  0  5G23G17G11G21G28
  -1816156.739 8  -1415176.81629  25814427.048
  22317484.766 6  17390264.39024  27218238.205
  -9718998.687 6  -7573242.14523  26970240.283
  -6187233.666 7  -4821212.05129  24837827.322
 -12516236.549 7  -9752904.64429  25393675.530
 92  5  6  8 56  0.0150000  0  5G23G17G11G21G28
  -1732203.065 8  -1349758.36429  25830402.077
  22428932.007 6  17477106.38024  27239436.538
  -9778921.887 6  -7619935.53925  26958834.384
  -6169534.058 7  -4807420.15729  24841190.101
 -12479853.819 7  -9724554.47729  25400602.236
 92  5  6  8 56 30.0150000  0  5G23G17G11G21G28
  -1648023.168 8  -1284163.64628  25846421.202
  22540600.032 6  17564120.41324  27260690.921
  -9838499.701 7  -7666359.80224  26947502.527
  -6151476.410 7  -4793349.24729  24844629.312
 -12442837.629 7  -9695710.72029  25407648.547
 92  5  6  8 57  0.0150000  0  5G23G17G11G21G28
  -1563633.905 8  -1218405.76529  25862483.778
  22652499.811 6  17651315.00724  27281989.679
  -9897725.592 6  -7712509.80825  26936233.630
  -6133038.084 7  -4778981.71029  24848133.892
 -12405174.706 7  -9666363.01229  25414813.886
 92  5  6  8 57 30.0150000  0  5G23G17G11G21G28
  -1479054.701 8  -1152499.91029  25878577.835
  22764638.962 6  17738696.11525  27303328.591
  -9956594.378 6  -7758381.58226  26925030.084
  -6114225.248 7  -4764322.33529  24851716.422
 -12366871.203 7  -9636516.12629  25422102.737
 92  5  6  8 58  0.0150000  0  5G23G17G11G21G28
  -1394290.643 8  -1086449.98129  25894707.560
  22877020.296 6  17826265.98225  27324714.600
 -10015097.569 7  -7803968.46225  26913901.487
  -6095053.692 7  -4749383.44629  24855365.192
 -12327907.260 8  -9606154.61329  25429517.806
 92  5  6  8 58 30.0150000  0  5G23G17G11G21G28
  -1309340.738 8  -1020255.26527  25910872.377
  22989640.782 6  17914022.17124  27346143.154
 -10073232.654 7  -7849268.50625  26902835.257
  -6075523.992 7  -4734165.47829  24859077.813
 -12288284.738 7  -9575279.95429  25437057.294
 92  5  6  8 59  0.0150000  0  5G23G17G11G21G28
  -1224202.820 7   -953914.03929  25927067.767
  23102504.359 6  18001967.75924  27367621.492
 -10130994.025 7  -7894277.35326  26891841.567
  -6055656.940 7  -4718684.63929  24862865.104
 -12248000.224 7  -9543889.44728  25444720.592
 92  5  6  8 59 30.0150000  0  5G23G17G11G21G28
  -1138875.760 8   -887425.40229  25943309.627
  23215604.302 6  18090097.59224  27389134.295
 -10188384.615 7  -7938997.29226  26880924.031
  -6035466.979 7  -4702952.18029  24866705.740
 -12207050.709 7  -9511980.72229  25452512.795
 92  5  6  9  0  0.0150000  0  5G23G17G11G21G28
  -1053331.504 7   -820767.55329  25959585.655
  23328932.780 6  18178405.48425  27410715.154
 -10245403.559 7  -7983427.61226  26870072.438
  -6014946.741 8  -4686962.36729  24870611.430
 -12165423.192 7  -9479543.73129  25460434.810
 92  5  6  9  0 30.0150000  0  5G23G17G11G21G28
   -967556.168 7   -753929.63629  25975909.356
  23442492.677 6  18266893.64625  27432318.506
 -10302047.039 7  -8027565.37826  26859294.905
  -5994093.104 7  -4670712.76329  24874578.580
 -12123133.563 7  -9446590.77729  25468481.245
 92  5  6  9  1  0.0150000  0  5G23G17G11G21G28
   -881556.311 8   -686916.77529  25992273.525
  23556281.912 5  18355560.56324  27453974.017
 -10358312.999 7  -8071408.95025  26848586.910
  -5972904.471 8  -4654202.13229  24878611.395
 -12080180.775 7  -9413121.09529  25476658.068
 92  5  6  9  1 30.0150000  0  5G23G17G11G21G28
   -795312.758 8   -619713.98229  26008690.759
  23670296.303 5  18444402.94924  27475670.292
 -10414193.836 7  -8114952.44825  26837949.676
  -5951364.246 7  -4637417.52929  24882710.451
 -12036554.519 7  -9379126.59029  25484958.125
 92  5  6  9  2  0.0150000  0  5G23G17G11G21G28
   -708834.800 8   -552328.56529  26025145.163
  23784534.472 6  18533419.65024  27497412.739
 -10469685.572 7  -8158192.75026  26827390.986
  -5929468.274 7  -4620355.72129  24886876.080
 -11992276.460 7  -9344624.19929  25493385.288
 92  5  6  9  2 30.0150000  0  5G23G17G11G21G28
   -622146.910 7   -484779.57129  26041637.957
  23898999.785 6  18622613.39323  27519191.466
 -10524784.385 7  -8201126.88426  26816907.540
  -5907220.993 8  -4603020.17429  24891109.136
 -11947352.928 7  -9309618.86929  25501934.482
 92  5  6  9  3  0.0150000  0  5G23G17G11G21G28
   -535257.180 7   -417073.29329  26058174.795
  24013706.576 6  18711995.28725  27541019.054
 -10579481.553 7  -8243748.04125  26806494.856
  -5884615.903 7  -4585405.81229  24895409.969
 -11901775.509 7  -9274104.03029  25510601.185
 92  5  6  9  3 30.0150000  0  5G23G17G11G21G28
   -448174.675 7   -349216.81329  26074746.430
  24128665.481 6  18801573.60923  27562890.406
 -10633774.441 7  -8286054.17626  26796164.310
  -5861655.678 7  -4567514.70729  24899778.248
 -11855551.745 8  -9238085.49728  25519405.483
 92  5  6  9  4  0.0150000  0  5G23G17G11G21G28
   -360909.895 7   -281218.27628  26091352.231
  24243879.804 5  18891350.95723  27584821.421
 -10687654.989 7  -8328039.01426  26785916.495
  -5838345.735 7  -4549351.11129  24904216.361
 -11808683.953 7  -9201565.12929  25528320.712
 92  5  6  9  4 30.0150000  0  5G23G17G11G21G28
   -273453.610 7   -213070.53529  26107994.312
  24359344.730 5  18981323.61624  27606782.415
 -10741121.137 7  -8369700.94326  26775743.943
  -5814690.108 7  -4530918.13929  24908711.764
 -11761156.847 7  -9164531.03629  25537363.955
 92  5  6  9  5  0.0150000  0  5G23G17G11G21G28
   -185822.169 7   -144786.29929  26124667.873
  24475045.810 5  19071480.25623  27628809.371
 -10794185.122 7  -8411049.50727  26765648.119
  -5790697.166 7  -4512222.33529  24913280.301
 -11712986.533 7  -9126995.77229  25546536.401
 92  5  6  9  5 30.0150000  0  5G23G17G11G21G28
    -98009.619 7    -76360.94029  26141379.196
  24590970.235 6  19161810.98222  27650875.591
 -10846838.993 7  -8452078.48727  26755623.370
  -5766368.509 7  -4493264.94529  24917910.891
 -11664161.236 7  -9088950.08228  25555820.667
 92  5  6  9  6  0.0150000  0  5G23G17G11G21G28
     -9996.914 7     -7779.63329  26158125.908
  24707103.958 6  19252304.75523  27672970.603
 -10899075.553 7  -8492782.31027  26745681.057
  -5741703.671 8  -4474045.58429  24922605.645
 -11614673.586 7  -9050388.25929  25565235.949
 92  5  6  9  6 30.0150000  0  5G23G17G11G21G28
     78208.807 8     60952.08529  26174914.588
  24823440.333 5  19342956.44724  27695103.970
 -10950898.529 7  -8533163.84326  26735820.881
  -5716701.081 7  -4454563.03429  24927363.342
 -11564529.597 7  -9011315.04729  25574782.841
 92  5  6  9  7  0.0150000  0  5G23G17G11G21G28
    166602.474 7    129830.26029  26191735.045
  24939985.470 5  19433770.84123  27717287.420
 -11002297.604 7  -8573215.06727  26726040.749
  -5691348.110 8  -4434807.45729  24932189.410
 -11513729.077 7  -8971730.24729  25584448.761
 92  5  6  9  7 30.0150000  0  5G23G17G11G21G28
    255195.104 8    198863.45629  26208594.172
  25056736.393 5  19524745.51024  27739504.740
 -11053266.846 7  -8612931.36827  26716340.958
  -5665654.901 7  -4414786.76229  24937079.013
 -11462274.056 7  -8931635.43229  25594237.583
 92  5  6  9  8  0.0150000  0  5G23G17G11G21G28
    343991.732 7    268055.62229  26225490.170
  25173702.087 6  19615887.57824  27761766.734
 -11103802.746 7  -8652309.99927  26706728.122
  -5639611.462 8  -4394493.18029  24942033.688
 -11410169.300 7  -8891034.36029  25604158.311
 92  5  6  9  8 30.0150000  0  5G23G17G11G21G28
    432972.079 7    337390.95429  26242423.652
  25290895.613 6  19707207.15924  27784057.799
 -11153909.084 7  -8691353.90626  26697190.828
  -5613225.552 7  -4373932.73129  24947056.105
 -11357424.475 7  -8849934.50129  25614192.064
 92  5  6  9  9  0.0150000  0  5G23G17G11G21G28
    522134.802 7    406868.36628  26259390.394
  25408319.825 5  19798706.53724  27806401.337
 -11203586.553 7  -8730063.62226  26687731.466
  -5586509.344 7  -4353114.90429  24952141.797
 -11304036.409 7  -8808333.42429  25624354.425
 92  5  6  9  9 30.0150000  0  5G23G17G11G21G28
    611495.402 7    476500.00828  26276397.621
  25525979.241 5  19890389.15324  27828785.028
 -11252830.335 7  -8768435.39627  26678364.451
  -5559476.786 7  -4332050.57429  24957279.943
 -11250006.464 7  -8766232.16229  25634631.312
 92  5  6  9 10  0.0150000  0  5G23G17G11G21G28
    701044.323 8    546278.35829  26293438.125
  25643877.213 6  19982257.67924  27851238.293
 -11301635.602 7  -8806465.48526  26669079.574
  -5532123.354 7  -4310736.20629  24962487.036
 -11195336.475 8  -8723632.20229  25645039.215
 92  5  6  9 10 30.0150000  0  5G23G17G11G21G28
    790775.408 8    616198.65928  26310509.813
  25762005.838 6  20074305.92923  27873713.126
 -11350000.733 7  -8844152.59527  26659874.759
  -5504450.348 7  -4289172.80929  24967749.289
 -11140029.409 7  -8680535.80029  25655559.533
 92  5  6  9 11  0.0150000  0  5G23G17G11G21G28
    880695.919 8    686266.55628  26327621.967
  25880345.108 5  20166518.32624  27896220.347
 -11397919.859 7  -8881492.17926  26650749.673
  -5476449.440 8  -4267353.91429  24973081.395
 -11084086.600 7  -8636944.04729  25666208.458
 92  5  6  9 11 30.0150000  0  5G23G17G11G21G28
    970809.986 8    756485.29929  26344774.292
  25998882.626 5  20258885.22823  27918770.129
 -11445390.673 7  -8918482.40727  26641723.217
  -5448114.781 8  -4245274.94429  24978472.866
 -11027525.773 8  -8592870.69129  25676968.908
 92  5  6  9 12  0.0150000  0  5G23G17G11G21G28
   1061112.661 8    826850.99828  26361957.801
  26117618.268 5  20351406.47823  27941375.996
 -11492407.542 7  -8955118.94826  26632769.021
  -5419425.961 8  -4222920.03229  24983932.080
 -10970332.517 7  -8548304.49329  25687851.963
 92  5  6  9 12 30.0150000  0  5G23G17G11G21G28
   1151615.859 7    897372.97728  26379179.979
  26236542.228 6  20444074.48923  27964016.607
 -11538969.831 7  -8991401.23426  26623914.955
  -5390376.485 8  -4200284.06329  24989461.460
 -10912498.606 7  -8503239.12829  25698854.657
 92  5  6  9 13  0.0150000  0  5G23G17G11G21G28
   1242306.100 8    968040.70028  26396433.324
  26355647.971 6  20536884.12224  27986681.229
 -11585081.516 7  -9027332.43627  26615140.619
  -5360984.616 7  -4177381.30229  24995052.283
 -10854037.955 7  -8457685.40829  25709983.551
 92  5  6  9 13 30.0150000  0  6G23G17G11G21G12G28
   1333187.233 7   1038857.16728  26413720.260
  26474954.458 6  20629850.16325  28009387.505
 -11630734.720 7  -9062906.33227  26606451.737
  -5331256.263 7  -4154216.33929  25000711.162
    -11550.97314     -9014.22221  29192511.238
 -10794939.751 8  -8411634.88929  25721226.360
 92  5  6  9 14  0.0150000  0  6G23G17G11G21G12G28
   1424242.965 7   1109809.65728  26431053.055
  26594460.590 5  20722971.76023  28032123.463
 -11675931.003 7  -9098124.22227  26597851.589
  -5301197.493 7  -4130793.91729  25006428.813
    -42750.843 5    -33325.71022  29186562.162
 -10735198.197 8  -8365083.03729  25732601.686
 92  5  6  9 14 30.0150000  0  6G23G17G11G21G12G28
   1515466.111 7   1180892.64529  26448417.034
  26714173.243 5  20816254.35723  28054910.690
 -11720664.592 7  -9132981.57027  26589337.785
  -5270815.782 7  -4107119.84829  25012211.798
    -73515.671 4    -57298.26721  29180706.916
 -10674825.476 7  -8318039.36129  25744091.240
 92  5  6  9 15  0.0150000  0  6G23G17G11G21G12G28
   1606847.409 7   1252098.84228  26465801.412
  26834119.672 6  20909719.04123  28077727.897
 -11764926.896 7  -9167471.67527  26580922.313
  -5240113.650 7  -4083196.10829  25018049.960
   -103837.067 4    -80925.31922  29174943.109
 -10613820.270 7  -8270502.84428  25755700.696
 92  5  6  9 15 30.0150000  0  6G23G17G11G21G12G28
   1698384.479 7   1323426.42828  26483222.645
  26954299.182 5  21003365.36123  28100593.668
 -11808726.743 7  -9201601.41726  26572583.883
  -5209090.296 7  -4059022.05029  25023958.866
   -133723.688 4   -104213.64822  29169257.845
 -10552181.981 7  -8222473.05327  25767422.583
 92  5  6  9 16  0.0150000  0  6G23G17G11G21G12G28
   1790077.976 8   1394875.87428  26500673.264
  27074710.553 5  21097192.34922  28123511.300
 -11852061.382 7  -9235368.66726  26564333.892
  -5177734.553 7  -4034588.99829  25029926.840
   -163172.806 4   -127160.89622  29163653.219
 -10489917.252 8  -8173955.08429  25779274.579
 92  5  6  9 16 30.0150000  0  6G23G17G11G21G12G28
   1881933.319 7   1466451.43828  26518150.268
  27195344.233 5  21191192.61723  28146456.522
 -11894929.797 7  -9268772.63925  26556178.044
  -5146046.242 7  -4009896.80329  25035955.367
   -192182.916 4   -149766.16322  29158129.545
 -10427031.960 7  -8124953.57429  25791241.991
 92  5  6  9 17  0.0150000  0  6G23G17G11G21G12G28
   1973961.865 8   1538161.98428  26535665.348
  27316194.036 5  21285361.26223  28169465.890
 -11937330.900 7  -9301812.46426  26548107.632
  -5114025.639 7  -3984945.67229  25042051.356
   -220753.141 4   -172028.66322  29152699.404
 -10363523.053 7  -8075466.15329  25803325.132
 92  5  6  9 17 30.0150000  0  6G23G17G11G21G12G28
   2066154.512 8   1610000.37827  26553209.797
  27437235.292 5  21379679.07022  28192497.438
 -11979262.548 7  -9334486.46226  26540132.848
  -5081672.171 7  -3959735.17729  25048204.896
   -248881.444 5   -193946.77122  29147356.199
 -10299405.029 7  -8025504.09528  25815527.877
 92  5  6  9 18  0.0150000  0  6G23G17G11G21G12G28
   2158489.363 7   1681949.61927  26570780.630
  27558443.416 5  21474126.91023  28215566.469
 -12020724.425 7  -9366794.42827  26532237.514
  -5049003.198 7  -3934278.84529  25054421.083
   -276567.279 4   -215520.15223  29142073.565
 -10234691.439 8  -7975077.92629  25827842.165
 92  5  6  9 18 30.0150000  0  6G23G17G11G21G12G28
   2250952.622 7   1753998.88228  26588375.755
  27679814.869 5  21568702.04123  28238657.679
 -12061715.126 7  -9398735.24127  26524441.420
  -5016032.548 7  -3908587.42229  25060694.541
   -303809.095 4   -236747.54723  29136902.140
 -10169386.868 8  -7924191.25427  25840269.459
 92  5  6  9 19  0.0160000  0  6G23G17G11G21G12G28
   2343557.181 7   1826158.29626  26605989.763
  27801376.558 6  21663425.42123  28261796.270
 -12102219.374 7  -9430296.98927  26516732.842
  -4982753.789 7  -3882655.93829  25067027.664
   -330591.317 4   -257616.75122  29131801.776
 -10103485.098 7  -7872839.21927  25852809.468
 92  5  6  9 19 30.0160000  0  6G23G17G11G21G12G28
   2436290.310 7   1898417.87727  26623636.436
  27923104.890 5  21758278.64922  28284958.223
 -12142239.555 7  -9461481.53526  26509114.827
  -4949186.336 7  -3856499.47129  25073416.241
   -356917.117 4   -278130.30822  29126785.048
 -10036998.986 7  -7821031.90328  25865453.512
 92  5  6  9 20  0.0160000  0  6G23G17G11G21G12G28
   2529178.863 7   1970798.55627  26641316.403
  28045008.215 5  21853268.22423  28308150.470
 -12181772.938 7  -9492286.76427  26501588.531
  -4915327.544 8  -3830116.00029  25079861.479
   -382783.331 5   -298285.79422  29121859.759
  -9969910.377 7  -7768755.09829  25878224.384
 92  5  6  9 20 30.0160000  0  6G23G17G11G21G12G28
   2622245.818 6   2043318.25428  26659023.034
  28167106.558 5  21948409.74024  28331382.590
 -12220810.928 7  -9522705.96528  26494168.367
  -4881158.955 7  -3803491.11029  25086361.266
   -408181.436 4   -318076.51923  29117026.206
  -9902212.803 8  -7716003.77528  25891111.858
 92  5  6  9 21  0.0160000  0  6G23G17G11G21G12G28
   2715499.003 7   2115983.07328  26676775.856
  28289390.666 5  22043696.00124  28354653.974
 -12259352.711 7  -9552738.50726  26486831.545
  -4846674.143 7  -3776619.82329  25092922.234
   -433110.340 3   -337501.64623  29112283.778
  -9833899.946 8  -7662772.98229  25904109.653
 92  5  6  9 21 30.0160000  0  6G23G17G11G21G12G28
   2808940.085 6   2188794.31928  26694555.639
  28411861.311 6  22139127.63923  28377958.652
 -12297391.374 7  -9582379.01926  26479591.868
  -4811865.445 7  -3749496.14729  25099547.942
   -457563.280 5   -356555.86021  29107635.807
  -9764959.240 7  -7609052.98529  25917227.976
 92  5  6  9 22  0.0160000  0  6G23G17G11G21G12G28
   2902558.127 7   2261743.43428  26712365.418
  28534522.706 5  22234707.89423  28401307.689
 -12334928.063 7  -9611628.38626  26472444.800
  -4776729.218 8  -3722117.25829  25106237.518
   -481541.574 5   -375240.22322  29103076.851
  -9695405.997 7  -7554855.68728  25930469.202
 92  5  6  9 22 30.0160000  0  6G23G17G11G21G12G28
   2996328.521 7   2334811.25027  26730215.351
  28657366.624 5  22330430.42123  28424682.797
 -12371968.104 7  -9640490.74426  26465400.287
  -4741278.569 7  -3694493.37229  25112978.345
   -505050.223 5   -393558.61822  29098596.769
  -9625270.921 8  -7500205.01228  25943816.577
 92  5  6  9 23  0.0160000  0  6G23G17G11G21G12G28
   3090242.849 7   2407991.26627  26748083.588
  28780393.289 5  22426295.27622  28448089.699
 -12408502.172 7  -9668958.85025  26458448.103
  -4705521.515 7  -3666630.72629  25119782.743
   -528080.341 4   -411504.15222  29094217.393
  -9554559.924 8  -7445105.55128  25957268.566
 92  5  6  9 23 30.0160000  0  6G23G17G11G21G12G28
   3184295.354 7   2481278.90026  26765986.290
  28903620.847 5  22522316.75723  28471545.165
 -12444519.198 7  -9697024.05727  26451591.546
  -4669460.888 7  -3638531.51729  25126648.584
   -550620.262 5   -429067.78221  29089927.065
  -9483276.700 7  -7389560.18728  25970829.671
 92  5  6  9 24  0.0160000  0  6G23G17G11G21G12G28
   3278475.109 7   2554665.70527  26783907.280
  29027040.679 5  22618488.01723  28495031.796
 -12480019.552 7  -9724686.66426  26444839.027
  -4633105.132 7  -3610202.33829  25133563.896
   -572670.759 5   -446249.97521  29085734.161
  -9411429.762 7  -7333575.54428  25984505.302
 92  5  6  9 24 30.0160000  0  6G23G17G11G21G12G28
   3372774.174 7   2628145.48425  26801849.559
  29150653.261 5  22714809.41122  28518541.533
 -12514998.900 7  -9751943.29726  26438180.634
  -4596455.720 7  -3581644.34529  25140539.463
   -594227.648 5   -463047.49821  29081635.105
  -9339006.308 7  -7277141.72427  25998283.156
 92  5  6  9 25  0.0160000  0  6G23G17G11G21G12G28
   3467192.068 7   2701717.86726  26819818.223
  29274471.023 5  22811290.75323  28542112.100
 -12549457.562 7  -9778794.19127  26431620.871
  -4559510.685 7  -3552855.98629  25147569.301
   -615291.109 5   -479460.57023  29077622.079
  -9265987.718 7  -7220244.14329  26012181.539
 92  5  6  9 25 30.0160000  0  6G23G17G11G21G12G28
   3561745.227 7   2775395.62726  26837809.973
  29398489.729 5  22907928.64023  28565708.476
 -12583388.993 7  -9805234.26127  26425170.537
  -4522250.093 7  -3523821.77129  25154659.691
   -635854.817 5   -495484.26121  29073705.290
  -9192349.509 7  -7162863.74829  26026190.835
 92  5  6  9 26  0.0160000  0  6G23G17G11G21G12G28
   3656452.804 7   2849193.72126  26855833.500
  29522704.584 4  23004719.35624  28589351.899
 -12616787.758 7  -9831259.27527  26418812.236
  -4484660.945 7  -3494531.52529  25161814.542
   -655913.176 5   -511114.16521  29069888.927
  -9118085.460 7  -7104995.65729  26040327.257
 92  5  6  9 26 30.0160000  0  6G23G17G11G21G12G28
   3751319.642 7   2923115.92826  26873885.489
  29647121.445 5  23101667.50022  28613023.224
 -12649657.055 7  -9856871.72027  26412558.864
  -4446736.274 7  -3464979.84329  25169029.649
   -675469.528 5   -526352.84422  29066163.114
  -9043211.622 7  -7046652.44027  26054571.887
 92  5  6  9 27  0.0160000  0  6G23G17G11G21G12G28
   3846350.827 7   2997166.17427  26891968.381
  29771719.521 4  23198756.89123  28636734.702
 -12681999.786 7  -9882073.86027  26406401.729
  -4408477.034 7  -3435167.41729  25176309.496
   -694526.727 5   -541202.63222  29062541.321
  -8967740.708 7  -6987843.98228  26068935.545
 92  5  6  9 27 30.0160000  0  6G23G17G11G21G12G28
   3941555.886 7   3071351.91327  26910082.440
  29896491.494 4  23295981.76822  28660473.768
 -12713800.927 7  -9906853.96727  26400347.428
  -4369877.635 8  -3405089.96229  25183655.322
   -713069.968 5   -555651.90022  29059008.263
  -8891679.845 7  -6928575.81828  26083404.131
 92  5  6  9 28  0.0160000  0  6G23G17G11G21G12G28
   4036922.646 7   3145663.66826  26928233.668
  30021439.006 4  23393343.39122  28684255.710
 -12745061.488 7  -9931212.86827  26394405.228
  -4330956.968 8  -3374762.15929  25191060.496
   -731100.441 4   -569701.56321  29055579.243
  -8815054.907 7  -6868868.08028  26097982.148
 92  5  6  9 28 30.0160000  0  6G23G17G11G21G12G28
   4132439.322 7   3220092.21226  26946410.094
  30146552.375 4  23490834.31322  28708073.617
 -12775773.319 7  -9955144.15427  26388561.080
  -4291712.843 7  -3344182.32929  25198527.130
   -748609.731 5   -583345.13524  29052249.148
  -8737862.910 8  -6808718.46427  26112683.067
 92  5  6  9 29  0.0160000  0  6G23G17G11G21G12G28
   4228087.273 7   3294623.04127  26964608.682
  30271812.585 3  23588439.57922  28731893.322
 -12805941.702 7  -9978651.98527  26382811.966
  -4252174.317 8  -3313373.09229  25206053.409
   -765603.507 5   -596587.02822  29049009.288
  -8660104.936 7  -6748127.83227  26127479.019
 92  5  6  9 29 30.0160000  0  6G23G17G11G21G12G28
   4323871.854 7   3369260.37127  26982839.064
  30397236.083 4  23686172.17622  28755755.308
 -12835555.494 7 -10001727.67027  26377178.565
  -4212334.170 8  -3282328.81129  25213633.365
   -782070.576 4   -609418.45821  29045873.467
  -8581779.155 7  -6687094.80828  26142381.104
 92  5  6  9 30  0.0160000  0  6G23G17G11G21G12G28
   4419791.108 7   3444002.57727  27001092.829
  30522828.447 4  23784036.25822  28779671.250
 -12864614.219 7 -10024370.84327  26371650.091
  -4172183.728 8  -3251042.77329  25221273.873
   -798010.665 5   -621839.31121  29042853.951
  -8502874.054 7  -6625610.37627  26157399.808
 92  5  6  9 30 30.0160000  0  6G23G17G11G21G12G28
   4515850.927 7   3518854.39626  27019369.978
  30648595.981 4  23882036.87323  28803587.489
 -12893118.656 7 -10046582.07627  26366224.749
  -4131714.271 8  -3219508.08429  25228977.638
   -813424.560 4   -633850.11321  29039906.399
  -8423382.262 7  -6563668.72727  26172521.032
 92  5  6  9 31  0.0160000  0  6G23G17G11G21G12G28
   4612064.283 7   3593825.79828  27037679.811
  30774557.219 4  23980188.43122  28827562.500
 -12921065.607 7 -10068358.91427  26360909.430
  -4090918.484 8  -3187719.17629  25236737.767
   -828309.225 3   -645448.54122  29037059.868
  -8343304.886 6  -6501270.77628  26187762.192
 92  5  6  9 31 30.0160000  0  6G23G17G11G21G12G28
   4708424.311 7   3668911.49127  27056014.214
  30900705.940 5  24078486.03322  28851581.259
 -12948454.133 7 -10089700.63228  26355699.336
  -4049780.504 8  -3155663.60629  25244565.952
   -842663.948 4   -656634.06723  29034343.741
  -8262644.604 7  -6438418.66028  26203108.873
 92  5  6  9 32  0.0160000  0  6G23G17G11G21G12G28
   4804924.923 7   3744106.74427  27074383.395
  31027041.623 4  24176929.36822  28875601.239
 -12975284.902 7 -10110607.72827  26350594.763
  -4008313.723 8  -3123351.80929  25252455.283
   -856489.437 5   -667407.14122  29031724.149
  -8181407.677 7  -6375117.21328  26218570.953
 92  5  6  9 32 30.0160000  0  6G23G17G11G21G12G28
   4901562.319 7   3819408.60027  27092766.362
  31153556.404 5  24275512.27723  28899691.352
 -13001553.936 7 -10131077.10327  26345592.117
  -3966534.067 8  -3090796.21829  25260409.686
   -869781.646 4   -677764.69921  29029202.000
  -8099610.240 7  -6311379.00628  26234135.884
 92  5  6  9 33  0.0160000  0  6G23G17G11G21G12G28
   4998310.064 7   3894796.44627  27111178.418
  31280222.633 5  24374213.12421  28923791.673
 -13027268.308 7 -10151114.28027  26340701.013
  -3924471.153 8  -3058019.90729  25268413.245
   -882548.055 3   -687712.50522  29026760.784
  -8017276.449 7  -6247222.84328  26249801.241
 92  5  6  9 33 30.0160000  0  6G23G17G11G21G12G28
   5095168.686 7   3970270.69027  27129608.465
  31407039.563 5  24473031.47421  28947926.162
 -13052420.114 7 -10170713.09427  26335912.726
  -3882141.175 7  -3025035.50029  25276466.870
   -894780.889 4   -697244.61822  29024441.598
  -7934404.745 7  -6182647.49028  26265571.823
 92  5  6  9 34  0.0160000  0  6G23G17G11G21G12G28
   5192147.687 7   4045838.70826  27148061.896
  31534014.023 5  24571972.61723  28972090.334
 -13077006.138 7 -10189871.02627  26331237.167
  -3839547.262 8  -2991845.42829  25284573.561
   -906476.939 3   -706358.40821  29022206.050
  -7850994.035 7  -6117652.18328  26281444.628
 92  5  6  9 34 30.0160000  0  5G23G17G11G21G28
   5289226.308 7   4121484.37027  27166538.396
  31661127.516 5  24671022.02723  28996279.093
 -13101033.624 7 -10208593.74428  26326657.828
  -3796692.346 7  -2958451.96829  25292727.018
  -7767046.252 7  -6052238.36728  26297418.470
 92  5  6  9 35  0.0160000  0  5G23G17G11G21G28
   5386404.117 7   4197207.30326  27185031.387
  31788385.533 5  24770184.08421  29020491.235
 -13124501.884 7 -10226880.71127  26322195.424
  -3753565.606 7  -2924846.70429  25300933.227
  -7682557.653 7  -5986403.11228  26313500.242
 92  5  6  9 35 30.0160000  0  6G23G17G11G21G12G28
   5483701.299 6   4273023.29127  27203545.073
  31915801.715 5  24869469.38422  29044733.357
 -13147398.164 7 -10244721.94927  26317839.745
  -3710139.147 7  -2891007.92929  25309197.301
     -3641.73815     -2850.27022  29016136.742
  -7597511.036 7  -5920133.06229  26329689.333
 92  5  6  9 36  0.0160000  0  6G23G17G11G21G12G28
   5581112.004 6   4348927.73726  27222083.347
  32043377.038 5  24968878.63223  29069024.636
 -13169721.207 7 -10262116.52727  26313594.979
  -3666407.537 8  -2856931.32729  25317521.352
    -13192.563 3    -10292.46521  29014313.701
  -7511912.896 7  -5853433.26029  26345967.472
 92  5  6  9 36 30.0160000  0  5G23G17G11G21G28
   5678643.447 6   4424926.30426  27240642.892
  32171110.830 5  25068411.34224  29093320.713
 -13191470.294 8 -10279063.86228  26309455.439
  -3622381.161 7  -2822625.06329  25325897.247
  -7425777.193 7  -5786314.56828  26362358.915
 92  5  6  9 37  0.0160000  0  6G23G17G11G21G12G28
   5776317.749 6   4501036.15726  27259224.024
  32299019.192 5  25168080.10122  29117658.166
 -13212640.664 7 -10295560.24027  26305419.936
  -3578054.188 7  -2788084.56829  25334328.913
     -8171.02115     -6379.56522  29010994.408
  -7339114.585 7  -5718785.28929  26378852.006
 92  5  6  9 37 30.0160000  0  6G23G17G11G21G12G28
   5874146.658 6   4577266.50926  27277836.949
  32427109.530 5  25267890.64622  29142037.289
 -13233222.913 7 -10311598.34127  26301504.055
  -3533428.955 7  -2753311.65129  25342824.429
    -16071.018 5    -12535.42022  29009493.340
  -7251924.399 7  -5650844.92129  26395447.320
 92  5  6  9 38  0.0160000  0  6G23G17G11G21G12G28
   5972116.657 6   4653606.77225  27296481.041
  32555370.531 5  25367834.22321  29166443.094
 -13253227.255 8 -10327186.13427  26297702.071
  -3488518.135 7  -2718316.19029  25351368.213
    -23423.489 5    -18264.59522  29008093.920
  -7164213.734 7  -5582498.96828  26412137.354
 92  5  6  9 38 30.0160000  0  6G23G17G11G21G12G28
   6070217.850 7   4730049.28326  27315155.113
  32683790.361 4  25467901.55222  29190897.759
 -13272658.035 8 -10342326.98227  26294003.533
  -3443319.025 8  -2683096.09029  25359975.253
    -30232.950 5    -23570.66322  29006800.614
  -7075982.054 7  -5513747.03127  26428920.938
 92  5  6  9 39  0.0160000  0  6G23G17G11G21G12G28
   6168442.023 7   4806587.61126  27333844.470
  32812357.537 4  25568083.69223  29215362.319
 -13291507.720 7 -10357015.03828  26290416.815
  -3397824.012 8  -2647645.44029  25368632.970
    -36491.944 5    -28447.80823  29005608.642
  -6987212.890 7  -5444576.28428  26445816.344
 92  5  6  9 39 30.0160000  0  6G23G17G11G21G12G28
   6266774.824 7   4883210.57526  27352557.822
  32941054.437 5  25668366.87823  29239847.871
 -13309773.121 7 -10371247.81627  26286938.323
  -3352035.336 7  -2611965.93529  25377341.030
    -42197.763 6    -32893.86021  29004525.490
  -6897892.090 7  -5374975.69728  26462813.676
 92  5  6  9 40  0.0160000  0  6G23G17G11G21G12G28
   6365211.200 7   4959914.24125  27371292.446
  33069873.161 5  25768745.02724  29264352.915
 -13327452.197 7 -10385023.70827  26283580.361
  -3305939.488 8  -2576047.09929  25386114.458
    -47348.338 5    -36907.31022  29003545.171
  -6808020.004 7  -5304945.52128  26479921.032
 92  5  6  9 40 30.0160000  0  6G23G17G11G21G12G28
   6463753.693 7   5036700.60325  27390044.170
  33198820.798 5  25869223.55223  29288887.921
 -13344537.430 7 -10398336.88128  26280330.310
  -3259553.812 8  -2539902.41829  25394943.343
    -51936.337 5    -40482.35522  29002660.480
  -6717611.644 7  -5234497.49028  26497120.420
 92  5  6  9 41  0.0160000  0  6G23G17G11G21G12G28
   6562412.859 7   5113577.91926  27408819.575
  33327889.822 5  25969796.76722  29313455.018
 -13361023.998 7 -10411183.53727  26277188.485
  -3212883.625 7  -2503536.03029  25403821.107
    -55957.202 5    -43615.44424  29001904.101
  -6626678.159 7  -5163640.26628  26514420.252
 92  5  6  9 41 30.0160000  0  6G23G17G11G21G12G28
   6661171.364 7   5190532.61325  27427611.156
  33457084.356 4  26070467.75622  29338046.092
 -13376917.869 7 -10423568.36127  26274165.671
  -3165942.070 8  -2466958.18929  25412753.420
    -59417.190 5    -46311.56223  29001242.161
  -6535248.801 7  -5092396.64127  26531824.104
 92  5  6  9 42  0.0160000  0  6G23G17G11G21G12G28
   6760029.670 7   5267565.09426  27446424.637
  33586417.313 3  26171246.64722  29362636.276
 -13392211.236 7 -10435485.27528  26271251.694
  -3118740.608 8  -2430177.81829  25421737.891
    -62308.703 4    -48564.68022  29000667.456
  -6443344.950 7  -5020783.30427  26549307.390
 92  5  6  9 42 30.0160000  0  6G23G17G11G21G12G28
   6858984.458 7   5344672.73426  27465254.295
  33715879.368 4  26272126.05322  29387280.415
 -13406902.777 8 -10446933.22028  26268459.729
  -3071293.901 8  -2393206.36029  25430767.349
    -64630.537 5    -50373.90823  29000259.435
  -6350978.012 7  -4948809.06726  26566891.416
 92  5  6  9 43  0.0160000  0  6G23G17G11G21G12G28
   6958035.593 7   5421855.49826  27484102.554
  33845457.266 3  26373095.80621  29411924.852
 -13420992.039 7 -10457911.86827  26265778.678
  -3023583.283 8  -2356029.25529  25439844.167
    -66382.625 6    -51739.16322  28999922.768
  -6258147.753 6  -4876473.78525  26584556.097
 92  5  6  9 43 30.0160000  0  6G23G17G11G21G12G28
   7057187.875 7   5499117.05426  27502975.994
  33975182.650 3  26474180.47222  29436630.451
 -13434466.905 7 -10468411.76627  26263213.950
  -2975596.504 8  -2318636.94029  25448978.536
    -67552.996 5    -52651.11721  28999689.232
  -6164844.550 6  -4803770.01025  26602307.401
 92  5  6  9 44  0.0160000  0  6G23G17G11G21G12G28
   7156449.916 7   5576464.11526  27521862.609
  34105045.213 3  26575372.04022  29461328.250
 -13447333.081 7 -10478437.35027  26260763.747
  -2927334.420 8  -2281030.13429  25458164.174
    -68147.562 5    -53114.36322  28999566.016
  -6071058.739 6  -4730690.19024  26620156.147
 92  5  6  9 44 30.0170000  0  6G23G17G11G21G12G28
   7255840.596 7   5653911.42526  27540775.315
  34235055.315 5  26676678.51723  29486087.513
 -13459583.717 7 -10487983.30927  26258435.560
  -2878768.189 8  -2243186.31029  25467405.585
    -68159.186 5    -53123.46623  28999581.899
  -5976766.585 6  -4657215.81025  26638106.526
 92  5  6  9 45  0.0170000  0  6G23G17G11G21G12G28
   7355353.102 7   5731453.63425  27559702.711
  34365218.468 5  26778104.27722  29510859.650
 -13471219.279 7 -10497049.96827  26256220.394
  -2829902.159 8  -2205108.87929  25476702.154
    -67589.675 5    -52679.71623  28999686.530
  -5881968.260 6  -4583347.01525  26656139.930
 92  5  6  9 45 30.0170000  0  6G23G17G11G21G12G28
   7454981.988 7   5809086.56125  27578667.591
  34495546.042 5  26879658.15423  29535654.594
 -13482242.777 7 -10505639.71528  26254120.958
  -2780748.186 8  -2166807.07329  25486057.477
    -66441.826 5    -51785.25221  28999892.495
  -5786658.665 5  -4509079.83724  26674272.887
 92  5  6  9 46  0.0170000  0  6G23G17G11G21G12G28
   7554725.947 6   5886809.13126  27597642.643
  34626020.324 5  26981326.36323  29560472.905
 -13492655.885 8 -10513753.83428  26252139.923
  -2731310.692 8  -2128284.34829  25495462.255
    -64717.429 6    -50441.53522  29000238.149
  -5690841.036 5  -4434416.75225  26692509.866
 92  5  6  9 46 30.0170000  0  6G23G17G11G21G12G28
   7654590.691 6   5964625.82925  27616647.396
  34756639.430 5  27083107.45622  29585336.795
 -13502443.597 7 -10521380.62727  26250277.007
  -2681580.127 8  -2089533.25129  25504930.900
    -62401.894 5    -48637.20623  29000683.042
  -5594513.219 6  -4359356.12325  26710848.160
 92  5  6  9 47  0.0170000  0  6G23G17G11G21G12G28
   7754562.154 6   6042525.67925  27635672.828
  34887391.613 5  27184992.26723  29610213.878
 -13511606.645 7 -10528520.67127  26248530.415
  -2631571.774 8  -2050565.69329  25514445.125
    -59495.884 5    -46372.75222  29001234.068
  -5497684.248 5  -4283904.97825  26729276.410
 92  5  6  9 47 30.0170000  0  6G23G17G11G21G12G28
   7854631.454 6   6120501.77325  27654715.936
  35018269.154 4  27286974.71122  29635108.638
 -13520139.832 7 -10535169.91028  26246910.337
  -2581280.302 8  -2011377.53729  25524012.399
    -55994.694 5    -43644.64522  29001896.600
  -5400360.044 5  -4208068.01925  26747781.703
 92  5  6  9 48  0.0170000  0  6G23G17G11G21G12G28
   7954770.441 6   6198532.12925  27673772.551
  35149234.305 5  27389025.42322  29660039.973
 -13528059.308 7 -10541340.93228  26245404.487
  -2530718.208 8  -1971978.49529  25533635.129
    -51914.717 5    -40465.43322  29002665.876
  -5302568.474 6  -4131866.85525  26766391.906
 92  5  6  9 48 30.0170000  0  6G23G17G11G21G12G28
   8054988.783 6   6276624.34926  27692848.047
  35280292.086 4  27491148.43221  29684989.003
 -13535349.467 7 -10547021.57927  26244013.740
  -2479873.256 8  -1932359.03529  25543308.832
    -47240.633 5    -36823.22021  29003566.446
  -5204308.940 5  -4055301.00825  26785089.064
 92  5  6  9 49  0.0170000  0  6G23G17G11G21G12G28
   8155279.748 6   6354773.16425  27711935.532
  35411461.654 5  27593358.40522  29709943.129
 -13542007.059 7 -10552209.31128  26242751.618
  -2428741.068 8  -1892515.77229  25553038.899
    -41969.267 5    -32715.71821  29004566.553
  -5105587.829 5  -3978375.46724  26803868.674
 92  5  6  9 49 30.0170000  0  6G23G17G11G21G12G28
   8255653.758 6   6432986.70025  27731026.908
  35542747.919 4  27695659.37122  29734929.345
 -13548032.147 7 -10556904.20127  26241605.523
  -2377326.451 8  -1852452.42129  25562824.719
    -36101.316 5    -28143.26423  29005688.986
  -5006413.406 5  -3901096.76623  26822748.990
 92  5  6  9 50  0.0170000  0  6G23G17G11G21G12G28
   8356123.299 6   6511274.63326  27750147.670
  35674148.699 4  27798049.52321  29759932.628
 -13553428.496 7 -10561109.14826  26240576.030
  -2325639.418 8  -1812176.80529  25572657.917
    -29640.427 5    -23108.72324  29006912.438
  -4906796.821 6  -3823473.48624  26841707.866
 92  5  6  9 50 30.0170000  0  6G23G17G11G21G12G28
   8456703.871 6   6589649.08826  27769285.515
  35805686.887 5  27900546.70521  29784970.096
 -13558191.402 7 -10564820.49827  26239669.456
  -2273686.111 8  -1771693.70129  25582548.369
    -22582.380 5    -17608.94422  29008254.901
  -4806737.262 5  -3745504.95625  26860743.489
 92  5  6  9 51  0.0170000  0  6G23G17G11G21G12G28
   8557400.153 6   6668113.71325  27788443.167
  35937370.814 4  28003157.50422  29810016.847
 -13562320.147 7 -10568037.72127  26238882.800
  -2221469.515 8  -1731005.43329  25592482.900
    -14926.736 5    -11643.51222  29009706.201
  -4706227.438 5  -3667185.54422  26879877.740
 92  5  6  9 51 30.0170000  0  6G23G17G11G21G12G28
   8658227.237 6   6746680.29926  27807637.377
  36069199.855 4  28105881.38622  29835109.492
 -13565810.126 7 -10570757.17327  26238219.657
  -2168993.109 8  -1690114.71129  25602468.386
     -6669.023 5     -5208.95823  29011273.213
  -4605262.140 5  -3588511.38825  26899087.847
 92  5  6  9 52  0.0170000  0  6G23G17G11G21G12G28
   8759183.383 6   6825347.40226  27826849.281
  36201167.618 4  28208713.41423  29860229.098
 -13568653.700 8 -10572972.97327  26237683.621
  -2116247.519 8  -1649014.25729  25612501.842
      2197.909 4      1700.39122  29012973.335
  -4503836.714 5  -3509478.62324  26918398.973
 92  5  6  9 52 30.0170000  0  6G23G17G11G21G12G28
   8860245.650 6   6904097.23926  27846077.659
  36333259.326 4  28311641.99222  29885365.194
 -13570854.966 7 -10574688.25027  26237258.516
  -2063238.574 8  -1607708.57829  25622593.146
     11669.802 5      9081.10824  29014767.287
  -4401951.102 5  -3430087.32124  26937766.167
 92  5  6  9 53  0.0170000  0  5G23G11G21G12G28
   8961403.135 6   6982921.26425  27865326.436
 -13572417.057 7 -10575905.47427  26236959.926
  -2009966.462 8  -1566197.83629  25632731.827
     21743.223 5     16930.45722  29016684.473
  -4299609.909 5  -3350340.96724  26957254.186
 92  5  6  9 53 30.0170000  0  6G15G23G11G21G12G28
   -235755.683 5   -183705.70022  29783692.687
   9062640.765 6   7061807.72525  27884589.906
 -13573333.680 7 -10576619.72628  26236788.757
  -1956424.637 8  -1524476.94629  25642919.683
     32424.051 5     25253.29023  29018716.760
  -4196816.376 5  -3270242.12024  26976810.541
 92  5  6  9 54  0.0170000  0  7G15G23G17G11G21G12G28
   -310201.944 5   -241715.65722  29769517.596
   9163931.766 6   7140735.76825  27903865.050
     22058.78814     17199.50424  29960866.720
 -13573613.274 7 -10576837.63428  26236731.782
  -1902617.316 8  -1482549.13729  25653158.494
     43703.628 6     34042.57523  29020867.168
  -4093582.202 5  -3189799.85422  26996461.632
 92  5  6  9 54 30.0170000  0  7G15G23G17G11G21G12G28
   -384646.271 5   -299724.16022  29755361.386
   9265272.978 6   7219702.89825  27923148.901
    154493.780 5    120395.55422  29986081.360
 -13573250.323 7 -10576554.81528  26236802.542
  -1848529.960 8  -1440403.15529  25663451.557
     55587.260 5     43302.52223  29023115.611
  -3989911.467 5  -3109017.49522  27016192.471
 92  5  6  9 55  0.0170000  0  6G15G23G11G21G12G28
   -459093.146 5   -357734.61821  29741181.514
   9366680.697 6   7298721.84225  27942445.055
 -13572241.019 7 -10575768.36427  26236991.406
  -1794149.152 8  -1398028.49629  25673801.299
     68078.252 5     53035.79323  29025513.358
  -3885817.155 5  -3027905.03122  27035991.680
 92  5  6  9 55 30.0170000  0  6G15G23G11G21G12G28
   -533546.284 5   -415750.01622  29727020.208
   9468171.998 6   7377805.93825  27961760.684
 -13570572.911 7 -10574468.54428  26237317.882
  -1739465.722 8  -1355418.04029  25684208.294
     81189.210 5     63252.08622  29028001.637
  -3781298.485 5  -2946461.95824  27055891.594
 92  5  6  9 56  0.0170000  0  6G15G23G11G21G12G28
   -608009.710 4   -473773.42624  29712838.225
   9569760.739 6   7456965.99724  27981099.696
 -13568253.109 7 -10572660.92027  26237752.288
  -1684488.082 8  -1312578.31929  25694664.762
     94912.354 5     73945.51323  29030606.222
  -3676365.699 5  -2864696.17124  27075850.578
 92  5  6  9 56 30.0170000  0  6G15G23G11G21G12G28
   -682474.011 5   -531797.46421  29698682.032
   9671472.091 6   7536221.59726  28000450.085
 -13565277.899 7 -10570342.58328  26238323.992
  -1629218.221 8  -1269510.88429  25705187.173
    109251.088 5     85118.56723  29033334.337
  -3571018.150 5  -2782607.12823  27095904.891
 92  5  6  9 57  0.0170000  0  6G15G23G11G21G12G28
   -756923.851 5   -589810.30722  29684512.036
   9773318.580 6   7615582.50426  28019839.162
 -13561645.192 7 -10567511.91028  26239012.316
  -1573668.936 8  -1226225.73429  25715756.054
    124207.295 5     96772.78023  29036184.463
  -3465246.038 6  -2700187.32723  27116028.168
 92  5  6  9 57 30.0170000  0  6G15G23G11G21G12G28
   -831355.500 5   -647808.90222  29670340.558
   9875288.326 6   7695039.43025  28039232.147
 -13557354.115 7 -10564168.21628  26239830.748
  -1517858.860 8  -1182737.36829  25726375.908
    139781.543 5    108908.57724  29039151.506
  -3359048.795 5  -2617436.24523  27136239.569
 92  5  6  9 58  0.0170000  0  6G15G23G11G21G12G28
   -905763.304 5   -705788.99624  29656183.458
   9977381.992 6   7774592.94124  28058659.300
 -13552400.200 7 -10560308.04927  26240769.989
  -1461790.483 8  -1139047.72229  25737047.606
    155978.008 5    121529.18923  29042236.670
  -3252421.979 5  -2534350.38622  27156522.934
 92  5  6  9 58 30.0170000  0  6G15G23G11G21G12G28
   -980157.474 5   -763758.40523  29642022.152
  10079578.560 6   7854226.63225  28078112.820
 -13546785.141 7 -10555932.68528  26241838.745
  -1405474.072 8  -1095164.80629  25747759.195
    172794.836 5    134633.18524  29045427.669
  -3145373.855 5  -2450936.30123  27176892.626
 92  5  6  9 59  0.0170000  0  6G15G23G11G21G12G28
  -1054539.024 5   -821718.00923  29627874.650
  10181862.868 6   7933928.70524  28097575.048
 -13540503.928 7 -10551038.24127  26243035.533
  -1348910.755 8  -1051089.48729  25758528.039
    190236.317 5    148223.99522  29048740.383
  -3037907.275 6  -2367196.12725  27197343.862
 92  5  6  9 59 30.0170000  0  6G15G23G11G21G12G28
  -1128917.350 5   -879675.07622  29613717.847
  10284230.385 6   8013695.57825  28117049.875
 -13533556.548 7 -10545624.71528  26244357.003
  -1292110.333 8  -1006829.44229  25769331.364
    208302.607 5    162301.58422  29052191.879
  -2930028.257 6  -2283134.58425  27217875.457
 92  5  6 10  0  0.0170000  0  6G15G23G11G21G12G28
  -1203269.171 5   -937611.51224  29599584.130
  10386700.877 5   8093542.67725  28136544.473
 -13525923.577 7 -10539676.94528  26245810.397
  -1235044.429 8   -962362.49129  25780194.351
    227012.579 5    176880.82724  29055749.525
  -2821709.433 6  -2198730.31225  27238494.582
 92  5  6 10  0 30.0170000  0  6G15G23G11G21G12G28
  -1277550.644 5   -995493.12523  29585443.224
  10489293.405 5   8173484.91323  28156072.663
 -13517572.657 7 -10533169.74628  26247397.198
  -1177674.011 8   -917658.27429  25791110.684
    246398.445 6    191986.72522  29059444.469
  -2712917.359 6  -2113957.32226  27259184.467
 92  5  6 10  1  0.0170000  0  6G15G23G11G21G12G28
  -1351751.343 5  -1053311.81724  29571314.900
  10592018.424 6   8253530.34325  28175634.706
 -13508499.952 7 -10526100.11327  26249124.909
  -1119989.806 8   -872709.54429  25802090.291
    266463.587 5    207621.96622  29063255.422
  -2603649.664 5  -2028813.67625  27279982.858
 92  5  6 10  1 30.0170000  0  6G15G23G11G21G12G28
  -1425853.863 5  -1111054.02924  29557216.869
  10694878.759 6   8333681.22824  28195194.672
 -13498698.713 7 -10518462.80827  26250990.826
  -1061980.192 8   -827507.23329  25813126.542
    287214.375 6    223791.44623  29067207.582
  -2493909.323 5  -1943301.71724  27300859.217
 92  5  6 10  2  0.0170000  0  6G15G23G11G21G12G28
  -1499846.336 4  -1168710.46424  29543137.405
  10797861.504 6   8413927.50625  28214789.714
 -13488168.578 7 -10510257.51627  26252990.429
  -1003623.733 8   -782034.67129  25824231.459
    308651.086 6    240495.40121  29071287.164
  -2383719.022 6  -1857439.16023  27321837.781
 92  5  6 10  2 30.0170000  0  6G15G23G11G21G12G28
  -1573745.451 5  -1226294.13924  29529077.154
  10900952.545 6   8494258.20424  28234413.827
 -13476925.114 7 -10501496.38328  26255132.757
   -944934.253 8   -736302.60729  25835400.227
    330757.744 5    257721.33222  29075499.542
  -2273113.736 6  -1771253.21525  27342877.823
 92  5  6 10  3  0.0170000  0  6G15G23G11G21G12G28
  -1647569.974 5  -1283819.68223  29515027.669
  11004146.963 6   8574669.44224  28254051.726
 -13464988.011 7 -10492194.75028  26257403.973
   -885941.702 8   -690334.38129  25846626.859
    353513.231 5    275453.21721  29079821.350
  -2162127.692 6  -1684770.58626  27364001.800
 92  5  6 10  3 30.0170000  0  6G15G23G11G21G12G28
  -1721324.803 5  -1341290.92023  29500987.800
  11107432.958 6   8655152.04724  28273710.618
 -13452366.355 7 -10482359.69728  26259804.407
   -826660.794 8   -644141.47729  25857904.446
    376911.261 5    293685.16721  29084270.877
  -2050770.429 6  -1597998.71727  27385195.316
 92  5  6 10  4  0.0170000  0  6G15G23G11G21G12G28
  -1795024.611 5  -1398719.31924  29486961.995
  11210824.936 6   8735717.21324  28293377.904
 -13439057.230 7 -10471988.96128  26262337.062
   -767096.925 8   -597728.05929  25869241.696
    400951.412 5    312417.73523  29088840.617
  -1939034.432 6  -1510931.74526  27406454.498
 92  5  6 10  4 30.0170000  0  6G15G23G11G21G12G28
  -1868675.030 5  -1456109.18025  29472955.997
  11314348.062 6   8816384.60523  28313085.953
 -13425049.674 7 -10461073.98227  26265004.921
   -707264.865 8   -551105.68229  25880629.917
    425645.303 5    331659.71722  29093537.466
  -1826891.942 6  -1423548.03026  27427797.929
 92  5  6 10  5  0.0170000  0  6G15G23G11G21G12G28
  -1942286.062 5  -1513468.41524  29458944.292
  11417984.248 6   8897140.08324  28332802.413
 -13410351.818 7 -10449621.12128  26267801.074
   -647180.977 8   -504287.06929  25892057.698
    450984.600 5    351404.58822  29098364.126
  -1714347.111 6  -1335850.75824  27449211.510
 92  5  6 10  5 30.0170000  0  6G15G23G11G21G12G28
  -2015856.054 5  -1570795.60224  29444953.877
  11521733.082 6   8977983.28625  28352541.052
 -13394951.403 7 -10437620.79828  26270729.448
   -586822.051 8   -457254.13629  25903548.754
    476981.376 5    371661.88424  29103296.901
  -1601387.985 6  -1247830.71725  27470706.025
 92  5  6 10  6  0.0170000  0  5G15G23G11G21G28
  -2089403.341 5  -1628105.11424  29430948.472
  11625580.146 6   9058902.98623  28372308.467
 -13378862.987 8 -10425084.40326  26273791.228
   -526203.718 8   -410019.11029  25915082.353
     41594.33816     32415.15624  27492276.693
 92  5  6 10  6 30.0170000  0  6G15G23G11G21G12G28
  -2162919.554 4  -1685390.42724  29416951.460
  11729487.649 6   9139869.89725  28392080.070
 -13362100.762 7 -10412022.91128  26276984.914
   -465331.424 8   -362586.13429  25926664.848
     35766.36116     27858.02424  29113568.693
    155290.891 6    121009.85026  27513907.616
 92  5  6 10  7  0.0170000  0  6G15G23G11G21G12G28
  -2236384.799 4  -1742636.02124  29402970.346
  11833446.554 6   9220876.82424  28411862.474
 -13344663.639 8 -10398435.55627  26280304.225
   -404187.676 8   -314941.70029  25938298.297
     63662.026 6     49594.91023  29118883.715
    269331.875 6    209872.97724  27535607.189
 92  5  6 10  7 30.0170000  0  6G15G23G11G21G12G28
  -2309800.261 5  -1799842.85323  29389003.017
  11937469.433 6   9301933.66925  28431657.774
 -13326548.329 7 -10384319.73227  26283750.346
   -342770.239 8   -267083.93629  25949991.095
     92189.586 6     71824.17222  29124311.466
    383708.093 6    298997.25526  27557379.023
 92  5  6 10  8  0.0170000  0  6G15G23G11G21G12G28
  -2383151.095 5  -1856999.32123  29375049.770
  12041567.816 6   9383049.27023  28451465.359
 -13307745.401 7 -10369668.12028  26287328.653
   -281080.132 8   -219013.74829  25961726.174
    121357.772 5     94552.63524  29129856.412
    498431.128 6    388391.84725  27579209.612
 92  5  6 10  8 30.0170000  0  6G15G23G11G21G12G28
  -2456441.618 5  -1914108.77023  29361098.635
  12145740.507 6   9464222.76725  28471291.529
 -13288255.189 7 -10354480.95328  26291034.695
   -219113.765 8   -170728.25929  25973520.899
    151166.156 6    117779.97424  29135535.097
    613511.484 6    478064.81025  27601105.848
 92  5  6 10  9  0.0170000  0  6G15G23G11G21G12G28
  -2529689.185 5  -1971184.78223  29347163.083
  12250010.726 6   9545472.25725  28491132.391
 -13268079.896 7 -10338759.96328  26294875.942
   -156889.272 8   -122241.65729  25985359.406
    181612.266 5    141504.20523  29141317.488
    728939.329 6    568008.54626  27623071.642
 92  5  6 10  9 30.0180000  0  6G15G23G11G21G12G28
  -2602880.948 5  -2028217.29323  29333234.724
  12354403.047 6   9626816.90023  28510990.044
 -13247198.247 7 -10322488.55528  26298848.784
    -94401.600 8    -73549.97429  25997250.371
    212717.434 5    165741.94022  29147237.181
    844744.400 6    658246.23726  27645104.900
 92  5  6 10 10  0.0180000  0  6G15G23G11G21G12G28
  -2676016.731 5  -2085206.17622  29319313.865
  12458885.721 6   9708231.98425  28530880.989
 -13225625.094 7 -10305678.31427  26302955.047
    -31673.081 8    -24670.61929  26009189.915
    244465.695 6    190480.85522  29153283.996
    960901.259 6    748758.07426  27667211.587
 92  5  6 10 10 30.0180000  0  6G15G23G11G21G12G28
  -2749100.185 5  -2142154.26323  29305417.873
  12563460.928 6   9789719.15025  28550782.997
 -13203361.306 7 -10288329.90028  26307187.213
     31297.598 8     24397.43629  26021172.910
    276856.233 5    215720.21322  29159439.333
   1077400.496 6    839536.71026  27689383.938
 92  5  6 10 11  0.0180000  0  6G15G23G11G21G12G28
  -2822128.626 5  -2199059.51024  29291514.115
  12668128.602 5   9871278.35525  28570694.621
 -13180405.878 7 -10270442.60227  26311561.180
     94498.506 8     73644.88229  26033194.888
    309889.809 5    241460.66522  29165736.785
   1194235.768 6    930577.17424  27711615.952
 92  5  6 10 11 30.0180000  0  6G15G23G11G21G12G28
  -2895109.550 5  -2255927.78025  29277626.517
  12772852.555 6   9952881.44125  28590626.626
 -13156772.625 7 -10252027.07927  26316058.974
    157932.636 8    123074.06829  26045266.338
    343552.452 6    267691.28222  29172144.243
   1311393.526 5   1021868.91125  27733909.111
 92  5  6 10 12  0.0180000  0  6G15G23G11G21G12G28
  -2968037.616 5  -2312754.79324  29263743.438
  12877633.117 6  10034528.60024  28610567.915
 -13132460.102 7 -10233082.30328  26320683.875
    221620.869 8    172701.24629  26057386.945
    377845.184 5    294412.91023  29178665.023
   1428866.874 6   1113406.53825  27756261.932
 92  5  6 10 12 30.0180000  0  6G15G23G11G21G12G28
  -3040923.988 5  -2369549.36924  29249887.616
  12982464.384 5  10116215.32725  28630507.406
 -13107479.715 7 -10213617.06927  26325436.773
    285552.743 8    222518.27929  26069551.317
    412756.297 6    321616.33523  29185312.631
   1546651.541 5   1205186.77524  27778682.513
 92  5  6 10 13  0.0180000  0  6G15G23G11G21G12G28
  -3113762.546 5  -2426306.69924  29236016.821
  13087334.836 6  10197932.52924  28650468.797
 -13081830.475 7 -10193630.64928  26330316.796
    349726.477 8    272523.77729  26081763.974
    448286.419 6    349302.09325  29192080.140
   1664747.806 6   1297209.86525  27801160.662
 92  5  6 10 13 30.0180000  0  6G15G23G11G21G12G28
  -3186451.016 5  -2482947.05823  29222189.199
  13192329.376 6  10279746.41224  28670451.460
 -13055416.611 7 -10173048.44328  26335346.124
    414238.502 8    322792.87629  26094039.871
    484531.053 5    377544.72124  29198972.679
   1783245.319 6   1389545.50924  27823701.161
 92  5  6 10 14  0.0180000  0  6G15G23G11G21G12G28
  -3259078.719 5  -2539540.06023  29208362.467
  13297375.818 6  10361600.79624  28690438.015
 -13028326.289 7 -10151939.12527  26340501.058
    478982.339 8    373242.58729  26106362.534
    521401.780 5    406275.16424  29205989.307
   1902054.867 6   1482124.36824  27846309.698
 92  5  6 10 14 30.0180000  0  6G15G23G11G21G12G28
  -3331665.669 6  -2596101.29422  29194556.430
  13402462.475 6  10443486.44725  28710445.876
 -13000572.542 7 -10130312.83428  26345779.504
    543925.618 8    423847.74329  26118717.882
    558885.420 5    435483.13424  29213126.778
   2021158.748 6   1574932.54024  27868976.414
 92  5  6 10 15  0.0180000  0  6G15G23G11G21G12G28
  -3404197.152 5  -2652619.29923  29180751.877
  13507590.032 5  10525404.05123  28730430.633
 -12972145.500 7 -10108161.93228  26351189.543
    609079.524 8    474617.01329  26131119.106
    596991.396 5    465176.07921  29220367.362
   2140564.015 6   1667975.61226  27891699.773
